[[{"header":{"parameterUnit":"m.s-1","parameterCategory":1,"la1":31.0,"la2":29.5877,"lo1":-88.7671,"lo2":-86.6584,"dy":0.0162,"dx":0.0185,"nx":115,"ny":88,"refTime":"2023-03-02T18:00:00:Z","depth":0,"parameterNumber":2,"parameterNumberName":"U-component_of_WINDS"},"data":[0.0,0.0,0.0,0.0,0.0,0.0,0.0,0.0,0.0,0.0,0.0,0.0,0.0,0.0,0.0,0.0,0.0,0.0,0.0,0.0,0.0,0.0,0.0,0.0,0.0,0.0,0.0,0.0,0.0,0.0,0.0,0.0,0.0,0.0,0.0,0.0,0.0,0.0,0.0,0.0,0.0,0.0,0.0,0.0,0.0,0.0,0.0,0.0,0.0,0.0,0.0,0.0,0.0,0.0,0.0,0.0,0.0,0.0,0.0,0.0,0.0,0.0,0.0,0.0,0.0,0.0,0.0,0.0,0.0,0.0,0.0,0.0,0.0,0.0,0.0,0.0,0.0,0.0,0.0,0.0,0.0,0.0,0.0,0.0,0.0,0.0,0.0,0.0,0.0,0.0,0.0,0.0,0.0,0.0,0.0,0.0,0.0,0.0,0.0,0.0,0.0,0.0,0.0,0.0,0.0,0.0,0.0,0.0,0.0,0.0,0.0,0.0,0.0,0.0,0.0,0.0,0.0,0.0,0.0,0.0,0.0,0.0,0.0,0.0,0.0,0.0,0.0,0.0,0.0,0.0,0.0,0.0,0.0,0.0,0.0,0.0,0.0,0.0,0.0,0.0,0.0,0.0,0.0,0.0,0.0,0.0,0.0,0.0,0.0,0.0,0.0,0.0,0.0,0.0,0.0,0.0,0.0,0.0,0.0,0.0,0.0,0.0,0.0,0.0,0.0,0.0,0.0,0.0,0.0,0.0,0.0,0.0,0.0,0.0,0.0,0.0,0.0,0.0,0.0,0.0,0.0,0.0,0.0,0.0,0.0,0.0,0.0,0.0,0.0,0.0,0.0,0.0,0.0,0.0,0.0,0.0,0.0,0.0,0.0,0.0,0.0,0.0,0.0,0.0,0.0,0.0,0.0,0.0,0.0,0.0,0.0,0.0,0.0,0.0,0.0,0.0,0.0,0.0,0.0,0.0,0.0,0.0,0.0,0.0,0.0,0.0,0.0,0.0,0.0,0.0,0.0,0.0,0.0,0.0,0.0,0.0,0.0,0.0,0.0,0.0,0.0,0.0,0.0,0.0,0.0,0.0,0.0,0.0,0.0,0.0,0.0,0.0,0.0,0.0,0.0,0.0,0.0,0.0,0.0,0.0,0.0,0.0,0.0,0.0,0.0,0.0,0.0,0.0,0.0,0.0,0.0,0.0,0.0,0.0,0.0,0.0,0.0,0.0,0.0,0.0,0.0,0.0,0.0,0.0,0.0,0.0,0.0,0.0,0.0,0.0,0.0,0.0,0.0,0.0,0.0,0.0,0.0,0.0,0.0,0.0,0.0,0.0,0.0,0.0,0.0,0.0,0.0,0.0,0.0,0.0,0.0,0.0,0.0,0.0,0.0,0.0,0.0,0.0,0.0,0.0,0.0,0.0,0.0,0.0,0.0,0.0,0.0,0.0,0.0,0.0,0.0,0.0,0.0,0.0,0.0,0.0,0.0,0.0,0.0,0.0,0.0,0.0,0.0,0.0,0.0,0.0,0.0,0.0,0.0,0.0,0.0,0.0,0.0,0.0,0.0,0.0,0.0,0.0,0.0,0.0,0.0,0.0,0.0,0.0,0.0,0.0,0.0,0.0,0.0,0.0,0.0,0.0,0.0,0.0,0.0,0.0,0.0,0.0,0.0,0.0,0.0,0.0,0.0,0.0,0.0,0.0,0.0,0.0,0.0,0.0,0.0,0.0,0.0,0.0,0.0,0.0,0.0,0.0,0.0,0.0,0.0,0.0,0.0,0.0,0.0,0.0,0.0,0.0,0.0,0.0,0.0,0.0,0.0,0.0,0.0,0.0,0.0,0.0,0.0,0.0,0.0,0.0,0.0,0.0,0.0,0.0,0.0,0.0,0.0,0.0,0.0,0.0,0.0,0.0,0.0,0.0,0.0,0.0,0.0,0.0,0.0,0.0,0.0,0.0,0.0,0.0,0.0,0.0,0.0,0.0,0.0,0.0,0.0,0.0,0.0,0.0,0.0,0.0,0.0,0.0,0.0,0.0,0.0,0.0,0.0,0.0,0.0,0.0,0.0,0.0,0.0,0.0,0.0,0.0,0.0,0.0,0.0,0.0,0.0,0.0,0.0,0.0,0.0,0.0,0.0,0.0,0.0,0.0,0.0,0.0,0.0,0.0,0.0,0.0,0.0,0.0,0.0,0.0,0.0,0.0,0.0,0.0,0.0,0.0,0.0,0.0,0.0,0.0,0.0,0.0,0.0,0.0,0.0,0.0,0.0,0.0,0.0,0.0,0.0,0.0,0.0,0.0,0.0,0.0,0.0,0.0,0.0,0.0,0.0,0.0,0.0,0.0,0.0,0.0,0.0,0.0,0.0,0.0,0.0,0.0,0.0,0.0,0.0,0.0,0.0,0.0,0.0,0.0,0.0,0.0,0.0,0.0,0.0,0.0,0.0,0.0,0.0,0.0,0.0,0.0,0.0,0.0,0.0,0.0,0.0,0.0,0.0,0.0,0.0,0.0,0.0,0.0,0.0,0.0,0.0,0.0,0.0,0.0,0.0,0.0,0.0,0.0,0.0,0.0,0.0,0.0,0.0,0.0,0.0,0.0,0.0,0.0,0.0,0.0,0.0,0.0,0.0,0.0,0.0,0.0,0.0,0.0,0.0,0.0,0.0,0.0,0.0,0.0,0.0,0.0,0.0,0.0,0.0,0.0,0.0,0.0,0.0,0.0,0.0,0.0,0.0,0.0,0.0,0.0,0.0,0.0,0.0,0.0,0.0,0.0,0.0,0.0,0.0,0.0,0.0,0.0,0.0,0.0,0.0,0.0,0.0,0.0,0.0,0.0,0.0,0.0,0.0,0.0,0.0,0.0,0.0,0.0,0.0,0.0,0.0,0.0,0.0,0.0,0.0,0.0,0.0,0.0,0.0,0.0,0.0,0.0,0.0,0.0,0.0,0.0,0.0,0.0,0.0,0.0,0.0,0.0,0.0,0.0,0.0,0.0,0.0,0.0,0.0,0.0,0.0,0.0,0.0,0.0,0.0,0.0,0.0,0.0,0.0,0.0,0.0,0.0,0.0,0.0,0.0,0.0,0.0,0.0,0.0,0.0,0.0,0.0,0.0,0.0,0.0,0.0,0.0,0.0,0.0,0.0,0.0,0.0,0.0,0.0,0.0,0.0,0.0,0.0,0.0,0.0,0.0,0.0,0.0,0.0,0.0,0.0,0.0,0.0,0.0,0.0,0.0,0.0,0.0,0.0,0.0,0.0,0.0,0.0,0.0,0.0,0.0,0.0,0.0,0.0,0.0,0.0,0.0,0.0,0.0,0.0,0.0,0.0,0.0,0.0,0.0,0.0,0.0,0.0,0.0,0.0,0.0,0.0,0.0,0.0,0.0,0.0,0.0,0.0,0.0,0.0,0.0,0.0,0.0,0.0,0.0,0.0,0.0,0.0,0.0,0.0,0.0,0.0,0.0,0.0,0.0,0.0,0.0,0.0,0.0,0.0,0.0,0.0,0.0,0.0,0.0,0.0,0.0,0.0,0.0,0.0,0.0,0.0,0.0,0.0,0.0,0.0,0.0,0.0,0.0,0.0,0.0,0.0,0.0,0.0,0.0,0.0,0.0,0.0,0.0,0.0,0.0,0.0,0.0,0.0,0.0,0.0,0.0,0.0,0.0,0.0,0.0,0.0,0.0,0.0,0.0,0.0,0.0,0.0,0.0,0.0,0.0,0.0,0.0,0.0,0.0,0.0,0.0,0.0,0.0,0.0,0.0,0.0,0.0,0.0,0.0,0.0,0.0,0.0,0.0,0.0,0.0,0.0,0.0,0.0,0.0,0.0,0.0,0.0,0.0,0.0,0.0,0.0,0.0,0.0,0.0,0.0,0.0,0.0,0.0,0.0,0.0,0.0,0.0,0.0,0.0,0.0,0.0,0.0,0.0,0.0,0.0,0.0,0.0,0.0,0.0,0.0,0.0,0.0,0.0,0.0,0.0,0.0,0.0,0.0,0.0,0.0,0.0,0.0,0.0,0.0,0.0,0.0,0.0,0.0,0.0,0.0,0.0,0.0,0.0,0.0,0.0,0.0,0.0,0.0,0.0,0.0,0.0,0.0,0.0,0.0,0.0,0.0,0.0,0.0,0.0,0.0,0.0,0.0,0.0,0.0,0.0,0.0,0.0,0.0,0.0,0.0,0.0,0.0,0.0,0.0,0.0,0.0,0.0,0.0,0.0,0.0,0.0,0.0,0.0,0.0,0.0,0.0,1.9551,0.0,0.0,0.0,0.0,0.0,0.0,0.0,0.0,0.0,0.0,0.0,0.0,0.0,0.0,0.0,0.0,0.0,0.0,0.0,0.0,0.0,0.0,0.0,0.0,0.0,0.0,0.0,0.0,0.0,0.0,0.0,0.0,0.0,0.0,0.0,0.0,0.0,0.0,0.0,0.0,0.0,0.0,0.0,0.0,0.0,0.0,0.0,0.0,0.0,0.0,0.0,0.0,0.0,0.0,0.0,0.0,0.0,0.0,0.0,0.0,0.0,0.0,0.0,0.0,0.0,0.0,0.0,0.0,0.0,0.0,0.0,0.0,0.0,0.0,0.0,0.0,0.0,0.0,0.0,0.0,0.0,0.0,0.0,0.0,0.0,0.0,0.0,0.0,0.0,0.0,0.0,0.0,0.0,0.0,0.0,0.0,0.0,0.0,0.0,0.0,0.0,0.0,0.0,0.0,0.0,0.0,0.0,0.0,0.0,0.0,2.0542,2.0229,1.9993,1.9864,1.9812,0.0,0.0,0.0,0.0,0.0,0.0,0.0,0.0,0.0,0.0,0.0,0.0,0.0,0.0,0.0,0.0,0.0,0.0,0.0,0.0,0.0,0.0,0.0,0.0,0.0,0.0,0.0,0.0,0.0,0.0,0.0,0.0,0.0,0.0,0.0,0.0,0.0,0.0,0.0,0.0,0.0,0.0,0.0,0.0,0.0,0.0,0.0,0.0,0.0,0.0,0.0,0.0,0.0,0.0,0.0,0.0,0.0,0.0,0.0,0.0,0.0,0.0,0.0,0.0,0.0,0.0,0.0,0.0,0.0,0.0,0.0,0.0,0.0,0.0,0.0,0.0,0.0,0.0,0.0,0.0,0.0,0.0,0.0,0.0,0.0,0.0,0.0,0.0,0.0,0.0,0.0,0.0,0.0,0.0,0.0,0.0,0.0,0.0,0.0,0.0,0.0,0.0,0.0,0.0,0.0,0.0,0.0,0.0,0.0,0.0,0.0,0.0,2.0517,2.049,2.006,0.0,0.0,0.0,0.0,0.0,0.0,0.0,0.0,0.0,0.0,0.0,0.0,0.0,0.0,0.0,0.0,0.0,0.0,0.0,0.0,0.0,0.0,0.0,0.0,0.0,0.0,0.0,0.0,0.0,0.0,0.0,0.0,0.0,0.0,0.0,0.0,0.0,0.0,0.0,0.0,0.0,0.0,0.0,0.0,0.0,0.0,0.0,0.0,0.0,0.0,0.0,0.0,0.0,0.0,0.0,0.0,0.0,0.0,0.0,0.0,0.0,0.0,0.0,0.0,0.0,0.0,0.0,0.0,0.0,0.0,0.0,0.0,0.0,0.0,0.0,0.0,0.0,0.0,0.0,0.0,0.0,0.0,0.0,0.0,0.0,0.0,0.0,0.0,0.0,0.0,0.0,0.0,0.0,0.0,0.0,0.0,0.0,0.0,0.0,0.0,0.0,0.0,0.0,0.0,0.0,0.0,0.0,0.0,0.0,0.0,2.0909,2.1316,2.0935,0.0,2.0621,0.0,0.0,0.0,0.0,0.0,0.0,0.0,0.0,0.0,0.0,0.0,0.0,0.0,0.0,0.0,0.0,0.0,0.0,0.0,0.0,0.0,0.0,0.0,0.0,0.0,0.0,0.0,0.0,0.0,0.0,0.0,0.0,0.0,0.0,0.0,0.0,0.0,0.0,0.0,0.0,0.0,0.0,0.0,0.0,0.0,0.0,0.0,0.0,0.0,0.0,0.0,0.0,0.0,0.0,0.0,0.0,0.0,0.0,0.0,0.0,0.0,0.0,0.0,0.0,0.0,0.0,0.0,0.0,0.0,0.0,0.0,0.0,0.0,0.0,0.0,0.0,0.0,0.0,0.0,0.0,0.0,0.0,0.0,0.0,0.0,0.0,0.0,0.0,0.0,0.0,0.0,0.0,0.0,0.0,0.0,0.0,0.0,0.0,0.0,0.0,0.0,0.0,0.0,0.0,0.0,0.0,0.0,0.0,0.0,0.0,2.0804,2.1027,2.0804,2.0699,0.0,0.0,0.0,0.0,0.0,0.0,0.0,0.0,0.0,0.0,0.0,0.0,0.0,0.0,0.0,0.0,0.0,0.0,0.0,0.0,0.0,0.0,0.0,0.0,0.0,0.0,0.0,0.0,0.0,0.0,0.0,0.0,0.0,0.0,0.0,0.0,0.0,0.0,0.0,0.0,0.0,0.0,0.0,0.0,0.0,0.0,0.0,0.0,0.0,0.0,0.0,0.0,0.0,0.0,0.0,0.0,0.0,0.0,0.0,0.0,0.0,0.0,0.0,0.0,0.0,0.0,0.0,0.0,0.0,0.0,0.0,0.0,0.0,0.0,0.0,0.0,0.0,0.0,0.0,0.0,0.0,0.0,0.0,0.0,0.0,0.0,0.0,0.0,0.0,0.0,0.0,0.0,0.0,0.0,0.0,0.0,0.0,0.0,0.0,0.0,0.0,0.0,0.0,0.0,0.0,0.0,0.0,0.0,0.0,0.0,2.0765,2.0699,2.0699,2.0542,2.0529,2.0686,0.0,0.0,0.0,0.0,0.0,0.0,0.0,0.0,0.0,0.0,0.0,0.0,0.0,0.0,0.0,0.0,0.0,0.0,0.0,0.0,0.0,0.0,0.0,0.0,0.0,0.0,0.0,0.0,0.0,0.0,0.0,0.0,0.0,0.0,0.0,0.0,0.0,0.0,0.0,0.0,0.0,0.0,0.0,0.0,0.0,0.0,0.0,0.0,0.0,0.0,0.0,0.0,0.0,0.0,0.0,0.0,0.0,0.0,0.0,0.0,0.0,0.0,0.0,0.0,0.0,0.0,0.0,0.0,0.0,0.0,0.0,0.0,0.0,0.0,0.0,0.0,0.0,0.0,0.0,0.0,0.0,0.0,0.0,0.0,0.0,0.0,0.0,0.0,0.0,0.0,0.0,0.0,0.0,0.0,0.0,0.0,0.0,0.0,0.0,0.0,0.0,0.0,0.0,0.0,0.0,0.0,0.0,0.0,2.1394,2.0949,2.0699,2.0673,2.0138,2.0112,0.0,0.0,0.0,0.0,0.0,0.0,0.0,0.0,0.0,0.0,0.0,0.0,0.0,0.0,0.0,0.0,0.0,0.0,0.0,0.0,0.0,0.0,0.0,0.0,0.0,0.0,0.0,0.0,0.0,0.0,0.0,0.0,0.0,0.0,0.0,0.0,0.0,0.0,0.0,0.0,0.0,0.0,0.0,0.0,0.0,0.0,0.0,0.0,0.0,0.0,0.0,0.0,0.0,0.0,0.0,0.0,0.0,0.0,0.0,0.0,0.0,0.0,0.0,0.0,0.0,0.0,0.0,0.0,0.0,0.0,0.0,0.0,0.0,0.0,0.0,0.0,0.0,0.0,0.0,0.0,0.0,0.0,0.0,0.0,0.0,0.0,0.0,0.0,0.0,0.0,0.0,0.0,0.0,0.0,0.0,0.0,0.0,0.0,0.0,0.0,0.0,0.0,0.0,0.0,0.0,0.0,0.0,0.0,0.0,2.0414,1.9851,1.9733,2.0086,1.9904,2.0086,0.0,0.0,0.0,0.0,0.0,0.0,0.0,0.0,0.0,0.0,0.0,0.0,0.0,0.0,0.0,0.0,0.0,0.0,0.0,0.0,0.0,0.0,0.0,0.0,0.0,0.0,0.0,0.0,0.0,0.0,0.0,0.0,0.0,0.0,0.0,0.0,0.0,0.0,0.0,0.0,0.0,0.0,0.0,0.0,0.0,0.0,0.0,0.0,0.0,0.0,0.0,0.0,0.0,0.0,0.0,0.0,0.0,0.0,0.0,0.0,0.0,0.0,0.0,0.0,0.0,0.0,0.0,0.0,0.0,0.0,0.0,0.0,0.0,0.0,0.0,0.0,0.0,0.0,0.0,0.0,0.0,0.0,0.0,0.0,0.0,0.0,0.0,0.0,0.0,0.0,0.0,0.0,0.0,0.0,0.0,0.0,0.0,0.0,0.0,0.0,0.0,0.0,0.0,0.0,0.0,0.0,0.0,0.0,0.0,1.9799,0.0,1.929,1.9486,1.95,1.9682,0.0,0.0,0.0,0.0,0.0,0.0,0.0,0.0,0.0,0.0,0.0,0.0,0.0,0.0,0.0,0.0,0.0,0.0,0.0,0.0,0.0,0.0,0.0,0.0,0.0,0.0,0.0,0.0,0.0,0.0,0.0,0.0,0.0,0.0,0.0,0.0,0.0,0.0,0.0,0.0,0.0,0.0,0.0,0.0,0.0,0.0,0.0,0.0,0.0,0.0,0.0,0.0,0.0,0.0,0.0,0.0,0.0,0.0,0.0,0.0,0.0,0.0,0.0,0.0,0.0,0.0,0.0,0.0,0.0,0.0,0.0,0.0,0.0,0.0,0.0,0.0,0.0,0.0,0.0,0.0,0.0,0.0,0.0,0.0,0.0,0.0,0.0,0.0,0.0,0.0,0.0,0.0,0.0,0.0,0.0,0.0,0.0,0.0,0.0,0.0,0.0,0.0,0.0,0.0,0.0,0.0,0.0,0.0,1.9812,1.9786,1.9735,1.9499,1.8963,1.8976,1.8963,0.0,0.0,0.0,0.0,0.0,0.0,0.0,0.0,0.0,0.0,0.0,0.0,0.0,0.0,0.0,0.0,0.0,0.0,0.0,0.0,0.0,0.0,0.0,0.0,0.0,0.0,0.0,0.0,0.0,0.0,0.0,0.0,0.0,0.0,0.0,0.0,0.0,0.0,0.0,0.0,0.0,0.0,0.0,0.0,0.0,0.0,0.0,0.0,0.0,0.0,0.0,0.0,0.0,0.0,0.0,0.0,0.0,0.0,0.0,0.0,0.0,0.0,0.0,0.0,0.0,0.0,0.0,0.0,0.0,0.0,0.0,0.0,0.0,0.0,0.0,0.0,0.0,0.0,0.0,0.0,0.0,0.0,0.0,0.0,0.0,0.0,0.0,0.0,0.0,0.0,0.0,0.0,0.0,0.0,0.0,0.0,0.0,0.0,0.0,0.0,0.0,0.0,0.0,0.0,0.0,0.0,0.0,0.0,0.0,1.8675,1.8989,1.9498,2.0098,1.9721,2.0074,0.0,0.0,0.0,0.0,0.0,0.0,0.0,0.0,0.0,0.0,0.0,0.0,0.0,0.0,0.0,0.0,0.0,0.0,0.0,0.0,0.0,0.0,0.0,0.0,0.0,0.0,0.0,0.0,0.0,0.0,0.0,0.0,0.0,0.0,0.0,0.0,0.0,0.0,0.0,0.0,0.0,0.0,0.0,0.0,0.0,0.0,0.0,0.0,0.0,0.0,0.0,0.0,0.0,0.0,0.0,0.0,0.0,0.0,0.0,0.0,0.0,0.0,0.0,0.0,0.0,0.0,0.0,0.0,0.0,0.0,0.0,0.0,0.0,0.0,0.0,0.0,0.0,0.0,0.0,0.0,0.0,0.0,0.0,0.0,0.0,0.0,0.0,0.0,0.0,0.0,0.0,0.0,0.0,0.0,0.0,0.0,0.0,0.0,0.0,0.0,0.0,0.0,0.0,0.0,0.0,0.0,0.0,0.0,0.0,1.9433,1.9708,2.0231,2.0975,2.0439,2.0543,2.138,0.0,0.0,0.0,0.0,0.0,0.0,0.0,0.0,0.0,0.0,0.0,0.0,0.0,0.0,0.0,0.0,0.0,0.0,0.0,0.0,0.0,0.0,0.0,0.0,0.0,0.0,0.0,0.0,0.0,0.0,0.0,0.0,0.0,0.0,0.0,0.0,0.0,0.0,0.0,0.0,0.0,0.0,0.0,0.0,0.0,0.0,0.0,0.0,0.0,0.0,0.0,0.0,0.0,0.0,0.0,0.0,0.0,0.0,0.0,0.0,0.0,0.0,0.0,0.0,0.0,0.0,0.0,0.0,0.0,0.0,0.0,0.0,0.0,0.0,0.0,0.0,0.0,0.0,0.0,0.0,0.0,0.0,0.0,0.0,0.0,0.0,0.0,0.0,0.0,0.0,0.0,0.0,0.0,0.0,0.0,0.0,0.0,0.0,0.0,0.0,0.0,0.0,0.0,0.0,0.0,0.0,0.0,0.0,2.1655,2.1734,2.1773,2.1734,2.1171,2.0582,0.0,0.0,0.0,0.0,0.0,0.0,0.0,0.0,0.0,0.0,0.0,0.0,0.0,0.0,0.0,0.0,0.0,0.0,0.0,0.0,0.0,0.0,0.0,0.0,0.0,0.0,0.0,0.0,0.0,0.0,0.0,0.0,0.0,0.0,0.0,0.0,0.0,0.0,0.0,0.0,0.0,0.0,0.0,0.0,0.0,0.0,0.0,0.0,0.0,0.0,0.0,0.0,0.0,0.0,0.0,0.0,0.0,0.0,0.0,0.0,0.0,0.0,0.0,0.0,0.0,0.0,0.0,0.0,0.0,0.0,0.0,0.0,0.0,0.0,0.0,0.0,0.0,0.0,0.0,0.0,0.0,0.0,0.0,0.0,0.0,0.0,0.0,0.0,0.0,0.0,0.0,0.0,0.0,0.0,0.0,0.0,0.0,0.0,0.0,0.0,0.0,0.0,0.0,0.0,0.0,0.0,0.0,0.0,0.0,2.3445,2.4676,2.4938,2.4101,2.308,2.2465,0.0,0.0,0.0,0.0,0.0,0.0,0.0,0.0,0.0,0.0,0.0,0.0,0.0,0.0,0.0,0.0,0.0,0.0,0.0,0.0,0.0,0.0,0.0,0.0,0.0,0.0,0.0,0.0,0.0,0.0,0.0,0.0,0.0,0.0,0.0,0.0,0.0,0.0,0.0,0.0,0.0,0.0,0.0,0.0,0.0,0.0,0.0,0.0,0.0,0.0,0.0,0.0,0.0,0.0,0.0,0.0,0.0,0.0,0.0,0.0,0.0,0.0,0.0,0.0,0.0,0.0,0.0,0.0,0.0,0.0,0.0,0.0,0.0,0.0,0.0,0.0,0.0,0.0,0.0,0.0,0.0,0.0,0.0,0.0,0.0,0.0,0.0,0.0,0.0,0.0,0.0,0.0,0.0,0.0,0.0,0.0,0.0,0.0,0.0,0.0,0.0,0.0,0.0,0.0,0.0,0.0,0.0,0.0,2.4375,2.521,2.7105,2.7706,2.6837,2.5434,2.4217,0.0,0.0,0.0,0.0,0.0,0.0,0.0,0.0,0.0,0.0,0.0,0.0,0.0,0.0,0.0,0.0,0.0,0.0,0.0,0.0,0.0,0.0,0.0,0.0,0.0,0.0,0.0,0.0,0.0,0.0,0.0,0.0,0.0,0.0,0.0,0.0,0.0,0.0,0.0,0.0,0.0,0.0,0.0,0.0,0.0,0.0,0.0,0.0,0.0,0.0,0.0,0.0,0.0,0.0,0.0,0.0,0.0,0.0,0.0,0.0,0.0,0.0,0.0,0.0,0.0,0.0,0.0,0.0,0.0,0.0,0.0,0.0,0.0,0.0,0.0,0.0,0.0,0.0,0.0,0.0,0.0,0.0,0.0,0.0,0.0,0.0,0.0,0.0,0.0,0.0,0.0,0.0,0.0,0.0,0.0,0.0,0.0,0.0,0.0,0.0,0.0,0.0,0.0,0.0,0.0,0.0,0.0,0.0,2.5633,2.6768,2.9008,2.9967,2.9449,2.7674,2.5641,0.0,0.0,0.0,0.0,0.0,0.0,0.0,0.0,0.0,0.0,0.0,0.0,0.0,0.0,0.0,0.0,0.0,0.0,0.0,0.0,0.0,0.0,0.0,0.0,0.0,0.0,0.0,0.0,0.0,0.0,0.0,0.0,0.0,0.0,0.0,0.0,0.0,0.0,0.0,0.0,0.0,0.0,0.0,0.0,0.0,0.0,0.0,0.0,0.0,0.0,0.0,0.0,0.0,0.0,0.0,0.0,0.0,0.0,0.0,0.0,0.0,0.0,0.0,0.0,0.0,0.0,0.0,0.0,0.0,0.0,0.0,0.0,0.0,0.0,0.0,0.0,0.0,0.0,0.0,0.0,0.0,0.0,0.0,0.0,0.0,0.0,0.0,0.0,0.0,0.0,0.0,0.0,0.0,0.0,0.0,0.0,0.0,0.0,0.0,0.0,0.0,0.0,0.0,0.0,0.0,0.0,0.0,0.0,2.6174,2.7337,2.9614,3.0751,3.0626,2.8076,2.6052,0.0,0.0,0.0,0.0,0.0,0.0,0.0,0.0,0.0,0.0,0.0,0.0,0.0,0.0,0.0,0.0,0.0,0.0,0.0,0.0,0.0,0.0,0.0,0.0,0.0,0.0,0.0,0.0,0.0,0.0,0.0,0.0,0.0,0.0,0.0,0.0,0.0,0.0,0.0,0.0,0.0,0.0,0.0,0.0,0.0,0.0,0.0,0.0,2.148,0.0,0.0,0.0,0.0,0.0,0.0,0.0,0.0,0.0,0.0,0.0,0.0,0.0,0.0,0.0,0.0,0.0,0.0,0.0,0.0,0.0,0.0,0.0,0.0,0.0,0.0,0.0,0.0,0.0,0.0,0.0,0.0,0.0,0.0,0.0,0.0,0.0,0.0,0.0,0.0,0.0,0.0,0.0,0.0,0.0,0.0,0.0,0.0,0.0,0.0,0.0,0.0,0.0,0.0,0.0,0.0,0.0,0.0,0.0,2.6922,2.8333,3.0072,3.1005,3.0914,2.8717,2.6964,0.0,0.0,0.0,0.0,0.0,0.0,0.0,0.0,0.0,0.0,0.0,0.0,0.0,0.0,0.0,0.0,0.0,0.0,0.0,0.0,0.0,0.0,0.0,0.0,0.0,0.0,0.0,0.0,0.0,0.0,0.0,0.0,0.0,0.0,0.0,0.0,0.0,0.0,0.0,0.0,0.0,0.0,0.0,0.0,0.0,0.0,0.0,0.0,0.0,0.0,0.0,0.0,0.0,0.0,0.0,0.0,0.0,0.0,0.0,0.0,0.0,0.0,0.0,0.0,0.0,0.0,0.0,0.0,0.0,0.0,0.0,0.0,0.0,0.0,0.0,0.0,0.0,0.0,0.0,0.0,0.0,0.0,0.0,0.0,0.0,0.0,0.0,0.0,0.0,0.0,0.0,0.0,0.0,0.0,0.0,0.0,0.0,0.0,0.0,0.0,0.0,0.0,0.0,0.0,0.0,0.0,0.0,2.5905,2.7566,2.9384,3.0469,3.1005,3.0966,2.941,2.7984,2.686,0.0,0.0,0.0,0.0,0.0,0.0,0.0,0.0,0.0,0.0,0.0,0.0,0.0,0.0,0.0,0.0,0.0,0.0,0.0,0.0,0.0,0.0,0.0,0.0,0.0,0.0,0.0,0.0,0.0,0.0,0.0,0.0,0.0,0.0,0.0,0.0,0.0,0.0,2.1509,2.2565,0.0,0.0,0.0,0.0,0.0,0.0,0.0,0.0,2.1701,0.0,0.0,0.0,0.0,0.0,0.0,0.0,0.0,0.0,0.0,0.0,0.0,0.0,0.0,0.0,0.0,0.0,0.0,0.0,0.0,0.0,0.0,0.0,0.0,0.0,0.0,0.0,0.0,0.0,0.0,0.0,0.0,0.0,0.0,0.0,0.0,0.0,0.0,0.0,0.0,0.0,0.0,0.0,0.0,0.0,0.0,0.0,0.0,0.0,0.0,0.0,0.0,0.0,0.0,0.0,0.0,2.5467,2.6311,2.7762,2.991,3.0634,3.1005,3.0966,2.9802,2.8599,2.7389,0.0,0.0,0.0,0.0,0.0,0.0,0.0,0.0,0.0,0.0,0.0,0.0,0.0,0.0,0.0,0.0,0.0,0.0,0.0,0.0,0.0,0.0,0.0,0.0,0.0,0.0,0.0,0.0,0.0,0.0,0.0,0.0,0.0,0.0,0.0,0.0,0.0,0.0,0.0,2.3122,2.3906,0.0,0.0,0.0,0.0,0.0,0.0,0.0,0.0,2.2949,0.0,0.0,0.0,0.0,0.0,0.0,0.0,0.0,0.0,0.0,0.0,0.0,0.0,0.0,0.0,0.0,0.0,0.0,0.0,0.0,0.0,0.0,0.0,0.0,0.0,0.0,0.0,0.0,0.0,0.0,0.0,0.0,0.0,0.0,0.0,0.0,0.0,0.0,0.0,0.0,0.0,0.0,0.0,0.0,0.0,0.0,0.0,0.0,0.0,0.0,0.0,0.0,0.0,0.0,0.0,2.6164,2.7134,2.8543,3.049,3.0843,3.1005,3.0966,2.9593,2.8412,0.0,0.0,0.0,0.0,0.0,0.0,0.0,0.0,0.0,0.0,0.0,0.0,0.0,0.0,0.0,0.0,0.0,0.0,0.0,0.0,0.0,0.0,0.0,0.0,0.0,0.0,0.0,0.0,0.0,0.0,0.0,0.0,0.0,0.0,0.0,0.0,0.0,0.0,0.0,0.0,2.3676,2.4403,2.4375,0.0,0.0,0.0,0.0,0.0,0.0,2.3501,2.3595,0.0,0.0,0.0,0.0,0.0,0.0,0.0,0.0,0.0,0.0,0.0,0.0,0.0,0.0,0.0,0.0,0.0,0.0,0.0,0.0,0.0,0.0,0.0,0.0,0.0,0.0,0.0,0.0,0.0,0.0,0.0,0.0,0.0,0.0,0.0,0.0,0.0,0.0,0.0,0.0,0.0,0.0,0.0,0.0,0.0,0.0,0.0,0.0,0.0,0.0,0.0,0.0,0.0,0.0,0.0,2.6654,2.7814,2.9292,3.1052,3.1039,3.1039,3.1061,2.947,2.8225,0.0,0.0,0.0,0.0,0.0,0.0,0.0,0.0,0.0,0.0,0.0,0.0,0.0,0.0,0.0,0.0,0.0,0.0,0.0,0.0,0.0,0.0,0.0,0.0,0.0,0.0,0.0,0.0,0.0,0.0,0.0,0.0,0.0,0.0,0.0,0.0,0.0,0.0,0.0,0.0,0.0,2.5043,2.498,2.5824,0.0,0.0,0.0,0.0,2.3999,2.4641,0.0,0.0,0.0,0.0,0.0,0.0,0.0,0.0,0.0,0.0,0.0,0.0,0.0,0.0,0.0,0.0,0.0,0.0,0.0,0.0,0.0,0.0,0.0,0.0,0.0,0.0,0.0,0.0,0.0,0.0,0.0,0.0,0.0,0.0,0.0,0.0,0.0,0.0,0.0,0.0,0.0,0.0,0.0,0.0,0.0,0.0,0.0,0.0,0.0,0.0,0.0,0.0,0.0,0.0,0.0,0.0,2.6651,2.7814,2.9488,3.1568,3.1248,3.1133,3.1397,2.9999,2.8578,0.0,0.0,0.0,0.0,0.0,0.0,0.0,0.0,0.0,0.0,0.0,0.0,0.0,0.0,0.0,0.0,0.0,0.0,0.0,0.0,0.0,0.0,0.0,0.0,0.0,0.0,0.0,0.0,0.0,0.0,0.0,0.0,0.0,0.0,0.0,0.0,0.0,0.0,0.0,0.0,0.0,2.6104,2.5566,2.6077,2.6382,0.0,0.0,2.6669,2.6508,2.8261,0.0,0.0,0.0,0.0,0.0,0.0,0.0,0.0,0.0,0.0,0.0,0.0,0.0,0.0,0.0,0.0,0.0,0.0,0.0,0.0,0.0,0.0,0.0,0.0,0.0,0.0,0.0,0.0,0.0,0.0,0.0,0.0,0.0,0.0,0.0,0.0,0.0,0.0,0.0,0.0,0.0,0.0,0.0,0.0,0.0,0.0,0.0,0.0,0.0,0.0,0.0,0.0,0.0,0.0,0.0,2.5216,2.6459,2.798,2.9198,3.0062,3.0005,2.9928,2.9964,2.8113,2.6848,0.0,0.0,0.0,0.0,0.0,0.0,0.0,0.0,0.0,0.0,0.0,0.0,0.0,0.0,0.0,0.0,0.0,0.0,0.0,0.0,0.0,0.0,0.0,0.0,0.0,0.0,0.0,0.0,0.0,0.0,0.0,0.0,0.0,0.0,0.0,0.0,0.0,0.0,0.0,0.0,0.0,0.0,2.6077,2.7066,0.0,0.0,0.0,2.8103,2.804,0.0,0.0,0.0,0.0,0.0,0.0,0.0,0.0,0.0,0.0,0.0,0.0,0.0,0.0,0.0,0.0,0.0,0.0,0.0,0.0,0.0,0.0,0.0,0.0,0.0,0.0,0.0,0.0,0.0,0.0,0.0,0.0,0.0,0.0,0.0,0.0,0.0,0.0,0.0,0.0,0.0,0.0,0.0,0.0,0.0,0.0,0.0,0.0,0.0,0.0,0.0,0.0,0.0,0.0,0.0,0.0,0.0,2.6429,2.7966,2.883,2.8917,2.8935,2.8903,2.8825,2.6737,0.0,0.0,0.0,0.0,0.0,0.0,0.0,0.0,0.0,0.0,0.0,0.0,0.0,0.0,0.0,0.0,0.0,0.0,0.0,0.0,0.0,0.0,0.0,0.0,0.0,0.0,0.0,2.1204,0.0,0.0,0.0,0.0,0.0,0.0,0.0,0.0,0.0,0.0,0.0,0.0,0.0,0.0,2.7389,2.6934,2.8126,2.8802,0.0,0.0,2.9402,2.9221,3.0062,3.0224,0.0,0.0,0.0,0.0,0.0,0.0,0.0,0.0,0.0,0.0,0.0,0.0,0.0,0.0,0.0,0.0,0.0,0.0,0.0,0.0,0.0,0.0,0.0,0.0,0.0,0.0,0.0,0.0,0.0,0.0,0.0,0.0,0.0,0.0,0.0,0.0,0.0,0.0,0.0,0.0,0.0,0.0,0.0,0.0,0.0,0.0,0.0,0.0,0.0,0.0,0.0,0.0,0.0,0.0,0.0,2.6753,2.7693,2.8508,2.9216,2.8739,2.8621,2.8931,2.7147,2.5791,0.0,0.0,0.0,0.0,0.0,0.0,0.0,0.0,0.0,0.0,0.0,0.0,0.0,0.0,0.0,0.0,0.0,0.0,0.0,0.0,0.0,0.0,0.0,0.0,0.0,0.0,0.0,0.0,0.0,0.0,0.0,0.0,0.0,0.0,0.0,0.0,0.0,0.0,0.0,0.0,0.0,2.8694,2.8475,2.9021,2.9758,0.0,0.0,3.0806,3.0116,3.23,3.2673,2.8543,0.0,0.0,0.0,0.0,0.0,0.0,0.0,0.0,0.0,0.0,0.0,0.0,0.0,0.0,0.0,0.0,0.0,0.0,0.0,0.0,0.0,0.0,0.0,0.0,0.0,0.0,0.0,0.0,0.0,0.0,0.0,0.0,0.0,0.0,0.0,0.0,0.0,0.0,0.0,0.0,0.0,0.0,0.0,0.0,0.0,0.0,0.0,0.0,0.0,0.0,0.0,0.0,0.0,2.5191,2.5349,2.6547,2.7126,2.7017,2.7163,2.7109,2.6899,2.5231,2.4283,0.0,0.0,0.0,0.0,0.0,0.0,0.0,0.0,0.0,0.0,0.0,0.0,0.0,0.0,0.0,0.0,0.0,0.0,0.0,0.0,0.0,0.0,0.0,0.0,0.0,0.0,0.0,0.0,2.219,2.2482,2.3098,0.0,0.0,0.0,0.0,0.0,0.0,0.0,0.0,0.0,0.0,2.9368,2.9671,3.0176,0.0,0.0,3.1753,3.2173,3.1764,3.2313,3.211,3.0097,2.9363,0.0,0.0,0.0,0.0,0.0,0.0,0.0,0.0,0.0,0.0,0.0,0.0,0.0,0.0,0.0,0.0,0.0,0.0,0.0,0.0,0.0,0.0,0.0,0.0,0.0,0.0,0.0,0.0,0.0,0.0,0.0,0.0,0.0,0.0,0.0,0.0,0.0,0.0,0.0,0.0,0.0,0.0,0.0,0.0,0.0,0.0,0.0,0.0,0.0,0.0,0.0,0.0,2.4683,2.4686,2.5896,2.6329,2.5907,2.6168,2.6116,2.5665,2.42,2.341,0.0,0.0,0.0,0.0,0.0,0.0,0.0,0.0,0.0,0.0,0.0,0.0,0.0,0.0,0.0,0.0,0.0,0.0,0.0,0.0,0.0,0.0,0.0,0.0,0.0,0.0,0.0,0.0,2.2896,2.323,2.3657,0.0,0.0,0.0,0.0,0.0,0.0,0.0,0.0,0.0,0.0,2.9781,3.0469,3.0892,3.1301,3.1698,3.2266,3.264,3.2679,3.2195,3.1497,3.0639,0.0,0.0,0.0,0.0,0.0,0.0,0.0,0.0,0.0,0.0,0.0,0.0,0.0,0.0,0.0,0.0,0.0,0.0,0.0,0.0,0.0,0.0,0.0,0.0,0.0,0.0,0.0,0.0,0.0,0.0,0.0,0.0,0.0,0.0,0.0,0.0,0.0,0.0,0.0,0.0,0.0,0.0,0.0,0.0,0.0,0.0,0.0,0.0,0.0,0.0,0.0,0.0,0.0,2.4442,2.5257,2.6016,2.6439,2.6534,2.6138,2.5922,2.5879,2.4582,2.367,2.3215,0.0,0.0,0.0,0.0,0.0,0.0,0.0,0.0,0.0,0.0,0.0,0.0,0.0,0.0,0.0,0.0,0.0,0.0,0.0,0.0,0.0,0.0,0.0,0.0,0.0,0.0,2.2695,2.3255,2.3723,0.0,0.0,0.0,0.0,0.0,0.0,0.0,0.0,0.0,0.0,2.8797,2.9854,3.0828,3.1005,3.1626,3.3221,3.2548,3.2039,3.2594,3.2182,3.1223,0.0,0.0,0.0,0.0,0.0,0.0,0.0,0.0,0.0,0.0,0.0,0.0,0.0,0.0,0.0,0.0,0.0,0.0,0.0,0.0,0.0,0.0,0.0,0.0,0.0,0.0,0.0,2.443,2.3606,0.0,0.0,0.0,0.0,0.0,0.0,0.0,0.0,0.0,0.0,0.0,2.3996,2.3506,0.0,0.0,0.0,0.0,0.0,0.0,0.0,0.0,0.0,0.0,0.0,0.0,2.4167,2.4934,2.5389,2.5769,2.6148,2.6281,2.6208,2.5897,2.4861,2.3815,2.277,0.0,0.0,0.0,0.0,0.0,0.0,0.0,0.0,0.0,0.0,0.0,0.0,0.0,0.0,0.0,0.0,0.0,0.0,0.0,0.0,0.0,0.0,0.0,0.0,0.0,2.4329,0.0,0.0,0.0,0.0,0.0,0.0,0.0,0.0,0.0,0.0,0.0,2.7799,2.833,2.9604,3.0629,3.0953,3.1313,3.1751,0.0,0.0,0.0,0.0,0.0,0.0,0.0,0.0,0.0,0.0,0.0,0.0,0.0,0.0,3.023,2.8317,2.7817,2.7867,2.8401,0.0,0.0,0.0,0.0,0.0,0.0,0.0,0.0,0.0,0.0,0.0,0.0,0.0,0.0,0.0,0.0,2.3872,0.0,0.0,0.0,0.0,0.0,0.0,0.0,0.0,2.3355,2.3749,2.4366,2.42,2.4315,0.0,2.4761,2.4851,0.0,0.0,0.0,0.0,0.0,0.0,0.0,0.0,2.4139,2.4909,2.5267,2.5751,2.6353,2.6542,2.6447,2.6136,2.5077,2.4032,2.3008,2.3132,2.2904,0.0,0.0,0.0,0.0,0.0,0.0,0.0,0.0,0.0,0.0,0.0,0.0,0.0,0.0,0.0,0.0,0.0,0.0,0.0,0.0,0.0,0.0,0.0,2.5406,0.0,0.0,0.0,0.0,0.0,0.0,0.0,0.0,0.0,2.7499,2.7618,2.8087,2.9342,3.0171,3.0736,3.0842,0.0,0.0,0.0,0.0,0.0,0.0,0.0,3.164,3.179,3.1373,3.119,3.1706,3.2143,3.2333,3.2136,0.0,0.0,2.9291,2.8834,2.8926,2.9626,2.992,3.0214,3.089,3.1317,3.1547,0.0,0.0,0.0,0.0,0.0,0.0,0.0,0.0,2.5526,2.5745,0.0,2.5058,0.0,0.0,0.0,0.0,0.0,0.0,0.0,0.0,2.4364,2.4559,2.4673,2.5535,2.5689,2.5304,2.5701,2.5464,2.4624,2.444,0.0,0.0,0.0,0.0,0.0,0.0,2.4343,2.5211,2.5678,2.6364,2.7237,2.684,2.6635,2.655,2.5263,2.4353,2.3929,2.3505,2.3225,2.3194,2.3623,0.0,0.0,0.0,0.0,0.0,0.0,0.0,0.0,0.0,0.0,0.0,0.0,0.0,0.0,0.0,0.0,0.0,0.0,0.0,0.0,2.5858,0.0,0.0,0.0,0.0,0.0,0.0,0.0,0.0,0.0,0.0,2.8321,2.7765,2.8203,3.0595,0.0,0.0,0.0,0.0,3.1714,3.1382,3.2102,3.2809,3.3342,3.2938,3.2371,3.1837,0.0,0.0,3.1922,3.185,3.1759,3.1185,3.1198,3.1261,3.1713,3.123,3.1065,3.1595,3.1365,3.13,3.1764,3.2097,3.2025,2.64,0.0,0.0,0.0,0.0,2.5263,2.5509,2.5349,2.6257,2.6009,2.4956,2.469,0.0,0.0,0.0,0.0,0.0,0.0,2.4395,2.5307,2.5452,2.5866,2.6509,2.6768,2.6809,2.6695,2.6498,2.626,2.5991,2.5621,2.467,2.3205,0.0,0.0,0.0,0.0,2.4767,2.5668,2.6167,2.6685,2.7289,2.7151,2.6923,2.6602,2.5865,2.513,2.4353,2.4198,2.3825,2.3246,2.3645,0.0,0.0,0.0,0.0,0.0,0.0,0.0,0.0,0.0,0.0,0.0,0.0,0.0,0.0,0.0,0.0,0.0,0.0,0.0,2.6402,2.6697,2.7071,0.0,0.0,0.0,0.0,0.0,0.0,0.0,0.0,0.0,2.813,2.7854,2.8129,0.0,0.0,3.0441,3.0455,3.1594,3.1942,3.0551,0.0,0.0,0.0,3.0811,3.0765,3.0987,3.1862,3.2506,3.2336,3.2862,3.3047,3.2215,3.28,3.3287,3.2705,3.1751,3.1262,3.1699,3.2359,3.2999,3.3561,3.4259,3.4808,2.792,2.6603,2.5349,2.5089,2.5536,2.6255,2.6545,2.6579,2.7184,2.6936,2.61,2.5749,2.5213,2.453,2.4157,0.0,0.0,0.0,2.5587,2.6693,2.6693,2.7109,2.7804,2.7986,2.8,2.7804,2.7534,2.7282,2.712,2.6674,2.5815,2.4572,0.0,0.0,2.4394,2.4663,2.5232,2.6156,2.6656,2.7029,2.7299,2.732,2.7092,2.6602,2.6146,2.5544,2.4797,2.459,2.427,2.3753,2.3826,2.3722,0.0,0.0,0.0,0.0,0.0,0.0,0.0,0.0,0.0,0.0,0.0,2.4066,2.5153,0.0,0.0,0.0,2.5785,2.6303,2.6678,2.6925,0.0,0.0,0.0,0.0,0.0,0.0,0.0,2.6675,2.6372,2.6785,2.8196,2.772,2.7904,2.9788,3.0199,3.0319,3.0319,0.0,3.146,3.0195,3.0797,3.1222,3.0648,3.0575,3.0704,3.0994,3.1647,3.2125,3.2159,3.2639,3.2771,3.239,3.2785,3.3109,3.255,3.2054,3.2295,3.3584,3.422,3.4881,3.5874,3.6658,3.7024,2.9942,2.9404,2.8145,2.7759,2.8003,2.8045,2.8324,2.8717,2.8303,2.8334,2.8624,2.7793,2.7133,2.6592,2.5771,0.0,0.0,2.655,2.722,2.8055,2.8121,2.8365,2.882,2.927,2.9249,2.882,2.8763,2.8479,2.8055,2.7638,2.7151,2.6685,2.5854,2.5377,2.5263,2.5335,2.5792,2.6633,2.7175,2.7403,2.7361,2.732,2.7081,2.6602,2.6136,2.5668,2.5222,2.4767,2.4507,2.4487,2.4157,2.4023,2.4158,0.0,0.0,0.0,0.0,0.0,0.0,0.0,0.0,0.0,0.0,0.0,0.0,0.0,0.0,0.0,2.6302,0.0,2.6682,2.6692,0.0,0.0,0.0,2.6866,2.6809,2.7339,2.7626,2.7532,0.0,0.0,2.8436,0.0,2.7662,3.0196,3.0155,2.9955,3.0167,3.0587,3.061,3.0111,3.0855,3.1432,3.1116,3.114,3.1095,3.1153,3.1378,3.1325,3.1325,3.148,3.1478,3.1303,3.1466,3.1577,3.151,3.2135,3.3669,3.6022,3.6278,3.6509,3.783,3.8358,3.8246,3.1788,3.1302,3.0677,2.9875,2.8975,2.9352,2.9766,3.018,3.0077,2.9901,2.9611,2.87,2.7876,2.7133,2.6902,2.7013,2.7458,2.7914,2.8618,2.9497,2.987,3.0274,3.0745,3.0859,3.0849,3.0704,3.0005,2.9601,2.9466,2.868,2.8059,2.7603,2.7362,2.6731,2.5792,2.6447,2.6913,2.7143,2.7883,2.8121,2.7745,2.7462,2.7081,2.6612,2.6146,2.5678,2.5222,2.4735,2.4507,2.4497,2.4415,2.4229,2.3981,2.3878,0.0,0.0,0.0,0.0,0.0,0.0,0.0,0.0,0.0,2.4597,2.6016,0.0,2.5422,0.0,2.5284,2.5499,2.6581,2.6561,0.0,0.0,2.8339,2.8349,2.7679,2.8057,2.7956,2.6944,2.7101,2.7502,2.8065,2.7875,2.8051,2.9114,2.9462,2.9746,3.0157,3.0884,3.0848,2.9578,2.9932,3.026,2.9669,2.9463,2.9509,2.9474,2.9497,2.9463,2.9497,3.0079,3.0328,2.9749,3.0677,3.1201,3.0654,3.1289,3.2546,3.4315,3.5435,3.6245,3.6796,3.7822,3.849,3.3172,3.2923,3.2714,3.203,3.1102,3.0967,3.1164,3.1578,3.1354,3.1143,3.0816,2.9916,2.9259,2.8798,2.8601,2.8721,2.913,2.9425,2.9922,3.0615,3.0901,3.116,3.1408,3.1408,3.1408,3.1388,3.088,3.0615,3.059,2.988,2.9301,2.882,2.8613,2.8059,2.7148,2.7407,2.7669,2.7886,2.8359,2.8493,2.821,2.779,2.7358,2.6902,2.625,2.5771,2.5501,2.487,2.4507,2.4507,2.4507,2.4383,2.4167,2.4167,2.4095,0.0,0.0,0.0,0.0,0.0,0.0,0.0,0.0,0.0,0.0,0.0,2.5476,2.6003,2.5859,2.6094,2.6888,2.6852,2.7094,2.7784,2.8155,2.8158,2.7678,2.7838,2.7742,2.7009,2.714,2.7501,2.7914,2.7991,2.8199,2.8738,2.9011,2.9364,2.9803,3.0194,3.0023,2.9264,2.9365,2.9417,2.8862,2.8803,2.888,2.9032,2.8935,2.8869,2.9077,2.9342,2.9394,2.9001,2.9658,3.0215,2.9726,3.0339,3.1254,3.1926,3.3341,3.483,3.612,3.7418,3.8091,3.4185,3.4174,3.4123,3.3864,3.3439,3.2605,3.2439,3.2667,3.2274,3.2039,3.1964,3.1205,3.0833,3.075,3.0356,3.0398,3.0797,3.0833,3.1081,3.1481,3.1553,3.1574,3.1585,3.1585,3.1585,3.1574,3.1485,3.1481,3.1443,3.0998,3.0563,3.017,2.9766,2.9373,2.897,2.8541,2.8489,2.8783,2.8706,2.8665,2.87,2.8169,2.7686,2.7216,2.6353,2.5846,2.5711,2.4932,2.4507,2.4507,2.4507,2.4528,2.458,2.458,2.4718,0.0,2.4813,0.0,0.0,0.0,0.0,0.0,0.0,0.0,0.0,2.4983,2.5535,2.6563,2.7042,2.7315,2.7315,2.7315,2.7337,2.738,2.738,2.7403,2.7391,2.7457,2.7446,2.738,2.7435,2.7642,2.8057,2.8112,2.8286,2.8727,2.8828,2.8984,2.9308,2.9138,2.9039,2.9425,2.9206,2.9169,2.9077,2.9044,2.9152,2.9469,2.9305,2.9119,2.9534,2.923,2.8913,2.8878,2.8917,2.8896,2.8803,2.9509,2.9896,2.979,3.1147,3.304,3.5302,3.6598,3.6952,3.4661,3.463,3.4257,3.404,3.3946,3.3762,3.3317,3.2698,3.2605,3.2367,3.1977,3.1829,3.155,3.1274,3.1181,3.1191,3.1284,3.1619,3.1809,3.1902,3.2274,3.245,3.245,3.2478,3.245,3.2457,3.2067,3.1881,3.1881,3.1464,3.1232,3.1139,3.1046,3.0973,3.0853,0.0,0.0,0.0,2.9363,2.9177,2.9145,2.8324,2.7531,2.6757,2.6198,0.0,2.4797,2.458,2.4507,2.4507,2.4507,0.0,0.0,0.0,0.0,0.0,0.0,0.0,0.0,0.0,0.0,0.0,2.5871,2.5897,2.6181,2.6442,2.6692,2.6897,2.715,2.7315,2.7315,2.7315,2.7446,2.7805,2.786,2.7882,2.7893,2.8233,2.8365,2.7926,2.8244,2.8552,2.8594,2.8649,2.8671,2.8781,2.8803,2.8836,2.8935,2.8869,2.8978,2.9414,2.9663,2.9904,2.9936,2.9879,2.9882,3.0046,3.0024,2.9958,3.0002,2.9652,2.937,2.9338,2.9042,2.8803,2.8803,2.8955,2.9214,2.9438,3.0122,3.1309,3.3438,3.4432,3.4894,3.55,0.0,3.5086,3.4848,0.0,3.4433,3.405,3.3368,3.3141,3.2799,3.2357,3.2346,3.2233,3.2043,3.2043,3.2043,3.2064,3.2253,3.2471,3.2706,3.2934,3.3019,3.3047,3.3047,3.2905,3.2698,3.2471,3.2346,3.2326,3.1919,3.1702,3.1692,3.1512,3.1408,3.1408,3.1408,3.1056,3.0346,3.0098,2.9756,2.9311,2.882,2.8173,2.7272,0.0,0.0,0.0,0.0,0.0,0.0,0.0,0.0,0.0,0.0,0.0,2.5887,2.5908,2.5908,2.5918,2.6206,2.6399,2.641,2.6793,2.6982,2.6827,2.6999,2.7254,2.7479,2.79,2.8035,2.7706,2.7958,2.8133,2.804,2.812,2.82,2.8234,2.8558,2.8682,2.8462,2.865,2.8803,2.8803,2.8803,2.8803,2.8803,2.8803,2.8803,2.8803,2.8803,2.8978,2.9412,2.9893,3.0209,3.022,3.022,3.0283,3.0461,3.0362,3.033,3.0515,2.9958,2.9512,2.948,2.9108,2.8803,2.8803,2.8803,2.888,2.9097,2.9349,2.9875,3.1224,3.221,3.2809,3.6121,3.5428,3.5811,3.5604,3.5024,3.4941,3.464,3.4185,0.0,0.0,0.0,3.2936,3.2936,3.2936,3.2936,3.2936,3.2936,3.2936,3.3161,3.3522,3.3522,3.348,3.3408,3.3379,3.3151,3.2708,3.2698,3.2698,3.2688,3.2315,3.214,3.2098,3.1795,3.1619,3.1609,3.1619,3.1391,3.0936,3.0853,3.0398,2.958,2.9466,2.899,2.8045,2.7555,2.7092,2.6602,2.6146,2.5908,2.5908,2.5908,2.5949,2.6011,2.6022,2.6063,2.6136,2.6146,2.6136,2.6156,2.6571,2.683,2.684,2.75,2.7686,2.7207,2.7364,2.7639,2.8033,2.859,2.8638,2.8064,2.8515,2.8683,2.8053,2.8196,2.8337,2.8337,2.8501,2.863,2.8664,2.863,2.8687,2.871,2.8699,2.8768,2.8803,2.8803,2.8803,2.8825,2.8902,2.913,2.9611,2.9991,3.0231,3.0294,3.0253,3.0349,3.0614,3.0493,3.0482,3.0657,3.0253,2.9819,2.984,2.9359,2.911,2.8978,2.8967,2.8924,2.8924,2.8858,2.8957,2.9458,3.0343,3.0932,3.5552,3.5397,3.549,3.5676,3.5883,3.55,3.5076,3.4661,3.4205,3.3967,3.3915,3.3915,3.3905,3.3915,3.3915,3.3905,3.3915,3.3915,3.3946,0.0,3.4009,3.3791,3.3389,3.3379,3.3151,3.2719,3.2698,3.2698,3.2698,3.2646,3.2605,3.2605,3.2533,3.2502,3.2512,3.2512,3.2284,3.1829,3.1474,3.1046,3.0538,3.0134,2.9456,2.8545,2.7741,2.7092,2.6625,2.619,2.5908,2.5908,2.5908,2.6084,2.6467,2.6509,2.6664,2.7071,2.7112,2.7112,2.7112,2.7489,2.7738,2.7714,2.7838,2.7862,2.7783,2.8014,2.819,2.8243,2.8208,2.813,2.8021,2.8106,2.8162,2.8008,2.8021,2.8045,2.8068,2.8115,2.8151,2.8128,2.8105,2.8233,2.8418,2.8465,2.8547,2.8734,2.8835,2.8825,2.8869,2.9164,2.9554,2.998,3.0166,3.0373,3.057,3.0439,3.0272,3.0286,3.0592,3.0766,3.0876,3.069,3.0573,3.0657,3.0177,2.9794,2.9491,2.9403,2.9359,2.9327,2.9064,2.8978,2.9359,2.9458,2.9491,3.6629,3.6235,3.6442,3.6525,3.6463,3.6256,3.6059,3.5863,3.5376,3.4775,3.4123,3.4102,3.4102,3.4102,3.4102,3.4102,3.4102,3.4102,3.4226,3.4464,3.4475,3.4361,3.4174,3.4154,3.3915,3.3472,3.3461,3.3451,3.3461,3.3451,3.3461,3.343,3.3213,3.2936,3.2719,3.2698,3.2595,3.2377,3.1943,3.1516,3.1108,3.088,3.0331,2.9394,2.8938,2.8425,2.7707,2.7479,2.7365,2.7355,2.7365,2.7458,2.7679,2.7438,2.7545,2.7945,2.7759,2.7648,2.7638,2.7607,2.7586,2.7596,2.779,2.79,2.79,2.7804,2.7765,2.7785,2.8028,2.806,2.7697,2.797,2.8047,2.7652,2.7726,2.7786,2.7809,2.7927,2.7987,2.7987,2.7987,2.8045,2.8173,2.8173,2.829,2.8546,2.8883,2.9052,2.8869,2.9219,2.9554,2.9794,3.0024,3.0275,3.0482,3.0362,3.0231,3.022,3.0603,3.0865,3.0876,3.0745,3.0668,3.0788,3.0341,2.9915,2.9829,2.9665,2.9545,2.9458,2.9142,2.8978,2.9044,2.8935,2.8989,3.7457,3.6846,3.7187,3.7136,3.6815,3.6918,3.6898,3.6731,3.6051,3.5375,3.4755,3.4609,3.4558,3.4568,3.4672,3.4713,3.4713,3.4713,3.4828,3.5065,3.5096,3.4993,3.4806,3.4786,3.4547,3.4143,3.4102,3.4102,3.4102,3.4102,3.4102,3.406,3.3739,3.3346,3.2863,3.2843,3.2801,3.2688,3.2318,3.1953,3.1547,3.1536,3.1091,3.0232,3.0036,2.9611,2.8799,2.8669,2.8593,2.8582,2.8489,2.8438,2.8417,2.8096,2.8055,2.8365,2.8107,2.79,2.7879,2.7603,2.7431,2.7441,2.7728,2.7858,2.7759,2.7493,2.7361,2.7465,2.7865,2.7892,2.7485,2.7771,2.7923,2.7375,2.7452,2.7513,2.7536,2.7715,2.7857,2.7833,2.7844,2.7857,2.7904,2.7904,2.8008,2.832,2.8888,2.9126,2.89,2.9193,2.9441,2.9519,2.9733,2.9969,3.0087,2.9945,2.9915,3.0002,3.0308,3.0526,3.0603,3.0482,3.0592,3.0898,3.0452,3.0059,3.0155,2.9936,2.9676,2.9534,2.9228,2.8978,2.8858,2.8836,2.8803,3.6865,3.6815,3.6769,3.6846,3.678,3.7162,3.7068,3.6588,3.5333,3.5458,3.6219,3.6111,3.581,3.5987,3.6244,3.6347,3.6325,3.6514,3.6255,3.5924,3.5987,3.5562,3.491,3.4797,3.4547,3.4205,3.4195,3.4257,3.4216,3.4154,3.4112,3.4102,3.405,3.3801,3.3368,3.3356,3.3141,3.2719,3.2657,3.2408,3.1984,3.1926,3.1519,3.0683,3.0222,2.9766,2.929,2.8835,2.8603,2.8551,2.8255,2.7993,2.7993,2.7931,2.7931,2.7993,2.7931,2.79,2.79,2.7869,2.7821,2.7838,2.7862,2.7738,2.741,2.7351,2.7451,2.77,2.7558,2.7406,2.732,2.7395,2.744,2.7364,2.7333,2.7333,2.7357,2.7357,2.7357,2.737,2.7428,2.7441,2.7607,2.7655,2.7762,2.8008,2.8585,2.89,2.8804,2.9176,2.9443,2.935,2.9197,2.9354,2.9823,2.9458,2.9277,2.9508,2.9631,2.9947,3.0261,3.0646,3.0974,3.1225,3.105,3.0581,3.033,3.0144,2.9991,2.9565,2.9381,2.9261,2.8946,2.8803,2.8803,3.5754,3.4965,3.4965,3.4965,3.4994,3.5191,3.5162,3.4878,3.4017,3.4013,3.4493,3.433,3.4639,3.5211,3.5401,3.5037,3.4284,3.5103,3.5413,3.5201,3.5201,3.546,3.5871,3.5063,3.4983,3.5666,3.5687,3.5542,3.5273,3.5004,3.4745,3.4527,3.4506,3.4268,3.3853,3.3812,3.3729,3.3524,3.3244,3.3016,3.283,3.2553,3.2109,3.1547,3.1298,3.0843,3.0201,2.9932,2.9715,2.9446,2.9249,2.9145,2.9145,2.8613,2.8452,2.868,2.8189,2.79,2.79,2.7686,2.7565,2.7545,2.7555,2.7472,2.734,2.732,2.7368,2.7482,2.7413,2.732,2.732,2.732,2.732,2.732,2.732,2.732,2.732,2.732,2.732,2.732,2.732,2.7333,2.7428,2.7547,2.7631,2.7868,2.8494,2.9005,2.8828,2.9324,2.9632,2.9434,2.9246,2.916,2.937,2.9303,2.9095,2.9063,2.9588,3.0184,3.0204,3.0603,3.104,3.1505,3.1134,3.0818,3.0668,3.057,3.0417,2.9794,2.9206,2.8999,2.8836,2.8803,2.8803,3.4793,3.3785,3.3697,3.3697,3.3697,3.3697,3.3697,3.3575,3.2914,3.2822,3.313,3.2788,3.3018,3.3731,3.4137,3.3736,3.3007,3.387,3.427,3.4183,3.4164,3.4667,3.5416,3.4537,3.4537,3.5438,3.5496,3.5582,3.5599,3.5368,3.4992,3.4646,3.4595,3.4105,3.3276,3.3467,3.3657,3.3544,3.3543,3.3542,3.3377,3.3068,3.2605,3.2078,3.2016,3.1643,3.0942,3.0787,3.0532,3.0201,2.9953,2.9798,2.9777,2.9166,2.8924,2.9187,2.8541,2.8096,2.8076,2.7607,2.7337,2.7431,2.7392,2.732,2.732,2.732,2.732,2.733,2.732,2.732,2.732,2.732,2.732,2.732,2.732,2.732,2.732,2.732,2.732,2.732,2.732,2.732,2.7354,2.7508,2.7684,2.7816,2.8631,2.9285,2.9053,2.9534,2.9935,2.9608,2.958,2.9465,2.9161,2.9214,2.9159,2.92,2.9748,3.007,3.0146,3.0496,3.09,3.1189,3.09,3.0662,3.048,3.0504,3.0428,2.972,2.9163,2.888,2.8803,2.888,2.9,3.4117,3.3656,3.3672,3.3499,3.3628,3.3568,3.3603,3.3291,3.2123,3.2289,3.3142,3.2114,3.1597,3.1756,3.2957,3.3633,3.353,3.3562,3.3438,3.3101,3.3083,3.2881,3.2594,3.2518,3.2603,3.3087,3.3172,3.3596,3.4616,3.46,3.4469,3.4125,3.4024,3.2988,3.1452,3.22,3.2531,3.2319,3.3205,3.3726,3.3374,3.3291,3.2858,3.2068,3.2036,3.1819,3.1371,3.0963,3.0677,3.0683,2.987,2.9394,2.9352,2.929,2.927,2.9228,2.881,2.8541,2.8427,2.7824,2.7513,2.7769,2.7596,2.7351,2.742,2.742,2.742,2.7351,2.7434,2.7413,2.7361,2.734,2.732,2.732,2.732,2.732,2.732,2.732,2.732,2.732,2.732,2.7351,2.7327,2.7659,2.7855,2.8063,2.873,2.9274,2.9325,2.9668,2.9922,2.9953,2.9938,2.9964,2.9973,2.9698,2.9653,2.9615,2.9519,2.9703,2.9913,3.0193,3.0638,3.0841,3.0525,3.028,3.0177,3.0024,2.9838,2.9469,2.9195,2.8978,2.8836,2.9185,2.925,3.2064,3.0889,3.0889,3.0881,3.0881,3.0881,3.0889,3.0853,3.0337,3.0365,3.0747,3.0302,3.0088,3.0124,3.0641,3.0881,3.0987,3.1851,3.2184,3.2061,3.2044,3.2458,3.3098,3.2299,3.2377,3.3123,3.3216,3.3351,3.3453,3.3339,3.3002,3.2679,3.2646,3.2055,3.1322,3.1539,3.1708,3.1599,3.1832,3.1757,3.1729,3.2203,3.2167,3.1639,3.2136,3.2233,3.1798,3.1602,3.1271,3.0719,3.0383,3.0056,2.9766,2.9456,2.9141,2.8887,2.87,2.8593,2.8551,2.8307,2.8183,2.8328,2.8224,2.81,2.8131,2.8131,2.8145,2.8135,2.8121,2.8028,2.7686,2.7462,2.732,2.732,2.732,2.732,2.732,2.732,2.732,2.732,2.732,2.7379,2.7624,2.7807,2.8014,2.8334,2.8907,2.9259,2.9384,2.9704,2.9994,2.9994,2.9994,2.9995,3.0016,2.9916,2.9785,2.9634,2.9608,2.9899,3.0136,3.0353,3.0751,3.0788,3.0408,3.0235,3.0198,3.0076,2.9807,2.9705,2.941,2.9075,2.8869,2.9217,2.9206,3.0416,2.9385,2.9298,2.9298,2.9298,2.9298,2.9298,2.9298,2.9298,2.9298,2.9298,2.9298,2.9298,2.9298,2.9298,2.9369,2.9513,3.0431,3.0783,3.0783,3.0783,3.1332,3.1974,3.1388,3.1439,3.2306,3.2456,3.242,3.2498,3.2239,3.1908,3.1575,3.144,3.0932,3.0333,3.0458,3.0678,3.0647,3.0751,3.0792,3.073,3.122,3.1255,3.0878,3.1309,3.1864,3.2169,3.2098,3.1757,3.1184,3.088,3.0481,3.0015,2.9704,2.9394,2.9094,2.8903,2.8882,2.8955,2.8768,2.8644,2.8789,2.869,2.8593,2.8593,2.8593,2.8593,2.8593,2.8582,2.8452,2.8158,2.7872,2.7607,2.7403,2.732,2.732,2.732,2.732,2.732,2.734,2.7441,2.7624,2.7893,2.8179,2.8479,2.8814,2.9239,2.9508,2.958,2.9766,2.9994,2.9994,2.9994,2.9994,3.001,2.9943,2.9912,2.9781,2.9722,3.0003,3.02,3.0452,3.0588,3.0614,3.0543,3.0395,3.0242,3.0115,3.0035,2.9946,2.9683,2.9305,2.9228,2.9239,2.9356,2.9306,2.9226,2.9298,2.9254,2.9254,2.929,2.9298,2.9298,2.9298,2.9298,2.9298,2.9298,2.9298,2.9298,2.9298,2.9472,2.9631,2.9597,2.9589,2.9601,2.9533,2.9569,2.9753,3.0006,3.0077,3.0236,2.9989,3.0503,3.1419,3.1387,3.1208,3.0917,3.0575,2.9656,2.7845,2.8868,2.9299,2.9452,3.0269,3.0742,3.0637,3.0528,3.0235,2.9572,2.9635,3.0617,3.2404,3.2115,3.1904,3.185,3.1164,3.0491,3.0077,2.9942,2.9953,2.9839,2.9539,2.9549,2.9777,2.9166,2.8959,2.9151,2.8918,2.8748,2.8789,2.8748,2.8737,2.8758,2.8763,2.8669,2.8649,2.8566,2.8239,2.7482,2.7368,2.7392,2.733,2.732,2.733,2.7379,2.7648,2.7893,2.8107,2.8613,2.9135,2.9332,2.9642,2.9901,2.988,2.9953,2.9984,2.9994,2.9994,2.9994,2.9994,2.9994,2.9984,2.9979,2.9932,3.0042,3.0063,3.0219,3.0297,3.0339,3.0322,3.0197,3.0261,3.0149,2.995,2.9832,2.9617,2.9598,2.9587,2.9628,2.9881,2.8462,2.8498,2.8779,2.8879,2.8923,2.9182,2.9298,2.9298,2.9298,2.9298,2.9298,2.9298,2.9298,2.9298,2.9298,2.9361,2.9449,2.9353,2.9544,2.9886,2.975,2.9722,2.9957,3.0055,3.0127,3.0116,2.9889,2.9985,3.0223,3.0147,2.9838,2.9512,2.9424,2.8773,2.7798,2.8045,2.8118,2.794,2.8238,2.8394,2.8351,2.9247,2.9398,2.9033,2.9708,3.0368,3.0458,3.0918,3.1435,3.1914,3.1485,3.0849,3.018,2.9994,2.9994,2.9984,2.987,2.9808,2.9932,2.9746,2.958,2.9725,2.9622,2.958,2.957,2.9539,2.9528,2.9539,2.9559,2.9466,2.9151,2.9083,2.869,2.781,2.7717,2.7627,2.7434,2.7361,2.7431,2.7665,2.7817,2.8148,2.8686,2.9249,2.9435,2.9704,2.9901,2.9994,2.9994,2.9994,2.9994,2.9994,2.9994,2.9994,2.9994,3.002,3.002,3.0047,3.0047,2.9994,2.9994,2.9994,3.0073,3.0109,3.0094,3.0138,3.023,3.0191,3.0045,2.9975,2.9962,2.9937,2.9932,2.9981,3.0043,2.8093,2.8137,2.8382,2.8491,2.8519,2.8751,2.8866,2.8866,2.9038,2.9074,2.911,2.9262,2.9298,2.9298,2.9298,2.9377,2.9465,2.9369,2.9663,3.0148,2.9814,2.9758,2.9981,3.0219,3.0315,3.0283,3.0071,2.987,2.9595,2.9528,2.9314,2.9055,2.9,2.865,2.7929,2.7746,2.7524,2.7256,2.7234,2.72,2.7367,2.8081,2.831,2.8058,2.8723,2.8969,2.8736,2.9269,3.0206,3.1249,3.1435,3.1019,3.0325,3.0118,2.9994,2.9994,2.9994,2.9994,2.9994,2.9973,2.9994,2.9994,2.9994,2.9984,2.9994,2.9994,2.9994,2.9994,2.9973,2.987,2.9622,2.9559,2.9208,2.85,2.8276,2.8079,2.7835,2.7783,2.7862,2.8138,2.8349,2.8721,2.9114,2.9508,2.9653,2.9942,2.9994,2.9994,2.9994,2.9994,2.9994,2.9994,2.9994,2.9994,2.9994,3.002,3.0062,3.0062,3.0088,3.002,2.9994,2.9994,3.0047,3.0125,3.0125,3.0271,3.036,3.0409,3.0335,3.0316,3.0187,3.0038,2.9879,2.9748,2.9877,2.8093,2.8093,2.813,2.8173,2.8202,2.8282,2.8354,2.8318,2.8635,2.8807,2.8887,2.9146,2.9298,2.9298,2.9298,2.9441,2.9671,2.9441,2.9584,2.9886,2.9647,2.9425,2.9639,3.0092,3.0307,3.0269,3.0251,2.9897,2.948,2.96,2.9631,2.9282,2.9218,2.8948,2.8329,2.7939,2.7588,2.7335,2.7232,2.72,2.72,2.7267,2.7198,2.6911,2.701,2.7229,2.7534,2.7789,2.8654,3.0393,3.08,3.0651,3.0417,3.0083,2.9701,2.9827,2.9946,3.0039,3.0035,3.0046,3.0046,3.0098,3.0046,2.9994,2.9994,2.9994,2.9994,2.9994,2.9994,2.9984,2.9953,2.9932,2.9715,2.9373,2.8825,2.8531,2.8562,2.8545,2.85,2.8669,2.9021,2.9332,2.9363,2.9694,2.9808,2.987,2.9839,2.9756,2.987,2.9849,2.9942,2.9973,2.9994,2.9994,2.9994,2.9994,3.0047,3.0036,3.0088,3.0115,3.0115,3.0115,3.0099,3.0167,3.0245,3.0375,3.0457,3.0523,3.0414,3.0241,3.0073,2.9896,2.9907,2.9932,3.0093,2.8093,2.813,2.8411,2.8563,2.8591,2.8859,2.8966,2.9002,2.9082,2.9074,2.9146,2.9254,2.9298,2.9298,2.9298,2.9353,2.9409,2.9361,2.9345,2.9504,2.9409,2.9615,2.9973,3.0166,3.0307,3.0275,3.0039,2.987,2.9679,2.9544,2.9417,2.9306,2.9314,2.9091,2.863,2.8265,2.7897,2.7564,2.732,2.7216,2.7216,2.7208,2.7161,2.7089,2.705,2.6983,2.6979,2.7315,2.786,2.873,2.8971,2.8823,2.8548,2.8368,2.8633,2.9301,2.9332,2.9738,3.0566,3.0398,3.0228,3.0429,3.0253,3.0005,2.9994,2.9994,2.9994,2.9994,2.9994,2.9994,2.9994,2.9994,2.9911,2.9756,2.913,2.8675,2.8655,2.8603,2.8706,2.9037,2.9249,2.9456,2.9663,2.9642,2.957,2.9487,2.9332,2.9141,2.9415,2.958,2.9632,2.9911,2.9984,2.9994,2.9994,2.9994,3.002,3.002,3.0115,3.0261,3.0287,3.038,3.0339,3.0323,3.0453,3.0557,3.059,3.0638,3.0414,3.0263,3.0304,3.0316,3.0452,3.0513,3.0683,2.8093,2.8093,2.8346,2.8454,2.8483,2.8707,2.8787,2.8823,2.8966,2.9038,2.9074,2.9226,2.9298,2.9298,2.9298,2.9298,2.9306,2.9457,2.952,2.9528,2.9536,2.9743,3.0036,3.0071,3.0079,3.0092,2.9881,2.9706,2.9623,2.952,2.9449,2.9353,2.9449,2.9258,2.8801,2.8575,2.8273,2.7905,2.7614,2.7389,2.7423,2.7272,2.72,2.72,2.7193,2.7034,2.6799,2.6715,2.7204,2.8121,2.8319,2.8051,2.7803,2.7583,2.788,2.8596,2.8834,2.9573,3.0336,3.0509,3.0756,3.0911,3.0688,3.0491,3.0346,3.0274,3.0253,3.0025,3.0005,2.9994,2.9994,2.9994,2.9994,2.9922,2.9508,2.9187,2.9197,2.9228,2.9311,2.9508,2.9611,2.9673,2.9963,2.9725,2.9518,2.9342,2.9187,2.9052,2.9032,2.9177,2.9394,2.9704,2.9953,2.9994,2.9994,2.9994,3.0125,3.0115,3.0256,3.0375,3.0343,3.0446,3.0405,3.039,3.0582,3.0733,3.0796,3.0794,3.072,3.0639,3.0706,3.0695,3.0757,3.0856,3.107,2.8209,2.8209,2.8209,2.8246,2.8282,2.8246,2.839,2.8354,2.8707,2.8851,2.8887,2.9146,2.9298,2.9298,2.9298,2.9298,2.9314,2.9623,2.9722,2.9722,2.969,2.9735,2.9706,2.973,2.9766,2.9758,2.9738,2.9592,2.9457,2.9563,2.9568,2.9409,2.9584,2.9417,2.9,2.8817,2.8591,2.8289,2.7913,2.7699,2.7611,2.7447,2.7304,2.72,2.72,2.7059,2.6669,2.6336,2.6657,2.8478,2.8147,2.7693,2.7663,2.7378,2.7406,2.7674,2.8511,2.9292,2.9836,3.0789,3.1388,3.1419,3.1398,3.1243,3.088,3.0787,3.0621,3.018,3.0067,3.0087,2.9994,2.9994,2.9994,2.9984,2.9932,2.9973,2.9994,2.9994,2.9994,2.9994,2.9984,2.9994,2.9984,2.9922,2.9756,2.9301,2.9073,2.8835,2.882,2.8996,2.928,2.958,2.9808,2.9994,2.9994,2.9994,3.0167,3.0261,3.0438,3.0479,3.0271,3.0291,3.0307,3.0371,3.0669,3.0909,3.1058,3.1026,3.0983,3.0905,3.0873,3.0807,3.0796,3.0968,3.1157,2.9046,2.9046,2.9046,2.9038,2.9038,2.9038,2.9002,2.9038,2.911,2.9146,2.9182,2.9254,2.9298,2.9298,2.9298,2.9298,2.9337,2.9647,2.9778,2.9746,2.9484,2.9425,2.9417,2.9441,2.9425,2.9433,2.9425,2.9369,2.9345,2.9377,2.9385,2.9345,2.9377,2.9345,2.9179,2.8944,2.8785,2.8599,2.8305,2.7968,2.7778,2.7635,2.7463,2.724,2.72,2.7026,2.678,2.6533,2.6592,2.6584,2.6278,2.6106,2.6018,2.5836,2.6166,2.7014,2.7907,2.901,3.0237,3.0884,3.1547,3.1697,3.1585,3.1367,3.1295,3.1232,3.1015,3.0673,3.0549,3.0331,3.0056,2.9994,2.9994,2.9994,2.9994,2.9994,2.9994,2.9994,2.9994,2.9994,2.9994,2.9994,2.9984,2.9694,2.9487,2.9213,2.8955,2.8634,2.8696,2.8872,2.9187,2.9518,2.9865,3.0088,3.0125,3.0151,3.0308,3.0427,3.0557,3.064,3.0431,3.0423,3.0514,3.0647,3.083,3.1054,3.127,3.1355,3.1331,3.1167,3.1061,3.1072,3.1113,3.1186,3.1378,2.9082,2.8787,2.9154,2.919,2.9074,2.9218,2.9298,2.9298,2.9298,2.9298,2.9298,2.9298,2.9298,2.9298,2.9298,2.9298,2.9377,2.9655,2.9785,2.9746,2.9615,2.9465,2.9298,2.9298,2.9298,2.9298,2.9306,2.9298,2.9298,2.9298,2.9314,2.9298,2.9298,2.9314,2.9298,2.9135,2.9079,2.8956,2.867,2.8384,2.8233,2.7842,2.7532,2.728,2.72,2.7097,2.6946,2.6772,2.6613,2.6351,2.5921,2.5508,2.531,2.5206,2.548,2.6078,2.7129,2.7905,2.8954,3.0305,3.1204,3.1442,3.1702,3.1853,3.1681,3.1516,3.1181,3.0797,3.0481,3.0232,3.0025,2.9994,2.9994,2.9994,2.9994,2.9994,2.9994,2.9994,2.9994,2.9994,2.9994,2.9994,2.988,2.9673,2.9487,2.9363,2.9249,2.8949,2.8731,2.8918,2.9177,2.9538,2.9969,3.0209,3.0235,3.0323,3.049,3.0583,3.0661,3.0718,3.0631,3.0734,3.0891,3.0968,3.1013,3.1249,3.1465,3.1545,3.1571,3.144,3.1353,3.1364,3.1462,3.1611,3.1814,2.8895,2.8318,2.9002,2.911,2.8879,2.9146,2.9298,2.9298,2.9298,2.9298,2.9298,2.9298,2.9298,2.9298,2.9298,2.9314,2.9449,2.9552,2.9666,2.977,2.9679,2.9504,2.9337,2.9298,2.9298,2.9298,2.9298,2.9298,2.9298,2.9298,2.9298,2.9298,2.9298,2.9298,2.9298,2.9298,2.925,2.9194,2.8988,2.8773,2.8614,2.8122,2.7669,2.7272,2.72,2.7193,2.7105,2.6938,2.6764,2.6772,2.6446,2.6136,2.5794,2.5382,2.5191,2.5291,2.6471,2.722,2.7854,2.9205,3.0451,3.0587,3.1333,3.1911,3.1658,3.1439,3.123,3.0934,3.0615,3.0222,3.0108,3.0025,3.0005,2.9994,2.9994,2.9994,2.9994,2.9994,2.9994,2.9994,2.9994,2.9994,2.9994,2.9891,2.9684,2.9497,2.9394,2.928,2.9083,2.9001,2.929,2.9539,2.9953,3.0224,3.0287,3.0505,3.0672,3.0817,3.0843,3.0899,3.0908,3.1099,3.1195,3.1146,3.1226,3.1418,3.1542,3.1567,3.1593,3.1593,3.1571,3.1505,3.1691,3.2001,3.2197,2.9218,2.9118,2.9262,2.9254,2.9218,2.9298,2.9298,2.9298,2.9298,2.9298,2.9298,2.9298,2.9298,2.9298,2.9298,2.9449,2.9576,2.9544,2.956,2.9687,2.9568,2.9345,2.9329,2.9298,2.9298,2.9298,2.9298,2.9298,2.9298,2.9298,2.9298,2.9298,2.9298,2.9298,2.9298,2.9298,2.9298,2.9298,2.9186,2.9043,2.8765,2.8384,2.7844,2.7351,2.7264,2.7232,2.72,2.7153,2.7113,2.7081,2.6804,2.6613,2.6342,2.5882,2.558,2.5711,2.636,2.6978,2.7364,2.8393,2.9153,2.9255,2.9639,3.0256,3.0684,3.0922,3.0857,3.1181,3.0842,3.0489,3.0553,3.0212,3.0015,2.9994,2.9994,2.9994,2.9994,2.9994,2.9994,2.9994,2.9994,2.9994,2.9994,2.9994,2.988,2.9704,2.958,2.9622,2.9611,2.9466,2.9477,2.9715,2.9969,3.0183,3.0339,3.0609,3.0853,3.1075,3.1152,3.1245,3.13,3.1439,3.1502,3.1353,3.1367,3.1513,3.1567,3.1593,3.1593,3.1593,3.1593,3.1604,3.1767,3.1953,3.2219,2.9046,2.8722,2.9118,2.9182,2.9038,2.9218,2.9298,2.9298,2.9298,2.9298,2.9298,2.9298,2.9298,2.9298,2.9298,2.9409,2.9449,2.9401,2.9401,2.9488,2.9377,2.9298,2.9298,2.9298,2.9298,2.9298,2.9298,2.9298,2.9298,2.9298,2.9298,2.9298,2.9298,2.9298,2.9298,2.9298,2.9298,2.9298,2.9282,2.9218,2.902,2.8678,2.8154,2.7669,2.7429,2.735,2.7216,2.72,2.72,2.7169,2.7042,2.6859,2.6636,2.6406,2.608,2.604,2.6327,2.6539,2.6728,2.7473,2.8064,2.8023,2.8424,2.9098,2.9534,2.9667,2.994,3.0313,3.0214,3.0012,3.0576,3.0247,3.0046,2.9994,2.9994,2.9994,2.9994,2.9994,2.9994,2.9994,2.9994,2.9994,2.9994,2.9994,2.9994,2.9901,2.9766,2.9839,2.9984,2.9922,2.9772,2.9964,3.0193,3.0495,3.0651,3.0868,3.1049,3.1255,3.1373,3.145,3.1501,3.1567,3.1578,3.1483,3.1542,3.1567,3.1593,3.1593,3.1593,3.1604,3.1636,3.168,3.1767,3.1931,3.2295,2.893,2.839,2.9038,2.911,2.8923,2.9146,2.9298,2.9298,2.9298,2.9298,2.9298,2.9298,2.9298,2.9298,2.9298,2.9306,2.9298,2.9298,2.9314,2.9322,2.9314,2.9298,2.9298,2.9298,2.9298,2.9298,2.9298,2.9298,2.9298,2.9298,2.9298,2.9298,2.9298,2.9298,2.9298,2.9298,2.9298,2.9298,2.9298,2.929,2.9139,2.8936,2.8487,2.7873,2.7794,2.7635,2.7391,2.7351,2.728,2.7232,2.7161,2.7073,2.6843,2.6779,2.6685,2.6422,2.6216,2.5929,2.6086,2.6302,2.6867,2.6814,2.7569,2.8095,2.8578,2.8623,2.8777,2.9098,2.9233,2.9435,3.0278,3.0228,3.0113,3.0139,3.0087,2.9994,2.9994,2.9994,2.9994,2.9994,2.9994,3.0015,3.0025,2.9994,2.9994,2.9994,2.987,2.988,3.002,3.0141,3.0099,3.0261,3.0516,3.0858,3.1064,3.1167,3.1322,3.145,3.1501,3.1527,3.1553,3.1567,3.1553,3.1553,3.1553,3.1593,3.1593,3.1593,3.1593,3.1626,3.1706,3.1837,3.2012,3.2339,3.2759,2.9254,2.9154,2.9262,2.9262,2.9226,2.929,2.9298,2.9298,2.9298,2.9298,2.9298,2.9298,2.9298,2.9298,2.9298,2.9298,2.9298,2.9298,2.9298,2.9298,2.9298,2.9298,2.9298,2.9298,2.9298,2.9298,2.9298,2.9298,2.9298,2.9298,2.9298,2.9298,2.9298,2.9298,2.9298,2.9298,2.9298,2.9298,2.9298,2.9163,2.8968,2.8864,2.8567,2.8289,2.8111,2.8011,2.7675,2.7588,2.7477,2.7264,2.7216,2.7185,2.7145,2.7145,2.7137,2.6819,2.635,2.581,2.5985,2.5909,2.5798,2.5814,2.5947,2.6244,2.7017,2.7982,2.8412,2.8901,2.9079,2.9637,3.0223,3.013,3.0228,3.0274,3.0243,3.0129,3.0077,3.0015,3.0015,3.0139,3.0191,3.0108,3.0077,3.0036,2.9994,2.9994,2.9994,2.9994,3.0047,3.0167,3.0443,3.0609,3.0646,3.0972,3.1219,3.1373,3.145,3.1567,3.1593,3.1593,3.1593,3.1593,3.1593,3.1578,3.1593,3.1593,3.1593,3.1593,3.1593,3.1691,3.1811,3.2066,3.2343,3.2726,3.3098,2.9298,2.9298,2.9298,2.9298,2.9298,2.9298,2.9298,2.9298,2.9298,2.9298,2.9298,2.9298,2.9298,2.9298,2.9298,2.9298,2.9298,2.9298,2.9298,2.9298,2.9298,2.9298,2.9298,2.9298,2.9298,2.9298,2.9298,2.9298,2.9298,2.9298,2.9298,2.9298,2.9298,2.9298,2.9298,2.9298,2.9298,2.9298,2.9282,2.9218,2.9107,2.9079,2.8893,2.8551,2.8535,2.8336,2.8032,2.7762,2.7651,2.7429,2.731,2.72,2.72,2.7177,2.7129,2.6851,2.6517,2.6231,2.612,2.5667,2.55,2.5318,2.5214,2.5449,2.5967,2.6507,2.7607,2.8833,2.8737,2.9413,3.0527,3.0656,3.0739,3.0729,3.0501,3.0522,3.0408,3.0108,3.0077,3.0232,3.0356,3.0253,3.0149,3.0067,3.0025,2.9994,3.002,3.0031,3.0099,3.0219,3.0583,3.0972,3.0983,3.1034,3.1219,3.1399,3.145,3.1527,3.1593,3.1593,3.1593,3.1593,3.1593,3.1604,3.1615,3.1604,3.1615,3.1669,3.1724,3.1844,3.1975,3.2295,3.2617,3.2846,3.3262,2.9091,2.9171,2.9266,2.9298,2.9298,2.9298,2.9298,2.9298,2.9298,2.9298,2.9298,2.9298,2.9298,2.9298,2.9298,2.9298,2.9298,2.9298,2.9298,2.9298,2.9298,2.9298,2.9298,2.9298,2.9298,2.9298,2.9298,2.9298,2.9298,2.9298,2.9298,2.9298,2.9298,2.9298,2.9298,2.9298,2.9298,2.9306,2.9417,2.9385,2.929,2.9274,2.9131,2.8972,2.8896,2.8726,2.8368,2.8008,2.7834,2.7619,2.7375,2.7208,2.72,2.7193,2.7113,2.6907,2.6684,2.6542,2.6319,2.5985,2.5699,2.5524,2.5254,2.5277,2.5165,2.5165,2.5556,2.7577,2.8282,2.9277,3.0554,3.0776,3.1247,3.1112,3.0915,3.0988,3.0967,3.0574,3.0315,3.0377,3.045,3.0377,3.0263,3.0129,3.0056,3.0005,3.002,3.0083,3.0229,3.0401,3.0765,3.1204,3.1255,3.123,3.1322,3.1465,3.1476,3.1545,3.1596,3.1636,3.1669,3.1626,3.1593,3.1604,3.1713,3.1833,3.199,3.1946,3.1913,3.2154,3.2383,3.2623,3.2901,3.3098,3.3371,2.8499,2.8864,2.9182,2.9258,2.9258,2.9298,2.9282,2.9202,2.9242,2.9242,2.9242,2.9298,2.9298,2.9298,2.9298,2.9298,2.9298,2.9298,2.9298,2.9298,2.9298,2.9298,2.9298,2.9298,2.9298,2.9298,2.9298,2.9298,2.9298,2.9298,2.9298,2.9298,2.9298,2.9298,2.9337,2.9393,2.9425,2.9465,2.9576,2.9508,2.9393,2.9322,2.9258,2.925,2.921,2.9091,2.8742,2.8384,2.8016,2.777,2.7471,2.7224,2.7216,2.72,2.7129,2.7057,2.6916,2.6772,2.6613,2.6335,2.6311,2.6279,2.5961,2.5398,2.5207,2.5127,2.541,2.6081,2.7517,2.8639,2.967,3.0307,3.1408,3.1629,3.1464,3.1288,3.1205,3.0953,3.0714,3.0642,3.0642,3.0667,3.0574,3.0481,3.0213,3.013,3.0266,3.0318,3.0568,3.0765,3.1049,3.1358,3.1476,3.1527,3.1527,3.1589,3.1596,3.1705,3.1796,3.18,3.1815,3.1746,3.1931,3.1953,3.2143,3.2241,3.2328,3.2339,3.2405,3.2595,3.2759,3.2824,3.3065,3.3327,3.3568,2.8284,2.8448,2.8591,2.8638,2.8619,2.8869,2.8845,2.8654,2.8638,2.8773,2.9031,2.9186,2.9298,2.9298,2.9298,2.9298,2.9298,2.9298,2.9298,2.9298,2.9298,2.9298,2.9298,2.9298,2.9298,2.9298,2.9298,2.9298,2.9298,2.9298,2.9298,2.9298,2.9298,2.9465,2.9536,2.9647,2.9735,2.9766,2.9679,2.9496,2.9623,2.9385,2.9298,2.9298,2.9298,2.9242,2.9059,2.875,2.84,2.8035,2.7651,2.7439,2.7232,2.7208,2.72,2.72,2.7026,2.6986,2.6875,2.6542,2.6303,2.6224,2.5906,2.5549,2.5374,2.5223,2.5641,2.6448,2.7565,2.8626,3.0045,3.1055,3.1891,3.2078,3.1977,3.1622,3.1505,3.1267,3.1298,3.1329,3.1236,3.1184,3.104,3.0895,3.0572,3.0282,3.0443,3.0605,3.0801,3.1066,3.1309,3.1489,3.1607,3.1756,3.1778,3.1756,3.1724,3.1898,3.2062,3.2154,3.223,3.254,3.2682,3.2639,3.2573,3.2671,3.2759,3.2803,3.2901,3.3005,3.2934,3.2792,3.3109,3.3557,3.3781,2.7971,2.8056,2.8151,2.8183,2.8257,2.8495,2.8464,2.8214,2.8207,2.8432,2.8825,2.9123,2.9298,2.9298,2.9298,2.9298,2.9298,2.9298,2.9298,2.9298,2.9298,2.9298,2.9298,2.9298,2.9298,2.9298,2.9298,2.9298,2.9298,2.9298,2.9298,2.9298,2.9314,2.9496,2.9746,3.0023,3.0203,3.0095,2.9949,2.9615,2.9798,2.9488,2.9298,2.9298,2.9298,2.9194,2.9067,2.8797,2.8471,2.8114,2.7754,2.7542,2.7335,2.72,2.72,2.72,2.72,2.72,2.7057,2.686,2.6479,2.6407,2.6199,2.5874,2.5604,2.5374,2.5665,2.612,2.7448,2.8763,2.9826,3.0152,3.1108,3.1258,3.1385,3.1218,3.1727,3.1757,3.1922,3.2036,3.1816,3.145,3.1415,3.1214,3.0734,3.0423,3.0381,3.0568,3.0827,3.1103,3.1436,3.1591,3.1709,3.1877,3.2033,3.2055,3.2132,3.2448,3.2628,3.2715,3.2857,3.3109,3.3141,3.2934,3.2923,3.3065,3.3065,3.2999,3.3185,3.341,3.3196,3.2901,3.3486,3.3923,3.4032,2.7427,2.7754,2.8032,2.8186,2.8119,2.8217,2.8167,2.813,2.8167,2.8408,2.8769,2.9091,2.9282,2.9274,2.9258,2.9234,2.9298,2.9298,2.9298,2.9298,2.9298,2.9298,2.9298,2.9298,2.9298,2.9298,2.9298,2.9298,2.9298,2.9377,2.9353,2.9361,2.9425,2.9592,2.9849,3.0497,3.0632,3.0378,3.0315,3.0,2.9825,2.9528,2.9322,2.9298,2.9298,2.9186,2.902,2.8888,2.8519,2.8122,2.7873,2.7645,2.7343,2.7254,2.7223,2.72,2.72,2.72,2.7177,2.7161,2.6954,2.6717,2.6509,2.6287,2.5802,2.5564,2.5469,2.5863,2.6631,2.7172,2.7718,2.8417,2.9748,3.0684,3.0836,3.1255,3.1791,3.2202,3.2326,3.2398,3.193,3.1522,3.1605,3.1493,3.0933,3.0569,3.0407,3.0553,3.098,3.1453,3.1913,3.2023,3.2175,3.2285,3.2448,3.2416,3.2562,3.2901,3.3141,3.324,3.3305,3.3447,3.3393,3.3229,3.324,3.3371,3.3262,3.313,3.3371,3.3519,3.3273,3.3196,3.3814,3.4157,3.4185,2.7249,2.7358,2.7502,2.7542,2.7582,2.777,2.7738,2.7661,2.8003,2.8297,2.8464,2.8789,2.9143,2.9171,2.9083,2.9075,2.9274,2.9298,2.9298,2.9298,2.9298,2.9298,2.9298,2.9298,2.9298,2.9298,2.9298,2.9298,2.9298,2.9441,2.9433,2.9425,2.9687,3.0021,3.0235,3.064,3.0847,3.0855,3.0465,2.9968,3.0016,2.9615,2.9298,2.9298,2.9298,2.921,2.9051,2.892,2.8607,2.8273,2.8114,2.781,2.7524,2.7445,2.7365,2.7264,2.72,2.72,2.72,2.7185,2.7161,2.6986,2.6795,2.6597,2.6327,2.5818,2.5596,2.5608,2.6307,2.6803,2.7276,2.8256,2.9443,3.0519,3.0974,3.1533,3.2038,3.2352,3.2574,3.2584,3.2323,3.21,3.2058,3.1935,3.1424,3.1285,3.118,3.1336,3.1709,3.2255,3.2728,3.2739,3.2813,3.2857,3.2901,3.2923,3.3071,3.3458,3.3666,3.3748,3.3814,3.3825,3.3912,3.389,3.3759,3.3655,3.3524,3.3437,3.3519,3.3551,3.3371,3.3404,3.3868,3.4098,3.4076,2.7129,2.7034,2.7153,2.72,2.724,2.7455,2.7407,2.7328,2.7762,2.8016,2.813,2.8432,2.8809,2.8976,2.8952,2.8956,2.9274,2.9298,2.9298,2.9298,2.9298,2.9298,2.9298,2.9298,2.9298,2.9298,2.9298,2.9298,2.9298,2.952,2.9488,2.9504,2.9957,3.0063,3.0307,3.0553,3.0847,3.072,3.0182,2.9889,2.9886,2.9639,2.9306,2.9298,2.9282,2.9226,2.9115,2.8964,2.8765,2.8527,2.8265,2.7953,2.7691,2.7484,2.7431,2.7256,2.72,2.72,2.72,2.72,2.7185,2.7161,2.6962,2.6811,2.6709,2.6279,2.6009,2.6054,2.6385,2.6429,2.6744,2.7743,2.8233,2.9274,2.9806,3.0305,3.1101,3.1342,3.1996,3.2084,3.2618,3.2498,3.2368,3.2279,3.1993,3.2024,3.2046,3.2236,3.2371,3.2815,3.3196,3.3218,3.3262,3.3294,3.336,3.342,3.365,3.3988,3.4098,3.4141,3.4201,3.4212,3.4386,3.4441,3.4065,3.3781,3.3748,3.3737,3.3661,3.3628,3.3573,3.3693,3.3977,3.4087,3.4141,2.6962,2.6764,2.7042,2.7169,2.7177,2.7216,2.7224,2.724,2.7556,2.7749,2.7738,2.8064,2.8416,2.8729,2.8761,2.8944,2.921,2.9258,2.9298,2.9298,2.9298,2.9298,2.9298,2.9298,2.9298,2.9298,2.9298,2.9298,2.9298,2.9369,2.9345,2.9528,3.0052,3.0063,3.0187,3.0394,3.0616,3.0418,3.0079,2.9849,2.9822,2.952,2.9329,2.9298,2.9282,2.9171,2.9075,2.9004,2.8638,2.8344,2.8056,2.7772,2.7494,2.7248,2.7224,2.72,2.72,2.72,2.72,2.72,2.72,2.72,2.7177,2.6986,2.6804,2.6549,2.6311,2.6057,2.6133,2.5864,2.5885,2.6039,2.6225,2.6913,2.7465,2.8256,2.9266,2.9982,3.0781,3.1421,3.2248,3.2439,3.233,3.2253,3.2625,3.2834,3.2841,3.276,3.2894,3.2985,3.3322,3.348,3.3546,3.365,3.3748,3.3857,3.3988,3.425,3.431,3.4376,3.4485,3.4496,3.4496,3.4386,3.407,3.389,3.3792,3.3693,3.3633,3.3655,3.3846,3.3988,3.425,3.431,3.4365,2.6422,2.6375,2.6676,2.686,2.69,2.7097,2.72,2.7248,2.7574,2.7691,2.7707,2.7794,2.8032,2.8368,2.8376,2.8607,2.8928,2.9182,2.9266,2.929,2.9282,2.929,2.9298,2.9298,2.9298,2.9298,2.9298,2.9298,2.9306,2.9306,2.9631,3.0044,3.0132,3.0016,3.0016,3.0243,3.0275,3.0211,2.9873,2.9778,2.9666,2.9457,2.9345,2.9298,2.9298,2.9186,2.9179,2.9031,2.8694,2.8551,2.8281,2.7971,2.7619,2.7532,2.7492,2.7224,2.72,2.72,2.72,2.72,2.72,2.72,2.72,2.7185,2.6954,2.67,2.6502,2.6375,2.608,2.5898,2.5763,2.5808,2.5932,2.6321,2.689,2.769,2.8744,2.9835,3.0577,3.1421,3.2219,3.2685,3.2525,3.2838,3.3223,3.3538,3.3616,3.3437,3.3405,3.3497,3.3497,3.3628,3.3803,3.3934,3.4141,3.4256,3.4332,3.4441,3.4485,3.4496,3.4496,3.4496,3.4496,3.4408,3.4223,3.3999,3.3759,3.3759,3.3901,3.4109,3.4288,3.4365,3.4452,3.4474,3.4496,2.5977,2.6001,2.6351,2.6494,2.6566,2.6876,2.6994,2.7065,2.7367,2.7492,2.7492,2.7518,2.7675,2.7961,2.8016,2.8183,2.8559,2.8885,2.9051,2.9075,2.921,2.9282,2.9298,2.929,2.9298,2.9298,2.929,2.9298,2.9314,2.9465,2.9758,2.979,3.0013,2.9909,2.9766,2.9774,2.9854,2.9814,2.9674,2.9603,2.9536,2.9417,2.9337,2.9298,2.9298,2.9298,2.9282,2.9063,2.8877,2.8622,2.8246,2.7987,2.7611,2.7461,2.7437,2.7216,2.72,2.72,2.72,2.72,2.72,2.72,2.72,2.7193,2.7113,2.6899,2.6843,2.6764,2.6374,2.6072,2.6001,2.5961,2.6144,2.6362,2.6942,2.7527,2.8676,2.9891,3.0772,3.1575,3.2244,3.2827,3.3166,3.3514,3.3652,3.3652,3.3785,3.3895,3.3895,3.4037,3.3901,3.3835,3.4032,3.4207,3.4386,3.4496,3.4485,3.4474,3.4485,3.4496,3.4496,3.4496,3.4496,3.4496,3.4474,3.4234,3.4032,3.4201,3.4365,3.4517,3.455,3.4517,3.4496,3.4485,3.4496,2.554,2.5565,2.5969,2.6168,2.6232,2.6534,2.6661,2.6709,2.701,2.7185,2.7216,2.7216,2.7407,2.7635,2.773,2.7897,2.8233,2.8551,2.8789,2.8785,2.8924,2.9091,2.9258,2.9266,2.9218,2.925,2.9234,2.9147,2.9314,2.9449,2.9488,2.9329,2.9659,2.9674,2.9457,2.9528,2.9584,2.948,2.9441,2.9385,2.9353,2.9306,2.9298,2.9298,2.9298,2.9298,2.9298,2.9171,2.8988,2.8527,2.8167,2.7979,2.7566,2.7256,2.724,2.7216,2.72,2.72,2.72,2.72,2.72,2.72,2.72,2.72,2.7129,2.6962,2.6899,2.6962,2.6636,2.6438,2.635,2.6744,2.7039,2.7291,2.7761,2.8268,2.9058,3.0329,3.1533,3.2347,3.3056,3.3522,3.3427,3.3725,3.4039,3.3865,3.3861,3.4141,3.436,3.4502,3.4316,3.4076,3.4043,3.4207,3.4408,3.4496,3.4496,3.4496,3.4496,3.4496,3.4496,3.4496,3.4496,3.4496,3.4496,3.4496,3.4419,3.4507,3.4561,3.467,3.467,3.4633,3.4583,3.4616,3.4496,2.4626,2.489,2.5486,2.5906,2.62,2.6263,2.6295,2.6335,2.6644,2.6938,2.7161,2.72,2.7248,2.7375,2.7564,2.773,2.7857,2.8167,2.8503,2.8551,2.8638,2.8853,2.9115,2.8988,2.9043,2.9174,2.9119,2.8944,2.9063,2.9226,2.9417,2.9353,2.9607,2.9592,2.9337,2.9457,2.9496,2.9314,2.9298,2.9298,2.9298,2.9298,2.9298,2.9298,2.9298,2.9298,2.9298,2.9266,2.9043,2.8753,2.8654,2.8265,2.7643,2.7334,2.7224,2.72,2.72,2.72,2.72,2.72,2.72,2.72,2.72,2.72,2.7121,2.6922,2.6875,2.6978,2.697,2.6844,2.6872,2.7416,2.7901,2.8212,2.8662,2.9128,2.9645,3.0992,3.2368,3.3105,3.3877,3.3948,3.3801,3.3927,3.427,3.4378,3.4325,3.4463,3.4698,3.4829,3.4622,3.436,3.3977,3.4076,3.4332,3.4496,3.4496,3.4496,3.4496,3.4496,3.4496,3.4496,3.4496,3.4496,3.4496,3.4583,3.4616,3.4539,3.4616,3.4818,3.4862,3.4807,3.4928,3.4993,3.4703,2.417,2.4634,2.4976,2.5375,2.5691,2.5882,2.5921,2.6025,2.6319,2.6582,2.682,2.7034,2.7193,2.7193,2.7415,2.751,2.754,2.7826,2.8016,2.817,2.8321,2.8495,2.8599,2.8638,2.8638,2.8718,2.8662,2.8591,2.8785,2.896,2.9135,2.929,2.9512,2.952,2.9322,2.9488,2.952,2.9306,2.9298,2.9298,2.9298,2.9298,2.9298,2.9298,2.9298,2.9298,2.9298,2.9274,2.9083,2.8753,2.8448,2.817,2.7651,2.7391,2.7232,2.72,2.72,2.72,2.72,2.72,2.72,2.72,2.72,2.72,2.72,2.7042,2.7034,2.7121,2.7113,2.6978,2.7011,2.7409,2.7936,2.8352,2.9439,3.0345,3.1438,3.2824,3.3561,3.3914,3.4268,3.4058,3.3986,3.4034,3.4389,3.4738,3.4736,3.4971,3.5146,3.5124,3.4917,3.4703,3.4403,3.4207,3.4386,3.4496,3.4496,3.4496,3.455,3.4507,3.4507,3.4496,3.4496,3.4572,3.4681,3.4834,3.4862,3.4862,3.4895,3.5081,3.5059,3.5004,3.5168,3.5364,3.5201,2.387,2.4417,2.454,2.4772,2.512,2.5406,2.5541,2.5596,2.5929,2.6112,2.6224,2.6771,2.7042,2.7129,2.72,2.72,2.7296,2.7542,2.7677,2.781,2.7929,2.817,2.8241,2.8217,2.8225,2.8257,2.8265,2.844,2.8673,2.8832,2.9023,2.9226,2.9298,2.9298,2.9298,2.9306,2.9298,2.9298,2.9298,2.9298,2.9298,2.9298,2.9298,2.9298,2.9298,2.9298,2.9298,2.9242,2.9091,2.8765,2.8321,2.7971,2.7685,2.7407,2.7272,2.72,2.72,2.72,2.72,2.72,2.72,2.72,2.72,2.72,2.72,2.72,2.7193,2.7185,2.7177,2.7177,2.721,2.7585,2.8112,2.8837,3.0185,3.1714,3.3133,3.4275,3.4461,3.4669,3.4564,3.4364,3.43,3.4338,3.4638,3.4989,3.5244,3.5506,3.5627,3.543,3.5194,3.5135,3.4982,3.4829,3.4659,3.467,3.4725,3.4714,3.4768,3.4627,3.455,3.4659,3.4725,3.4747,3.4895,3.5212,3.5321,3.5343,3.5386,3.5375,3.519,3.5179,3.5616,3.5769,3.5758,2.3195,2.3825,2.4068,2.4529,2.5057,2.5191,2.5184,2.527,2.5549,2.5707,2.5842,2.616,2.651,2.6779,2.7097,2.7169,2.7137,2.7312,2.7526,2.7699,2.759,2.782,2.7971,2.7884,2.7802,2.7849,2.7968,2.8241,2.8448,2.8697,2.8984,2.9266,2.9298,2.9298,2.9298,2.9298,2.9298,2.9298,2.9298,2.9298,2.9298,2.9298,2.9298,2.9298,2.9298,2.9298,2.9298,2.9298,2.9258,2.9004,2.8484,2.8024,2.7667,2.7415,2.7248,2.72,2.72,2.72,2.72,2.72,2.72,2.72,2.72,2.72,2.72,2.72,2.72,2.72,2.7193,2.7193,2.7351,2.8163,2.8801,2.9695,3.0815,3.277,3.4503,3.4734,3.4809,3.5058,3.5229,3.5005,3.4816,3.4978,3.5273,3.5541,3.5605,3.5896,3.6293,3.5954,3.5521,3.555,3.5528,3.5288,3.5091,3.5102,3.5135,3.5102,3.4987,3.4856,3.4823,3.4971,3.5015,3.4993,3.5364,3.5808,3.5863,3.5889,3.5765,3.5659,3.5354,3.5343,3.5834,3.6173,3.6162]},{"header":{"parameterUnit":"m.s-1","parameterCategory":1,"la1":31.0,"la2":29.5877,"lo1":-88.7671,"lo2":-86.6584,"dy":0.0162,"dx":0.0185,"nx":115,"ny":88,"refTime":"2023-03-02T18:00:00:Z","depth":0,"parameterNumber":3,"parameterNumberName":"V-component_of_WINDS"},"data":[0.0,0.0,0.0,0.0,0.0,0.0,0.0,0.0,0.0,0.0,0.0,0.0,0.0,0.0,0.0,0.0,0.0,0.0,0.0,0.0,0.0,0.0,0.0,0.0,0.0,0.0,0.0,0.0,0.0,0.0,0.0,0.0,0.0,0.0,0.0,0.0,0.0,0.0,0.0,0.0,0.0,0.0,0.0,0.0,0.0,0.0,0.0,0.0,0.0,0.0,0.0,0.0,0.0,0.0,0.0,0.0,0.0,0.0,0.0,0.0,0.0,0.0,0.0,0.0,0.0,0.0,0.0,0.0,0.0,0.0,0.0,0.0,0.0,0.0,0.0,0.0,0.0,0.0,0.0,0.0,0.0,0.0,0.0,0.0,0.0,0.0,0.0,0.0,0.0,0.0,0.0,0.0,0.0,0.0,0.0,0.0,0.0,0.0,0.0,0.0,0.0,0.0,0.0,0.0,0.0,0.0,0.0,0.0,0.0,0.0,0.0,0.0,0.0,0.0,0.0,0.0,0.0,0.0,0.0,0.0,0.0,0.0,0.0,0.0,0.0,0.0,0.0,0.0,0.0,0.0,0.0,0.0,0.0,0.0,0.0,0.0,0.0,0.0,0.0,0.0,0.0,0.0,0.0,0.0,0.0,0.0,0.0,0.0,0.0,0.0,0.0,0.0,0.0,0.0,0.0,0.0,0.0,0.0,0.0,0.0,0.0,0.0,0.0,0.0,0.0,0.0,0.0,0.0,0.0,0.0,0.0,0.0,0.0,0.0,0.0,0.0,0.0,0.0,0.0,0.0,0.0,0.0,0.0,0.0,0.0,0.0,0.0,0.0,0.0,0.0,0.0,0.0,0.0,0.0,0.0,0.0,0.0,0.0,0.0,0.0,0.0,0.0,0.0,0.0,0.0,0.0,0.0,0.0,0.0,0.0,0.0,0.0,0.0,0.0,0.0,0.0,0.0,0.0,0.0,0.0,0.0,0.0,0.0,0.0,0.0,0.0,0.0,0.0,0.0,0.0,0.0,0.0,0.0,0.0,0.0,0.0,0.0,0.0,0.0,0.0,0.0,0.0,0.0,0.0,0.0,0.0,0.0,0.0,0.0,0.0,0.0,0.0,0.0,0.0,0.0,0.0,0.0,0.0,0.0,0.0,0.0,0.0,0.0,0.0,0.0,0.0,0.0,0.0,0.0,0.0,0.0,0.0,0.0,0.0,0.0,0.0,0.0,0.0,0.0,0.0,0.0,0.0,0.0,0.0,0.0,0.0,0.0,0.0,0.0,0.0,0.0,0.0,0.0,0.0,0.0,0.0,0.0,0.0,0.0,0.0,0.0,0.0,0.0,0.0,0.0,0.0,0.0,0.0,0.0,0.0,0.0,0.0,0.0,0.0,0.0,0.0,0.0,0.0,0.0,0.0,0.0,0.0,0.0,0.0,0.0,0.0,0.0,0.0,0.0,0.0,0.0,0.0,0.0,0.0,0.0,0.0,0.0,0.0,0.0,0.0,0.0,0.0,0.0,0.0,0.0,0.0,0.0,0.0,0.0,0.0,0.0,0.0,0.0,0.0,0.0,0.0,0.0,0.0,0.0,0.0,0.0,0.0,0.0,0.0,0.0,0.0,0.0,0.0,0.0,0.0,0.0,0.0,0.0,0.0,0.0,0.0,0.0,0.0,0.0,0.0,0.0,0.0,0.0,0.0,0.0,0.0,0.0,0.0,0.0,0.0,0.0,0.0,0.0,0.0,0.0,0.0,0.0,0.0,0.0,0.0,0.0,0.0,0.0,0.0,0.0,0.0,0.0,0.0,0.0,0.0,0.0,0.0,0.0,0.0,0.0,0.0,0.0,0.0,0.0,0.0,0.0,0.0,0.0,0.0,0.0,0.0,0.0,0.0,0.0,0.0,0.0,0.0,0.0,0.0,0.0,0.0,0.0,0.0,0.0,0.0,0.0,0.0,0.0,0.0,0.0,0.0,0.0,0.0,0.0,0.0,0.0,0.0,0.0,0.0,0.0,0.0,0.0,0.0,0.0,0.0,0.0,0.0,0.0,0.0,0.0,0.0,0.0,0.0,0.0,0.0,0.0,0.0,0.0,0.0,0.0,0.0,0.0,0.0,0.0,0.0,0.0,0.0,0.0,0.0,0.0,0.0,0.0,0.0,0.0,0.0,0.0,0.0,0.0,0.0,0.0,0.0,0.0,0.0,0.0,0.0,0.0,0.0,0.0,0.0,0.0,0.0,0.0,0.0,0.0,0.0,0.0,0.0,0.0,0.0,0.0,0.0,0.0,0.0,0.0,0.0,0.0,0.0,0.0,0.0,0.0,0.0,0.0,0.0,0.0,0.0,0.0,0.0,0.0,0.0,0.0,0.0,0.0,0.0,0.0,0.0,0.0,0.0,0.0,0.0,0.0,0.0,0.0,0.0,0.0,0.0,0.0,0.0,0.0,0.0,0.0,0.0,0.0,0.0,0.0,0.0,0.0,0.0,0.0,0.0,0.0,0.0,0.0,0.0,0.0,0.0,0.0,0.0,0.0,0.0,0.0,0.0,0.0,0.0,0.0,0.0,0.0,0.0,0.0,0.0,0.0,0.0,0.0,0.0,0.0,0.0,0.0,0.0,0.0,0.0,0.0,0.0,0.0,0.0,0.0,0.0,0.0,0.0,0.0,0.0,0.0,0.0,0.0,0.0,0.0,0.0,0.0,0.0,0.0,0.0,0.0,0.0,0.0,0.0,0.0,0.0,0.0,0.0,0.0,0.0,0.0,0.0,0.0,0.0,0.0,0.0,0.0,0.0,0.0,0.0,0.0,0.0,0.0,0.0,0.0,0.0,0.0,0.0,0.0,0.0,0.0,0.0,0.0,0.0,0.0,0.0,0.0,0.0,0.0,0.0,0.0,0.0,0.0,0.0,0.0,0.0,0.0,0.0,0.0,0.0,0.0,0.0,0.0,0.0,0.0,0.0,0.0,0.0,0.0,0.0,0.0,0.0,0.0,0.0,0.0,0.0,0.0,0.0,0.0,0.0,0.0,0.0,0.0,0.0,0.0,0.0,0.0,0.0,0.0,0.0,0.0,0.0,0.0,0.0,0.0,0.0,0.0,0.0,0.0,0.0,0.0,0.0,0.0,0.0,0.0,0.0,0.0,0.0,0.0,0.0,0.0,0.0,0.0,0.0,0.0,0.0,0.0,0.0,0.0,0.0,0.0,0.0,0.0,0.0,0.0,0.0,0.0,0.0,0.0,0.0,0.0,0.0,0.0,0.0,0.0,0.0,0.0,0.0,0.0,0.0,0.0,0.0,0.0,0.0,0.0,0.0,0.0,0.0,0.0,0.0,0.0,0.0,0.0,0.0,0.0,0.0,0.0,0.0,0.0,0.0,0.0,0.0,0.0,0.0,0.0,0.0,0.0,0.0,0.0,0.0,0.0,0.0,0.0,0.0,0.0,0.0,0.0,0.0,0.0,0.0,0.0,0.0,0.0,0.0,0.0,0.0,0.0,0.0,0.0,0.0,0.0,0.0,0.0,0.0,0.0,0.0,0.0,0.0,0.0,0.0,0.0,0.0,0.0,0.0,0.0,0.0,0.0,0.0,0.0,0.0,0.0,0.0,0.0,0.0,0.0,0.0,0.0,0.0,0.0,0.0,0.0,0.0,0.0,0.0,0.0,0.0,0.0,0.0,0.0,0.0,0.0,0.0,0.0,0.0,0.0,0.0,0.0,0.0,0.0,0.0,0.0,0.0,0.0,0.0,0.0,0.0,0.0,0.0,0.0,0.0,0.0,0.0,0.0,0.0,0.0,0.0,0.0,0.0,0.0,0.0,0.0,0.0,0.0,0.0,0.0,0.0,0.0,0.0,0.0,0.0,0.0,0.0,0.0,0.0,0.0,0.0,0.0,0.0,0.0,0.0,0.0,0.0,0.0,0.0,0.0,0.0,0.0,0.0,0.0,0.0,0.0,0.0,0.0,0.0,0.0,0.0,0.0,0.0,0.0,0.0,0.0,0.0,0.0,0.0,0.0,0.0,0.0,0.0,0.0,0.0,0.0,0.0,0.0,0.0,0.0,0.0,0.0,0.0,0.0,0.0,0.0,0.0,0.0,0.0,0.0,0.0,0.0,0.0,0.0,0.0,0.0,0.0,0.0,0.0,0.0,0.0,0.0,0.0,0.0,0.0,0.0,0.0,0.0,0.0,0.0,0.0,0.0,0.0,0.0,0.0,0.0,0.0,0.0,0.0,0.0,0.0,0.0,0.0,0.0,0.0,0.0,0.0,2.1714,0.0,0.0,0.0,0.0,0.0,0.0,0.0,0.0,0.0,0.0,0.0,0.0,0.0,0.0,0.0,0.0,0.0,0.0,0.0,0.0,0.0,0.0,0.0,0.0,0.0,0.0,0.0,0.0,0.0,0.0,0.0,0.0,0.0,0.0,0.0,0.0,0.0,0.0,0.0,0.0,0.0,0.0,0.0,0.0,0.0,0.0,0.0,0.0,0.0,0.0,0.0,0.0,0.0,0.0,0.0,0.0,0.0,0.0,0.0,0.0,0.0,0.0,0.0,0.0,0.0,0.0,0.0,0.0,0.0,0.0,0.0,0.0,0.0,0.0,0.0,0.0,0.0,0.0,0.0,0.0,0.0,0.0,0.0,0.0,0.0,0.0,0.0,0.0,0.0,0.0,0.0,0.0,0.0,0.0,0.0,0.0,0.0,0.0,0.0,0.0,0.0,0.0,0.0,0.0,0.0,0.0,0.0,0.0,0.0,0.0,2.274,2.2417,2.2156,2.2037,2.2004,0.0,0.0,0.0,0.0,0.0,0.0,0.0,0.0,0.0,0.0,0.0,0.0,0.0,0.0,0.0,0.0,0.0,0.0,0.0,0.0,0.0,0.0,0.0,0.0,0.0,0.0,0.0,0.0,0.0,0.0,0.0,0.0,0.0,0.0,0.0,0.0,0.0,0.0,0.0,0.0,0.0,0.0,0.0,0.0,0.0,0.0,0.0,0.0,0.0,0.0,0.0,0.0,0.0,0.0,0.0,0.0,0.0,0.0,0.0,0.0,0.0,0.0,0.0,0.0,0.0,0.0,0.0,0.0,0.0,0.0,0.0,0.0,0.0,0.0,0.0,0.0,0.0,0.0,0.0,0.0,0.0,0.0,0.0,0.0,0.0,0.0,0.0,0.0,0.0,0.0,0.0,0.0,0.0,0.0,0.0,0.0,0.0,0.0,0.0,0.0,0.0,0.0,0.0,0.0,0.0,0.0,0.0,0.0,0.0,0.0,0.0,0.0,2.2736,2.2682,2.2254,0.0,0.0,0.0,0.0,0.0,0.0,0.0,0.0,0.0,0.0,0.0,0.0,0.0,0.0,0.0,0.0,0.0,0.0,0.0,0.0,0.0,0.0,0.0,0.0,0.0,0.0,0.0,0.0,0.0,0.0,0.0,0.0,0.0,0.0,0.0,0.0,0.0,0.0,0.0,0.0,0.0,0.0,0.0,0.0,0.0,0.0,0.0,0.0,0.0,0.0,0.0,0.0,0.0,0.0,0.0,0.0,0.0,0.0,0.0,0.0,0.0,0.0,0.0,0.0,0.0,0.0,0.0,0.0,0.0,0.0,0.0,0.0,0.0,0.0,0.0,0.0,0.0,0.0,0.0,0.0,0.0,0.0,0.0,0.0,0.0,0.0,0.0,0.0,0.0,0.0,0.0,0.0,0.0,0.0,0.0,0.0,0.0,0.0,0.0,0.0,0.0,0.0,0.0,0.0,0.0,0.0,0.0,0.0,0.0,0.0,2.3171,2.3699,2.3174,0.0,2.2827,0.0,0.0,0.0,0.0,0.0,0.0,0.0,0.0,0.0,0.0,0.0,0.0,0.0,0.0,0.0,0.0,0.0,0.0,0.0,0.0,0.0,0.0,0.0,0.0,0.0,0.0,0.0,0.0,0.0,0.0,0.0,0.0,0.0,0.0,0.0,0.0,0.0,0.0,0.0,0.0,0.0,0.0,0.0,0.0,0.0,0.0,0.0,0.0,0.0,0.0,0.0,0.0,0.0,0.0,0.0,0.0,0.0,0.0,0.0,0.0,0.0,0.0,0.0,0.0,0.0,0.0,0.0,0.0,0.0,0.0,0.0,0.0,0.0,0.0,0.0,0.0,0.0,0.0,0.0,0.0,0.0,0.0,0.0,0.0,0.0,0.0,0.0,0.0,0.0,0.0,0.0,0.0,0.0,0.0,0.0,0.0,0.0,0.0,0.0,0.0,0.0,0.0,0.0,0.0,0.0,0.0,0.0,0.0,0.0,0.0,2.303,2.3302,2.303,2.2888,0.0,0.0,0.0,0.0,0.0,0.0,0.0,0.0,0.0,0.0,0.0,0.0,0.0,0.0,0.0,0.0,0.0,0.0,0.0,0.0,0.0,0.0,0.0,0.0,0.0,0.0,0.0,0.0,0.0,0.0,0.0,0.0,0.0,0.0,0.0,0.0,0.0,0.0,0.0,0.0,0.0,0.0,0.0,0.0,0.0,0.0,0.0,0.0,0.0,0.0,0.0,0.0,0.0,0.0,0.0,0.0,0.0,0.0,0.0,0.0,0.0,0.0,0.0,0.0,0.0,0.0,0.0,0.0,0.0,0.0,0.0,0.0,0.0,0.0,0.0,0.0,0.0,0.0,0.0,0.0,0.0,0.0,0.0,0.0,0.0,0.0,0.0,0.0,0.0,0.0,0.0,0.0,0.0,0.0,0.0,0.0,0.0,0.0,0.0,0.0,0.0,0.0,0.0,0.0,0.0,0.0,0.0,0.0,0.0,0.0,2.2986,2.2888,2.2888,2.274,2.2725,2.2873,0.0,0.0,0.0,0.0,0.0,0.0,0.0,0.0,0.0,0.0,0.0,0.0,0.0,0.0,0.0,0.0,0.0,0.0,0.0,0.0,0.0,0.0,0.0,0.0,0.0,0.0,0.0,0.0,0.0,0.0,0.0,0.0,0.0,0.0,0.0,0.0,0.0,0.0,0.0,0.0,0.0,0.0,0.0,0.0,0.0,0.0,0.0,0.0,0.0,0.0,0.0,0.0,0.0,0.0,0.0,0.0,0.0,0.0,0.0,0.0,0.0,0.0,0.0,0.0,0.0,0.0,0.0,0.0,0.0,0.0,0.0,0.0,0.0,0.0,0.0,0.0,0.0,0.0,0.0,0.0,0.0,0.0,0.0,0.0,0.0,0.0,0.0,0.0,0.0,0.0,0.0,0.0,0.0,0.0,0.0,0.0,0.0,0.0,0.0,0.0,0.0,0.0,0.0,0.0,0.0,0.0,0.0,0.0,2.3786,2.3215,2.2888,2.2859,2.2341,2.2312,0.0,0.0,0.0,0.0,0.0,0.0,0.0,0.0,0.0,0.0,0.0,0.0,0.0,0.0,0.0,0.0,0.0,0.0,0.0,0.0,0.0,0.0,0.0,0.0,0.0,0.0,0.0,0.0,0.0,0.0,0.0,0.0,0.0,0.0,0.0,0.0,0.0,0.0,0.0,0.0,0.0,0.0,0.0,0.0,0.0,0.0,0.0,0.0,0.0,0.0,0.0,0.0,0.0,0.0,0.0,0.0,0.0,0.0,0.0,0.0,0.0,0.0,0.0,0.0,0.0,0.0,0.0,0.0,0.0,0.0,0.0,0.0,0.0,0.0,0.0,0.0,0.0,0.0,0.0,0.0,0.0,0.0,0.0,0.0,0.0,0.0,0.0,0.0,0.0,0.0,0.0,0.0,0.0,0.0,0.0,0.0,0.0,0.0,0.0,0.0,0.0,0.0,0.0,0.0,0.0,0.0,0.0,0.0,0.0,2.2672,2.2022,2.1892,2.2283,2.2106,2.2283,0.0,0.0,0.0,0.0,0.0,0.0,0.0,0.0,0.0,0.0,0.0,0.0,0.0,0.0,0.0,0.0,0.0,0.0,0.0,0.0,0.0,0.0,0.0,0.0,0.0,0.0,0.0,0.0,0.0,0.0,0.0,0.0,0.0,0.0,0.0,0.0,0.0,0.0,0.0,0.0,0.0,0.0,0.0,0.0,0.0,0.0,0.0,0.0,0.0,0.0,0.0,0.0,0.0,0.0,0.0,0.0,0.0,0.0,0.0,0.0,0.0,0.0,0.0,0.0,0.0,0.0,0.0,0.0,0.0,0.0,0.0,0.0,0.0,0.0,0.0,0.0,0.0,0.0,0.0,0.0,0.0,0.0,0.0,0.0,0.0,0.0,0.0,0.0,0.0,0.0,0.0,0.0,0.0,0.0,0.0,0.0,0.0,0.0,0.0,0.0,0.0,0.0,0.0,0.0,0.0,0.0,0.0,0.0,0.0,2.1989,0.0,2.1423,2.1641,2.1681,2.1859,0.0,0.0,0.0,0.0,0.0,0.0,0.0,0.0,0.0,0.0,0.0,0.0,0.0,0.0,0.0,0.0,0.0,0.0,0.0,0.0,0.0,0.0,0.0,0.0,0.0,0.0,0.0,0.0,0.0,0.0,0.0,0.0,0.0,0.0,0.0,0.0,0.0,0.0,0.0,0.0,0.0,0.0,0.0,0.0,0.0,0.0,0.0,0.0,0.0,0.0,0.0,0.0,0.0,0.0,0.0,0.0,0.0,0.0,0.0,0.0,0.0,0.0,0.0,0.0,0.0,0.0,0.0,0.0,0.0,0.0,0.0,0.0,0.0,0.0,0.0,0.0,0.0,0.0,0.0,0.0,0.0,0.0,0.0,0.0,0.0,0.0,0.0,0.0,0.0,0.0,0.0,0.0,0.0,0.0,0.0,0.0,0.0,0.0,0.0,0.0,0.0,0.0,0.0,0.0,0.0,0.0,0.0,0.0,2.2004,2.1975,2.1942,2.1656,2.1061,2.1075,2.1061,0.0,0.0,0.0,0.0,0.0,0.0,0.0,0.0,0.0,0.0,0.0,0.0,0.0,0.0,0.0,0.0,0.0,0.0,0.0,0.0,0.0,0.0,0.0,0.0,0.0,0.0,0.0,0.0,0.0,0.0,0.0,0.0,0.0,0.0,0.0,0.0,0.0,0.0,0.0,0.0,0.0,0.0,0.0,0.0,0.0,0.0,0.0,0.0,0.0,0.0,0.0,0.0,0.0,0.0,0.0,0.0,0.0,0.0,0.0,0.0,0.0,0.0,0.0,0.0,0.0,0.0,0.0,0.0,0.0,0.0,0.0,0.0,0.0,0.0,0.0,0.0,0.0,0.0,0.0,0.0,0.0,0.0,0.0,0.0,0.0,0.0,0.0,0.0,0.0,0.0,0.0,0.0,0.0,0.0,0.0,0.0,0.0,0.0,0.0,0.0,0.0,0.0,0.0,0.0,0.0,0.0,0.0,0.0,0.0,2.0741,2.109,2.1631,2.2272,2.1902,2.2294,0.0,0.0,0.0,0.0,0.0,0.0,0.0,0.0,0.0,0.0,0.0,0.0,0.0,0.0,0.0,0.0,0.0,0.0,0.0,0.0,0.0,0.0,0.0,0.0,0.0,0.0,0.0,0.0,0.0,0.0,0.0,0.0,0.0,0.0,0.0,0.0,0.0,0.0,0.0,0.0,0.0,0.0,0.0,0.0,0.0,0.0,0.0,0.0,0.0,0.0,0.0,0.0,0.0,0.0,0.0,0.0,0.0,0.0,0.0,0.0,0.0,0.0,0.0,0.0,0.0,0.0,0.0,0.0,0.0,0.0,0.0,0.0,0.0,0.0,0.0,0.0,0.0,0.0,0.0,0.0,0.0,0.0,0.0,0.0,0.0,0.0,0.0,0.0,0.0,0.0,0.0,0.0,0.0,0.0,0.0,0.0,0.0,0.0,0.0,0.0,0.0,0.0,0.0,0.0,0.0,0.0,0.0,0.0,0.0,2.1583,2.1888,2.2468,2.327,2.2675,2.2765,2.3693,0.0,0.0,0.0,0.0,0.0,0.0,0.0,0.0,0.0,0.0,0.0,0.0,0.0,0.0,0.0,0.0,0.0,0.0,0.0,0.0,0.0,0.0,0.0,0.0,0.0,0.0,0.0,0.0,0.0,0.0,0.0,0.0,0.0,0.0,0.0,0.0,0.0,0.0,0.0,0.0,0.0,0.0,0.0,0.0,0.0,0.0,0.0,0.0,0.0,0.0,0.0,0.0,0.0,0.0,0.0,0.0,0.0,0.0,0.0,0.0,0.0,0.0,0.0,0.0,0.0,0.0,0.0,0.0,0.0,0.0,0.0,0.0,0.0,0.0,0.0,0.0,0.0,0.0,0.0,0.0,0.0,0.0,0.0,0.0,0.0,0.0,0.0,0.0,0.0,0.0,0.0,0.0,0.0,0.0,0.0,0.0,0.0,0.0,0.0,0.0,0.0,0.0,0.0,0.0,0.0,0.0,0.0,0.0,2.4051,2.4164,2.4208,2.4138,2.3461,2.2783,0.0,0.0,0.0,0.0,0.0,0.0,0.0,0.0,0.0,0.0,0.0,0.0,0.0,0.0,0.0,0.0,0.0,0.0,0.0,0.0,0.0,0.0,0.0,0.0,0.0,0.0,0.0,0.0,0.0,0.0,0.0,0.0,0.0,0.0,0.0,0.0,0.0,0.0,0.0,0.0,0.0,0.0,0.0,0.0,0.0,0.0,0.0,0.0,0.0,0.0,0.0,0.0,0.0,0.0,0.0,0.0,0.0,0.0,0.0,0.0,0.0,0.0,0.0,0.0,0.0,0.0,0.0,0.0,0.0,0.0,0.0,0.0,0.0,0.0,0.0,0.0,0.0,0.0,0.0,0.0,0.0,0.0,0.0,0.0,0.0,0.0,0.0,0.0,0.0,0.0,0.0,0.0,0.0,0.0,0.0,0.0,0.0,0.0,0.0,0.0,0.0,0.0,0.0,0.0,0.0,0.0,0.0,0.0,0.0,2.6066,2.7375,2.7666,2.6737,2.5633,2.4977,0.0,0.0,0.0,0.0,0.0,0.0,0.0,0.0,0.0,0.0,0.0,0.0,0.0,0.0,0.0,0.0,0.0,0.0,0.0,0.0,0.0,0.0,0.0,0.0,0.0,0.0,0.0,0.0,0.0,0.0,0.0,0.0,0.0,0.0,0.0,0.0,0.0,0.0,0.0,0.0,0.0,0.0,0.0,0.0,0.0,0.0,0.0,0.0,0.0,0.0,0.0,0.0,0.0,0.0,0.0,0.0,0.0,0.0,0.0,0.0,0.0,0.0,0.0,0.0,0.0,0.0,0.0,0.0,0.0,0.0,0.0,0.0,0.0,0.0,0.0,0.0,0.0,0.0,0.0,0.0,0.0,0.0,0.0,0.0,0.0,0.0,0.0,0.0,0.0,0.0,0.0,0.0,0.0,0.0,0.0,0.0,0.0,0.0,0.0,0.0,0.0,0.0,0.0,0.0,0.0,0.0,0.0,0.0,2.7042,2.7998,3.0103,3.0771,2.974,2.8217,2.6895,0.0,0.0,0.0,0.0,0.0,0.0,0.0,0.0,0.0,0.0,0.0,0.0,0.0,0.0,0.0,0.0,0.0,0.0,0.0,0.0,0.0,0.0,0.0,0.0,0.0,0.0,0.0,0.0,0.0,0.0,0.0,0.0,0.0,0.0,0.0,0.0,0.0,0.0,0.0,0.0,0.0,0.0,0.0,0.0,0.0,0.0,0.0,0.0,0.0,0.0,0.0,0.0,0.0,0.0,0.0,0.0,0.0,0.0,0.0,0.0,0.0,0.0,0.0,0.0,0.0,0.0,0.0,0.0,0.0,0.0,0.0,0.0,0.0,0.0,0.0,0.0,0.0,0.0,0.0,0.0,0.0,0.0,0.0,0.0,0.0,0.0,0.0,0.0,0.0,0.0,0.0,0.0,0.0,0.0,0.0,0.0,0.0,0.0,0.0,0.0,0.0,0.0,0.0,0.0,0.0,0.0,0.0,0.0,2.8406,2.9697,3.2253,3.3282,3.2671,3.0668,2.8477,0.0,0.0,0.0,0.0,0.0,0.0,0.0,0.0,0.0,0.0,0.0,0.0,0.0,0.0,0.0,0.0,0.0,0.0,0.0,0.0,0.0,0.0,0.0,0.0,0.0,0.0,0.0,0.0,0.0,0.0,0.0,0.0,0.0,0.0,0.0,0.0,0.0,0.0,0.0,0.0,0.0,0.0,0.0,0.0,0.0,0.0,0.0,0.0,0.0,0.0,0.0,0.0,0.0,0.0,0.0,0.0,0.0,0.0,0.0,0.0,0.0,0.0,0.0,0.0,0.0,0.0,0.0,0.0,0.0,0.0,0.0,0.0,0.0,0.0,0.0,0.0,0.0,0.0,0.0,0.0,0.0,0.0,0.0,0.0,0.0,0.0,0.0,0.0,0.0,0.0,0.0,0.0,0.0,0.0,0.0,0.0,0.0,0.0,0.0,0.0,0.0,0.0,0.0,0.0,0.0,0.0,0.0,0.0,2.9101,3.0394,3.289,3.4153,3.3976,3.1147,2.887,0.0,0.0,0.0,0.0,0.0,0.0,0.0,0.0,0.0,0.0,0.0,0.0,0.0,0.0,0.0,0.0,0.0,0.0,0.0,0.0,0.0,0.0,0.0,0.0,0.0,0.0,0.0,0.0,0.0,0.0,0.0,0.0,0.0,0.0,0.0,0.0,0.0,0.0,0.0,0.0,0.0,0.0,0.0,0.0,0.0,0.0,0.0,0.0,2.2292,0.0,0.0,0.0,0.0,0.0,0.0,0.0,0.0,0.0,0.0,0.0,0.0,0.0,0.0,0.0,0.0,0.0,0.0,0.0,0.0,0.0,0.0,0.0,0.0,0.0,0.0,0.0,0.0,0.0,0.0,0.0,0.0,0.0,0.0,0.0,0.0,0.0,0.0,0.0,0.0,0.0,0.0,0.0,0.0,0.0,0.0,0.0,0.0,0.0,0.0,0.0,0.0,0.0,0.0,0.0,0.0,0.0,0.0,0.0,2.99,3.1467,3.3398,3.4397,3.4295,3.1858,2.9914,0.0,0.0,0.0,0.0,0.0,0.0,0.0,0.0,0.0,0.0,0.0,0.0,0.0,0.0,0.0,0.0,0.0,0.0,0.0,0.0,0.0,0.0,0.0,0.0,0.0,0.0,0.0,0.0,0.0,0.0,0.0,0.0,0.0,0.0,0.0,0.0,0.0,0.0,0.0,0.0,0.0,0.0,0.0,0.0,0.0,0.0,0.0,0.0,0.0,0.0,0.0,0.0,0.0,0.0,0.0,0.0,0.0,0.0,0.0,0.0,0.0,0.0,0.0,0.0,0.0,0.0,0.0,0.0,0.0,0.0,0.0,0.0,0.0,0.0,0.0,0.0,0.0,0.0,0.0,0.0,0.0,0.0,0.0,0.0,0.0,0.0,0.0,0.0,0.0,0.0,0.0,0.0,0.0,0.0,0.0,0.0,0.0,0.0,0.0,0.0,0.0,0.0,0.0,0.0,0.0,0.0,0.0,2.8739,3.0582,3.2598,3.3802,3.4397,3.4353,3.2627,3.1046,2.9798,0.0,0.0,0.0,0.0,0.0,0.0,0.0,0.0,0.0,0.0,0.0,0.0,0.0,0.0,0.0,0.0,0.0,0.0,0.0,0.0,0.0,0.0,0.0,0.0,0.0,0.0,0.0,0.0,0.0,0.0,0.0,0.0,0.0,0.0,0.0,0.0,0.0,0.0,2.2346,2.3444,0.0,0.0,0.0,0.0,0.0,0.0,0.0,0.0,2.2595,0.0,0.0,0.0,0.0,0.0,0.0,0.0,0.0,0.0,0.0,0.0,0.0,0.0,0.0,0.0,0.0,0.0,0.0,0.0,0.0,0.0,0.0,0.0,0.0,0.0,0.0,0.0,0.0,0.0,0.0,0.0,0.0,0.0,0.0,0.0,0.0,0.0,0.0,0.0,0.0,0.0,0.0,0.0,0.0,0.0,0.0,0.0,0.0,0.0,0.0,0.0,0.0,0.0,0.0,0.0,0.0,2.8346,2.9189,3.0799,3.3255,3.4022,3.4397,3.4353,3.3062,3.1728,3.0452,0.0,0.0,0.0,0.0,0.0,0.0,0.0,0.0,0.0,0.0,0.0,0.0,0.0,0.0,0.0,0.0,0.0,0.0,0.0,0.0,0.0,0.0,0.0,0.0,0.0,0.0,0.0,0.0,0.0,0.0,0.0,0.0,0.0,0.0,0.0,0.0,0.0,0.0,0.0,2.4127,2.4891,0.0,0.0,0.0,0.0,0.0,0.0,0.0,0.0,2.4157,0.0,0.0,0.0,0.0,0.0,0.0,0.0,0.0,0.0,0.0,0.0,0.0,0.0,0.0,0.0,0.0,0.0,0.0,0.0,0.0,0.0,0.0,0.0,0.0,0.0,0.0,0.0,0.0,0.0,0.0,0.0,0.0,0.0,0.0,0.0,0.0,0.0,0.0,0.0,0.0,0.0,0.0,0.0,0.0,0.0,0.0,0.0,0.0,0.0,0.0,0.0,0.0,0.0,0.0,0.0,2.9058,3.0103,3.17,3.3862,3.4254,3.4397,3.4353,3.283,3.1555,0.0,0.0,0.0,0.0,0.0,0.0,0.0,0.0,0.0,0.0,0.0,0.0,0.0,0.0,0.0,0.0,0.0,0.0,0.0,0.0,0.0,0.0,0.0,0.0,0.0,0.0,0.0,0.0,0.0,0.0,0.0,0.0,0.0,0.0,0.0,0.0,0.0,0.0,0.0,0.0,2.4814,2.5631,2.5658,0.0,0.0,0.0,0.0,0.0,0.0,2.4711,2.4837,0.0,0.0,0.0,0.0,0.0,0.0,0.0,0.0,0.0,0.0,0.0,0.0,0.0,0.0,0.0,0.0,0.0,0.0,0.0,0.0,0.0,0.0,0.0,0.0,0.0,0.0,0.0,0.0,0.0,0.0,0.0,0.0,0.0,0.0,0.0,0.0,0.0,0.0,0.0,0.0,0.0,0.0,0.0,0.0,0.0,0.0,0.0,0.0,0.0,0.0,0.0,0.0,0.0,0.0,0.0,2.9537,3.0857,3.2497,3.4486,3.4472,3.4472,3.461,3.273,3.1381,0.0,0.0,0.0,0.0,0.0,0.0,0.0,0.0,0.0,0.0,0.0,0.0,0.0,0.0,0.0,0.0,0.0,0.0,0.0,0.0,0.0,0.0,0.0,0.0,0.0,0.0,0.0,0.0,0.0,0.0,0.0,0.0,0.0,0.0,0.0,0.0,0.0,0.0,0.0,0.0,0.0,2.6505,2.6323,2.7272,0.0,0.0,0.0,0.0,2.5262,2.6079,0.0,0.0,0.0,0.0,0.0,0.0,0.0,0.0,0.0,0.0,0.0,0.0,0.0,0.0,0.0,0.0,0.0,0.0,0.0,0.0,0.0,0.0,0.0,0.0,0.0,0.0,0.0,0.0,0.0,0.0,0.0,0.0,0.0,0.0,0.0,0.0,0.0,0.0,0.0,0.0,0.0,0.0,0.0,0.0,0.0,0.0,0.0,0.0,0.0,0.0,0.0,0.0,0.0,0.0,0.0,0.0,2.9566,3.0857,3.2714,3.5099,3.4704,3.4729,3.5409,3.3463,3.1878,0.0,0.0,0.0,0.0,0.0,0.0,0.0,0.0,0.0,0.0,0.0,0.0,0.0,0.0,0.0,0.0,0.0,0.0,0.0,0.0,0.0,0.0,0.0,0.0,0.0,0.0,0.0,0.0,0.0,0.0,0.0,0.0,0.0,0.0,0.0,0.0,0.0,0.0,0.0,0.0,0.0,2.7598,2.7059,2.757,2.7954,0.0,0.0,2.8756,2.8771,3.0741,0.0,0.0,0.0,0.0,0.0,0.0,0.0,0.0,0.0,0.0,0.0,0.0,0.0,0.0,0.0,0.0,0.0,0.0,0.0,0.0,0.0,0.0,0.0,0.0,0.0,0.0,0.0,0.0,0.0,0.0,0.0,0.0,0.0,0.0,0.0,0.0,0.0,0.0,0.0,0.0,0.0,0.0,0.0,0.0,0.0,0.0,0.0,0.0,0.0,0.0,0.0,0.0,0.0,0.0,0.0,2.8439,3.0673,3.173,3.37,3.6549,3.5759,3.5746,3.6756,3.4485,3.2971,0.0,0.0,0.0,0.0,0.0,0.0,0.0,0.0,0.0,0.0,0.0,0.0,0.0,0.0,0.0,0.0,0.0,0.0,0.0,0.0,0.0,0.0,0.0,0.0,0.0,0.0,0.0,0.0,0.0,0.0,0.0,0.0,0.0,0.0,0.0,0.0,0.0,0.0,0.0,0.0,0.0,0.0,2.7812,2.8866,0.0,0.0,0.0,3.0302,3.0334,0.0,0.0,0.0,0.0,0.0,0.0,0.0,0.0,0.0,0.0,0.0,0.0,0.0,0.0,0.0,0.0,0.0,0.0,0.0,0.0,0.0,0.0,0.0,0.0,0.0,0.0,0.0,0.0,0.0,0.0,0.0,0.0,0.0,0.0,0.0,0.0,0.0,0.0,0.0,0.0,0.0,0.0,0.0,0.0,0.0,0.0,0.0,0.0,0.0,0.0,0.0,0.0,0.0,0.0,0.0,0.0,0.0,3.1849,3.2853,3.4857,3.7856,3.6953,3.6953,3.795,3.544,0.0,0.0,0.0,0.0,0.0,0.0,0.0,0.0,0.0,0.0,0.0,0.0,0.0,0.0,0.0,0.0,0.0,0.0,0.0,0.0,0.0,0.0,0.0,0.0,0.0,0.0,0.0,2.2394,0.0,0.0,0.0,0.0,0.0,0.0,0.0,0.0,0.0,0.0,0.0,0.0,0.0,0.0,2.95,2.9042,3.036,3.1226,0.0,0.0,3.1841,3.1715,3.2879,3.3128,0.0,0.0,0.0,0.0,0.0,0.0,0.0,0.0,0.0,0.0,0.0,0.0,0.0,0.0,0.0,0.0,0.0,0.0,0.0,0.0,0.0,0.0,0.0,0.0,0.0,0.0,0.0,0.0,0.0,0.0,0.0,0.0,0.0,0.0,0.0,0.0,0.0,0.0,0.0,0.0,0.0,0.0,0.0,0.0,0.0,0.0,0.0,0.0,0.0,0.0,0.0,0.0,0.0,0.0,0.0,3.2671,3.4122,3.6121,3.8683,3.8138,3.8154,3.8921,3.6231,3.4538,0.0,0.0,0.0,0.0,0.0,0.0,0.0,0.0,0.0,0.0,0.0,0.0,0.0,0.0,0.0,0.0,0.0,0.0,0.0,0.0,0.0,0.0,0.0,0.0,0.0,0.0,0.0,0.0,0.0,0.0,0.0,0.0,0.0,0.0,0.0,0.0,0.0,0.0,0.0,0.0,0.0,3.1007,3.1075,3.174,3.2654,0.0,0.0,3.384,3.3411,3.5833,3.6128,3.1251,0.0,0.0,0.0,0.0,0.0,0.0,0.0,0.0,0.0,0.0,0.0,0.0,0.0,0.0,0.0,0.0,0.0,0.0,0.0,0.0,0.0,0.0,0.0,0.0,0.0,0.0,0.0,0.0,0.0,0.0,0.0,0.0,0.0,0.0,0.0,0.0,0.0,0.0,0.0,0.0,0.0,0.0,0.0,0.0,0.0,0.0,0.0,0.0,0.0,0.0,0.0,0.0,0.0,3.1422,3.3869,3.507,3.6952,3.9495,3.911,3.9123,3.9693,3.745,3.6086,0.0,0.0,0.0,0.0,0.0,0.0,0.0,0.0,0.0,0.0,0.0,0.0,0.0,0.0,0.0,0.0,0.0,0.0,0.0,0.0,0.0,0.0,0.0,0.0,0.0,0.0,0.0,0.0,2.3692,2.3847,2.4447,0.0,0.0,0.0,0.0,0.0,0.0,0.0,0.0,0.0,0.0,3.1979,3.2416,3.304,0.0,0.0,3.4958,3.5342,3.5238,3.5927,3.5662,3.3243,3.2327,0.0,0.0,0.0,0.0,0.0,0.0,0.0,0.0,0.0,0.0,0.0,0.0,0.0,0.0,0.0,0.0,0.0,0.0,0.0,0.0,0.0,0.0,0.0,0.0,0.0,0.0,0.0,0.0,0.0,0.0,0.0,0.0,0.0,0.0,0.0,0.0,0.0,0.0,0.0,0.0,0.0,0.0,0.0,0.0,0.0,0.0,0.0,0.0,0.0,0.0,0.0,0.0,3.283,3.5337,3.6515,3.8309,4.0765,4.0295,4.0167,4.0433,3.8494,3.7283,0.0,0.0,0.0,0.0,0.0,0.0,0.0,0.0,0.0,0.0,0.0,0.0,0.0,0.0,0.0,0.0,0.0,0.0,0.0,0.0,0.0,0.0,0.0,0.0,0.0,0.0,0.0,0.0,2.4742,2.4939,2.5369,0.0,0.0,0.0,0.0,0.0,0.0,0.0,0.0,0.0,0.0,3.2607,3.3433,3.3972,3.4498,3.5166,3.56,3.5973,3.6254,3.5796,3.5058,3.3991,0.0,0.0,0.0,0.0,0.0,0.0,0.0,0.0,0.0,0.0,0.0,0.0,0.0,0.0,0.0,0.0,0.0,0.0,0.0,0.0,0.0,0.0,0.0,0.0,0.0,0.0,0.0,0.0,0.0,0.0,0.0,0.0,0.0,0.0,0.0,0.0,0.0,0.0,0.0,0.0,0.0,0.0,0.0,0.0,0.0,0.0,0.0,0.0,0.0,0.0,0.0,0.0,0.0,3.4505,3.7007,3.857,4.0375,4.2309,4.1728,4.1333,4.1314,3.9292,3.7834,3.7106,0.0,0.0,0.0,0.0,0.0,0.0,0.0,0.0,0.0,0.0,0.0,0.0,0.0,0.0,0.0,0.0,0.0,0.0,0.0,0.0,0.0,0.0,0.0,0.0,0.0,0.0,2.4795,2.5129,2.544,0.0,0.0,0.0,0.0,0.0,0.0,0.0,0.0,0.0,0.0,3.1495,3.2831,3.4163,3.4397,3.5047,3.6896,3.6188,3.5622,3.6199,3.5781,3.4753,0.0,0.0,0.0,0.0,0.0,0.0,0.0,0.0,0.0,0.0,0.0,0.0,0.0,0.0,0.0,0.0,0.0,0.0,0.0,0.0,0.0,0.0,0.0,0.0,0.0,0.0,0.0,3.0405,3.0384,0.0,0.0,0.0,0.0,0.0,0.0,0.0,0.0,0.0,0.0,0.0,3.4793,3.522,0.0,0.0,0.0,0.0,0.0,0.0,0.0,0.0,0.0,0.0,0.0,0.0,3.5788,3.8349,3.952,4.0644,4.1744,4.2007,4.1891,4.1394,3.9785,3.8112,3.6439,0.0,0.0,0.0,0.0,0.0,0.0,0.0,0.0,0.0,0.0,0.0,0.0,0.0,0.0,0.0,0.0,0.0,0.0,0.0,0.0,0.0,0.0,0.0,0.0,0.0,2.6873,0.0,0.0,0.0,0.0,0.0,0.0,0.0,0.0,0.0,0.0,0.0,3.0238,3.0917,3.2556,3.3868,3.4339,3.4777,3.5302,0.0,0.0,0.0,0.0,0.0,0.0,0.0,0.0,0.0,0.0,0.0,0.0,0.0,0.0,3.3281,3.114,3.0591,3.0545,3.0825,0.0,0.0,0.0,0.0,0.0,0.0,0.0,0.0,0.0,0.0,0.0,0.0,0.0,0.0,0.0,0.0,3.2895,0.0,0.0,0.0,0.0,0.0,0.0,0.0,0.0,3.5835,3.644,3.7297,3.817,3.8259,0.0,3.7902,3.7281,0.0,0.0,0.0,0.0,0.0,0.0,0.0,0.0,3.7305,3.9478,4.0337,4.121,4.2123,4.2373,4.2272,4.1775,4.018,3.8506,3.682,3.6973,3.6655,0.0,0.0,0.0,0.0,0.0,0.0,0.0,0.0,0.0,0.0,0.0,0.0,0.0,0.0,0.0,0.0,0.0,0.0,0.0,0.0,0.0,0.0,0.0,2.8216,0.0,0.0,0.0,0.0,0.0,0.0,0.0,0.0,0.0,3.0141,3.064,3.14,3.2267,3.3361,3.4324,3.5014,0.0,0.0,0.0,0.0,0.0,0.0,0.0,3.514,3.5346,3.4881,3.4678,3.529,3.5738,3.5909,3.5691,0.0,0.0,3.2603,3.2094,3.209,3.2616,3.2903,3.319,3.371,3.414,3.4353,0.0,0.0,0.0,0.0,0.0,0.0,0.0,0.0,3.558,3.5927,0.0,3.517,0.0,0.0,0.0,0.0,0.0,0.0,0.0,0.0,3.899,3.9398,3.9534,4.0815,4.111,4.0544,4.108,4.0652,3.9311,3.7365,0.0,0.0,0.0,0.0,0.0,0.0,3.8957,4.0395,4.1094,4.2139,4.3482,4.2901,4.2522,4.2438,4.0478,3.902,3.8248,3.757,3.7168,3.7073,3.5775,0.0,0.0,0.0,0.0,0.0,0.0,0.0,0.0,0.0,0.0,0.0,0.0,0.0,0.0,0.0,0.0,0.0,0.0,0.0,0.0,2.8781,0.0,0.0,0.0,0.0,0.0,0.0,0.0,0.0,0.0,0.0,3.1871,3.2151,3.2985,3.4241,0.0,0.0,0.0,0.0,3.5885,3.7152,3.6766,3.6558,3.7234,3.6783,3.6189,3.5671,0.0,0.0,3.5726,3.5607,3.5505,3.4787,3.4801,3.4719,3.5415,3.4799,3.4501,3.5128,3.4835,3.4762,3.5317,3.5648,3.5529,3.998,0.0,0.0,0.0,0.0,3.7499,3.8087,3.8988,3.9066,3.888,3.8474,3.8065,0.0,0.0,0.0,0.0,0.0,0.0,3.904,4.0451,4.0682,4.1345,4.2371,4.2785,4.2851,4.2669,4.2355,4.1974,4.1543,4.046,3.8959,3.7135,0.0,0.0,0.0,0.0,3.9683,4.1077,4.1825,4.2653,4.3565,4.3398,4.3034,4.252,4.1392,4.0216,3.902,3.8772,3.8175,3.7156,3.7204,0.0,0.0,0.0,0.0,0.0,0.0,0.0,0.0,0.0,0.0,0.0,0.0,0.0,0.0,0.0,0.0,0.0,0.0,0.0,2.929,3.0543,3.1176,0.0,0.0,0.0,0.0,0.0,0.0,0.0,0.0,0.0,3.5049,3.4744,3.4698,0.0,0.0,3.58,3.6375,3.6224,3.6543,3.7939,0.0,0.0,0.0,3.8006,3.7992,3.8265,3.9215,3.9874,3.971,3.9251,3.8993,3.9254,3.8151,3.7336,3.7872,3.6086,3.4796,3.5244,3.5938,3.6649,3.7273,3.809,3.87,4.4091,4.1014,4.0078,4.0103,4.0768,4.0867,4.1517,4.2535,4.2313,4.2078,4.182,4.1257,4.0348,3.9209,3.8659,0.0,0.0,0.0,4.0898,4.2717,4.2717,4.3332,4.4441,4.4787,4.4756,4.4441,4.4011,4.3661,4.3348,4.2636,4.1262,3.9275,0.0,0.0,3.9086,3.9517,4.0428,4.1808,4.2555,4.3151,4.3582,4.3615,4.3251,4.252,4.1792,4.0878,3.9779,3.9448,3.8888,3.8013,3.8129,3.7733,0.0,0.0,0.0,0.0,0.0,0.0,0.0,0.0,0.0,0.0,0.0,3.0221,2.981,0.0,0.0,0.0,3.1038,3.1139,3.1513,3.2554,0.0,0.0,0.0,0.0,0.0,0.0,0.0,3.4257,3.5397,3.6572,3.7545,3.7291,3.703,3.7074,3.7169,3.7524,3.8374,0.0,3.808,3.9485,3.9066,3.8728,3.9184,3.9266,3.9388,3.9805,4.0461,4.0979,4.0977,4.0621,4.0514,4.072,3.9949,3.9196,3.9662,3.7863,3.6623,3.7463,3.8047,3.8739,3.9842,4.0713,4.112,4.7918,4.7057,4.4987,4.4423,4.4869,4.4935,4.5383,4.6012,4.5349,4.5399,4.5863,4.4424,4.3317,4.2504,4.1243,0.0,0.0,4.2438,4.3562,4.4952,4.5003,4.5449,4.6178,4.6841,4.6808,4.6178,4.603,4.5631,4.4952,4.4176,4.3398,4.2653,4.1375,4.066,4.0478,4.0594,4.1276,4.257,4.3383,4.3747,4.3681,4.3615,4.3234,4.252,4.1775,4.1077,4.0412,3.9683,3.9315,3.9282,3.8659,3.8213,3.8012,0.0,0.0,0.0,0.0,0.0,0.0,0.0,0.0,0.0,0.0,0.0,0.0,0.0,0.0,0.0,3.42,0.0,3.4499,3.459,0.0,0.0,0.0,3.4776,3.482,3.5349,3.572,3.5718,0.0,0.0,3.9501,0.0,3.969,3.9754,3.9122,3.9348,4.1237,4.0315,4.0028,4.1302,4.0946,4.0504,4.0551,4.0582,4.0616,4.0645,4.0571,4.0686,4.0686,4.0566,4.0518,4.0703,4.0502,4.0416,4.0468,3.9773,3.9771,4.094,4.0556,4.0637,4.2338,4.2835,4.2569,5.0933,5.0154,4.9094,4.7753,4.6426,4.6974,4.7636,4.8299,4.8133,4.7852,4.7388,4.593,4.4557,4.3317,4.3,4.323,4.3943,4.4671,4.5798,4.7206,4.7802,4.8448,4.9143,4.9326,4.9309,4.9077,4.8017,4.7371,4.7156,4.5897,4.4903,4.4175,4.3842,4.2831,4.1276,4.2272,4.3017,4.3333,4.4622,4.5003,4.4455,4.3895,4.3234,4.2537,4.1792,4.1094,4.0412,3.968,3.9315,3.9299,3.912,3.8775,3.8193,3.7981,0.0,0.0,0.0,0.0,0.0,0.0,0.0,0.0,0.0,3.4683,3.3829,0.0,3.4593,0.0,3.5488,3.5502,3.4602,3.5328,0.0,0.0,3.6477,3.6987,3.7491,3.8134,3.8522,3.8524,3.9248,4.011,4.0979,4.1084,4.1295,4.1773,4.0784,4.0383,4.1317,4.0752,4.0706,4.1949,4.1721,4.1459,4.1932,4.2077,4.2045,4.2093,4.2077,4.2077,4.2077,4.1591,4.141,4.1852,4.1128,4.0707,4.1145,4.0639,4.087,4.2281,4.1397,4.0743,4.2751,4.3128,4.3267,5.3086,5.2688,5.2289,5.1197,4.9773,4.9558,4.9872,5.0535,5.0237,4.9839,4.9376,4.7934,4.6825,4.6031,4.5716,4.5963,4.6675,4.709,4.7885,4.8995,4.9392,4.9806,5.0203,5.0203,5.0203,5.017,4.9359,4.8995,4.8895,4.7819,4.6891,4.6178,4.5847,4.4903,4.3446,4.386,4.4226,4.4573,4.5384,4.5599,4.52,4.4473,4.3729,4.3,4.1957,4.1243,4.0859,3.9849,3.9315,3.9315,3.9315,3.9116,3.8722,3.8676,3.8467,0.0,0.0,0.0,0.0,0.0,0.0,0.0,0.0,0.0,0.0,0.0,3.6595,3.718,3.7802,3.7878,3.7222,3.7776,3.8204,3.8285,3.8619,3.8979,3.9345,3.971,3.9944,3.9949,4.0285,4.0772,4.1482,4.1596,4.1856,4.2505,4.1916,4.1694,4.2268,4.1845,4.18,4.288,4.2478,4.211,4.2539,4.2602,4.2716,4.299,4.2797,4.2699,4.3007,4.2494,4.2126,4.2444,4.1916,4.1492,4.1868,4.1377,4.1476,4.2706,4.201,4.1832,4.411,4.509,4.5597,5.4641,5.4624,5.4541,5.4127,5.3448,5.2242,5.1977,5.2342,5.1712,5.1398,5.1215,4.9939,4.9342,4.921,4.858,4.8647,4.9226,4.9342,4.974,5.0319,5.0435,5.0468,5.0485,5.0485,5.0485,5.0468,5.0386,5.0319,5.032,4.9607,4.8912,4.8282,4.7636,4.7007,4.6361,4.5731,4.5648,4.6063,4.5996,4.5929,4.593,4.5134,4.4307,4.3449,4.2123,4.1312,4.1096,3.9948,3.9315,3.9315,3.9315,3.9348,3.9431,3.9431,3.9414,0.0,3.9469,0.0,0.0,0.0,0.0,0.0,0.0,0.0,0.0,3.7522,3.8398,3.9567,4.0186,4.0496,4.0496,4.0496,4.0529,4.0641,4.0641,4.0626,4.0657,4.0707,4.0738,4.0641,4.0722,4.103,4.1645,4.1726,4.1985,4.2489,4.2539,4.2669,4.3298,4.2895,4.275,4.3573,4.3249,4.2992,4.3007,4.2958,4.3168,4.3638,4.3395,4.312,4.3735,4.3233,4.2764,4.2764,4.262,4.2539,4.2602,4.2045,4.2107,4.3395,4.2723,4.2865,4.5338,4.6581,4.7296,5.5402,5.5353,5.4756,5.4409,5.426,5.403,5.3318,5.2391,5.2242,5.1861,5.1299,5.1,5.0552,4.9988,4.9839,4.9855,5.0004,5.0601,5.0966,5.1116,5.1712,5.1994,5.1994,5.1976,5.1994,5.1943,5.1381,5.1082,5.1082,5.0353,4.9922,4.9773,4.9624,4.9508,4.9375,0.0,0.0,0.0,4.699,4.6692,4.6643,4.5383,4.4059,4.2769,4.1875,0.0,3.9779,3.9431,3.9315,3.9315,3.9315,0.0,0.0,0.0,0.0,0.0,0.0,0.0,0.0,0.0,0.0,0.0,4.0463,4.0261,4.0124,4.014,4.0279,4.0541,4.0537,4.0496,4.0496,4.0496,4.0738,4.132,4.1401,4.1386,4.1402,4.1857,4.2003,4.1451,4.1873,4.223,4.2343,4.2424,4.2456,4.257,4.2602,4.2651,4.2797,4.2699,4.2861,4.3557,4.3978,4.4334,4.4383,4.435,4.4302,4.4544,4.4512,4.4415,4.448,4.3962,4.3492,4.3444,4.3007,4.2602,4.2602,4.2476,4.2606,4.3541,4.3879,4.4456,4.5499,4.4974,4.4863,5.6812,0.0,5.615,5.57,0.0,5.5038,5.4425,5.34,5.3036,5.2489,5.1845,5.1828,5.1646,5.128,5.128,5.128,5.1313,5.1679,5.2027,5.234,5.2705,5.2905,5.2887,5.2887,5.2723,5.2391,5.2027,5.1828,5.1795,5.1082,5.0734,5.0717,5.0369,5.0203,5.0203,5.0203,4.964,4.8564,4.8166,4.762,4.6908,4.6178,4.5086,4.3645,0.0,0.0,0.0,0.0,0.0,0.0,0.0,0.0,0.0,0.0,0.0,4.1378,4.1411,4.1411,4.1428,4.1685,4.184,4.1857,4.2516,4.2558,4.1707,4.1526,4.1569,4.1912,4.2102,4.2106,4.1809,4.204,4.2253,4.2314,4.2284,4.2255,4.2255,4.2438,4.2472,4.2197,4.2376,4.2602,4.2602,4.2602,4.2602,4.2602,4.2602,4.2602,4.2602,4.2602,4.2861,4.3605,4.4318,4.4787,4.4804,4.4804,4.495,4.516,4.5014,4.4965,4.5241,4.4415,4.3703,4.3654,4.3104,4.2602,4.2602,4.2602,4.2716,4.3088,4.346,4.3929,4.454,4.4846,4.5209,5.7806,5.6766,5.7379,5.6978,5.5982,5.5849,5.5369,5.4641,0.0,0.0,0.0,5.2772,5.2772,5.2772,5.2772,5.2772,5.2772,5.2772,5.3069,5.3581,5.3581,5.3515,5.3399,5.3417,5.3053,5.2408,5.2391,5.2391,5.2375,5.1778,5.1497,5.143,5.0883,5.0601,5.0585,5.0601,5.0237,4.9508,4.9375,4.8647,4.7338,4.7156,4.6394,4.4935,4.4044,4.3251,4.252,4.1792,4.1411,4.1411,4.1411,4.1477,4.1577,4.1593,4.1659,4.1775,4.1792,4.1775,4.1808,4.2471,4.2885,4.2901,4.4009,4.4146,4.2809,4.2592,4.2764,4.3323,4.3659,4.3628,4.3163,4.3545,4.3645,4.3147,4.3007,4.2914,4.2914,4.2806,4.2696,4.2696,4.2696,4.2681,4.2665,4.2649,4.265,4.2602,4.2602,4.2602,4.2635,4.2748,4.3136,4.3848,4.4464,4.482,4.4966,4.4852,4.5047,4.5386,4.5208,4.5192,4.5451,4.4852,4.4156,4.4188,4.3476,4.3055,4.2861,4.2845,4.278,4.278,4.2683,4.2829,4.3622,4.4933,4.5643,5.6895,5.6716,5.6796,5.7094,5.7425,5.6812,5.6133,5.5402,5.4674,5.4293,5.421,5.421,5.4194,5.421,5.421,5.4194,5.421,5.421,5.426,0.0,5.4359,5.4011,5.3434,5.3417,5.3053,5.2424,5.2391,5.2391,5.2391,5.2308,5.2242,5.2242,5.2126,5.2077,5.2093,5.2093,5.1729,5.1,5.0369,4.9624,4.8812,4.8167,4.7139,4.5682,4.4342,4.3251,4.2506,4.1811,4.1411,4.1411,4.1411,4.1692,4.2305,4.2371,4.262,4.3218,4.3284,4.3284,4.3284,4.3992,4.439,4.4405,4.4604,4.4589,4.4408,4.4239,4.4197,4.4279,4.3698,4.3213,4.3098,4.3229,4.3262,4.3129,4.3098,4.3082,4.3067,4.3036,4.2989,4.3005,4.302,4.2959,4.2884,4.2853,4.2774,4.2649,4.2699,4.2635,4.2699,4.3136,4.3816,4.4447,4.4723,4.503,4.5322,4.5127,4.4933,4.4901,4.5354,4.5613,4.5775,4.55,4.5273,4.5451,4.4739,4.4172,4.367,4.3541,4.3476,4.3427,4.3039,4.2861,4.3476,4.3622,4.367,5.8618,5.7988,5.832,5.8452,5.8353,5.8022,5.7707,5.7323,5.6614,5.5584,5.4541,5.4508,5.4508,5.4508,5.4508,5.4508,5.4508,5.4508,5.4707,5.5088,5.5104,5.4922,5.4624,5.4591,5.421,5.3566,5.3549,5.3533,5.3549,5.3533,5.3549,5.35,5.3152,5.2772,5.2424,5.2391,5.2226,5.1878,5.1182,5.0436,4.9723,4.9359,4.8481,4.704,4.6311,4.5434,4.434,4.3976,4.3794,4.3777,4.3794,4.3943,4.4242,4.391,4.4027,4.4721,4.4423,4.4193,4.4176,4.4126,4.4093,4.411,4.4473,4.4703,4.4703,4.428,4.4004,4.4037,4.3837,4.3677,4.3423,4.3642,4.3709,4.3405,4.3312,4.325,4.3235,4.3159,4.3096,4.3096,4.3096,4.3082,4.3022,4.3022,4.2945,4.2823,4.2973,4.3071,4.2699,4.3217,4.3816,4.4172,4.4512,4.4885,4.5192,4.5014,4.482,4.4804,4.537,4.5759,4.5775,4.5581,4.5467,4.5646,4.4982,4.435,4.4172,4.3929,4.3751,4.3622,4.3104,4.2861,4.2958,4.2797,4.2877,5.9943,5.8966,5.9512,5.9429,5.8916,5.9082,5.9049,5.8853,5.8471,5.7235,5.562,5.5319,5.5237,5.5253,5.5419,5.5485,5.5485,5.5485,5.5736,5.6048,5.6098,5.5932,5.5634,5.5601,5.522,5.4574,5.4508,5.4508,5.4508,5.4508,5.4508,5.4442,5.3929,5.3299,5.2656,5.2623,5.2557,5.2375,5.1846,5.1198,5.0485,5.0469,4.9756,4.8382,4.8067,4.7388,4.6145,4.5881,4.5813,4.5797,4.5648,4.5565,4.5532,4.5018,4.4952,4.5449,4.5035,4.4703,4.467,4.4175,4.3845,4.3861,4.4373,4.4637,4.4423,4.3944,4.3681,4.3847,4.4056,4.3993,4.3719,4.3908,4.4042,4.365,4.3509,4.3447,4.3432,4.3295,4.3204,4.3219,4.3236,4.3204,4.3174,4.3174,4.3129,4.3042,4.3439,4.3539,4.315,4.3588,4.401,4.4075,4.4237,4.4431,4.4658,4.4447,4.435,4.448,4.4933,4.5257,4.537,4.5192,4.5354,4.5807,4.5095,4.4512,4.4706,4.4383,4.3945,4.3735,4.3282,4.2861,4.2683,4.2651,4.2602,5.9069,5.8916,5.9129,5.8966,5.9076,5.9689,5.961,5.9126,5.9612,5.9379,5.8458,5.779,5.7517,5.7591,5.8144,5.8379,5.8416,5.8505,5.8161,5.763,5.7591,5.6912,5.58,5.5686,5.522,5.4674,5.4657,5.4756,5.469,5.4591,5.4525,5.4508,5.4425,5.4028,5.34,5.3316,5.3036,5.2424,5.2325,5.1927,5.1248,5.1216,5.0502,4.9044,4.8365,4.7636,4.6874,4.6146,4.583,4.5747,4.5218,4.4852,4.4852,4.4753,4.4753,4.4852,4.4753,4.4703,4.4703,4.4654,4.4522,4.4604,4.4589,4.439,4.3812,4.3664,4.3878,4.4275,4.3995,4.3699,4.3615,4.3683,4.3701,4.3633,4.3583,4.3583,4.3568,4.3568,4.3568,4.3537,4.3524,4.3492,4.3387,4.3357,4.3265,4.3129,4.3756,4.4133,4.3986,4.4606,4.5015,4.4819,4.4008,4.3621,4.4318,4.3622,4.3508,4.38,4.3929,4.4399,4.4917,4.5435,4.5921,4.6293,4.6034,4.5338,4.4965,4.469,4.4464,4.3832,4.3508,4.333,4.2813,4.2602,4.2602,6.1155,6.1565,6.1565,6.1565,6.1616,6.1885,6.1834,6.1569,6.1447,6.1203,6.0889,6.06,5.9996,5.9185,5.9504,5.9854,6.0289,5.9816,5.9451,5.9168,5.9168,5.858,5.7686,5.8067,5.7864,5.7147,5.7111,5.6879,5.6448,5.6017,5.5603,5.5187,5.5154,5.4773,5.4111,5.4045,5.3912,5.3649,5.3202,5.2837,5.2539,5.2159,5.1447,5.0485,5.0088,4.9359,4.8332,4.7901,4.7554,4.7123,4.6808,4.6643,4.6643,4.5847,4.5533,4.5897,4.5167,4.4703,4.4703,4.4307,4.406,4.4027,4.4044,4.3911,4.3648,4.3615,4.3746,4.3928,4.3764,4.3615,4.3615,4.3615,4.3615,4.3615,4.3615,4.3615,4.3615,4.3615,4.3615,4.3615,4.3615,4.3583,4.3524,4.3449,4.3372,4.3429,4.4141,4.4718,4.439,4.5209,4.5684,4.5324,4.4607,4.4266,4.4479,4.443,4.3958,4.3651,4.4334,4.5228,4.4885,4.537,4.6018,4.6764,4.6213,4.5743,4.5467,4.5322,4.5095,4.4172,4.3249,4.2942,4.2651,4.2602,4.2602,6.3093,6.3373,6.3375,6.3375,6.3375,6.3375,6.3375,6.3396,6.306,6.2799,6.2637,6.2817,6.2343,6.1404,6.1112,6.1334,6.1752,6.126,6.0881,6.0727,6.0693,6.0272,5.9677,6.0122,6.0122,5.9641,5.9515,5.9145,5.845,5.7927,5.7242,5.6606,5.6523,5.6135,5.5449,5.522,5.499,5.4739,5.4074,5.3614,5.3349,5.292,5.2242,5.1397,5.1298,5.0701,4.9458,4.921,4.8862,4.8332,4.7934,4.7686,4.7653,4.6676,4.6344,4.6709,4.5731,4.5018,4.4985,4.4126,4.3696,4.3845,4.3731,4.3615,4.3615,4.3615,4.3615,4.3631,4.3615,4.3615,4.3615,4.3615,4.3615,4.3615,4.3615,4.3615,4.3615,4.3615,4.3615,4.3615,4.3615,4.3615,4.3616,4.3704,4.3824,4.3926,4.4888,4.5583,4.5222,4.6026,4.6651,4.6142,4.6043,4.5699,4.5012,4.4931,4.4687,4.4591,4.5212,4.5538,4.5277,4.5748,4.6136,4.6788,4.6136,4.5566,4.5241,4.5225,4.5111,4.401,4.3185,4.2716,4.2602,4.2716,4.2894,6.4081,6.3464,6.3411,6.3503,6.3412,6.3466,6.3448,6.3612,6.4166,6.4061,6.358,6.4148,6.4427,6.4218,6.3478,6.3255,6.331,6.3204,6.2805,6.2255,6.222,6.1841,6.1219,6.1238,6.1237,6.1176,6.1175,6.0765,6.0032,5.9928,5.9552,5.8736,5.8636,5.8307,5.7552,5.6913,5.6274,5.5697,5.4991,5.4236,5.3604,5.3472,5.2775,5.1633,5.1331,5.0983,5.0204,4.9491,4.9094,4.9044,4.7802,4.704,4.6974,4.6874,4.6841,4.6775,4.6161,4.5731,4.5548,4.4474,4.3977,4.444,4.411,4.3664,4.3828,4.3828,4.3828,4.3664,4.3797,4.3764,4.3681,4.3648,4.3615,4.3615,4.3615,4.3615,4.3615,4.3615,4.3615,4.3615,4.3615,4.3664,4.3679,4.4209,4.4524,4.4855,4.5866,4.6678,4.6646,4.7306,4.7654,4.7704,4.7621,4.7489,4.6487,4.606,4.588,4.5603,4.5455,4.5685,4.6061,4.6438,4.6731,4.6761,4.6173,4.5586,4.495,4.4512,4.4237,4.3638,4.3233,4.2861,4.2651,4.3217,4.3314,6.5198,6.4942,6.4942,6.4925,6.4925,6.4925,6.4942,6.4959,6.5245,6.521,6.5009,6.5261,6.536,6.5344,6.506,6.4925,6.4874,6.441,6.4026,6.3782,6.3747,6.3361,6.2743,6.3135,6.3118,6.2707,6.2636,6.2232,6.1533,6.1084,6.0467,5.9798,5.966,5.927,5.8599,5.8239,5.7946,5.7672,5.6985,5.649,5.608,5.5289,5.4337,5.3379,5.2441,5.1646,5.095,5.0635,5.0105,4.916,4.8564,4.81,4.7636,4.7139,4.6692,4.6228,4.593,4.5813,4.5747,4.5301,4.5102,4.5334,4.5168,4.497,4.5019,4.5019,4.4987,4.4971,4.5003,4.4854,4.4307,4.3895,4.3615,4.3615,4.3615,4.3615,4.3615,4.3615,4.3615,4.3615,4.3615,4.3762,4.4208,4.4554,4.4886,4.5399,4.6262,4.6825,4.7023,4.7537,4.8001,4.8001,4.8001,4.7885,4.7572,4.7242,4.6979,4.6404,4.6142,4.6372,4.6684,4.6963,4.724,4.7239,4.6601,4.6061,4.557,4.4853,4.4399,4.4091,4.3654,4.3055,4.2699,4.3266,4.3249,6.5789,6.5807,6.5804,6.5804,6.5804,6.5804,6.5804,6.5804,6.5804,6.5804,6.5804,6.5804,6.5804,6.5804,6.5804,6.5964,6.6093,6.5352,6.4993,6.4993,6.4993,6.4686,6.4393,6.4984,6.509,6.462,6.4567,6.406,6.3099,6.2596,6.1953,6.1224,6.0964,6.0544,6.0016,5.9536,5.9247,5.9109,5.8526,5.8063,5.772,5.6833,5.5809,5.4856,5.3889,5.2834,5.1732,5.143,5.0884,4.9906,4.9359,4.8779,4.8034,4.7537,4.704,4.656,4.631,4.6277,4.6393,4.6095,4.5896,4.6128,4.5914,4.5813,4.5813,4.5813,4.5813,4.5813,4.5797,4.5533,4.5118,4.4605,4.4126,4.3747,4.3615,4.3615,4.3615,4.3615,4.3615,4.3648,4.3861,4.4208,4.4638,4.5151,4.5631,4.6113,4.6792,4.7222,4.7338,4.7636,4.8001,4.8001,4.8001,4.8001,4.7852,4.7687,4.7637,4.7143,4.688,4.7095,4.7177,4.7457,4.7555,4.7538,4.7258,4.6749,4.6126,4.5391,4.4951,4.4659,4.4059,4.3395,4.3282,4.3298,4.3573,6.5822,6.5836,6.5804,6.5802,6.5802,6.5786,6.5804,6.5804,6.5804,6.5804,6.5804,6.5804,6.5804,6.5804,6.5804,6.6196,6.6553,6.5991,6.578,6.5903,6.5848,6.5832,6.5856,6.6514,6.6867,6.6731,6.6864,6.6072,6.4687,6.4442,6.3986,6.3302,6.26,6.2176,6.2175,6.0778,6.0072,5.9888,5.9326,5.8663,5.7924,5.7871,5.7164,5.5836,5.5515,5.4532,5.262,5.1834,5.1367,5.1033,4.9872,4.8796,4.8133,4.7918,4.7934,4.7752,4.7272,4.7289,4.7653,4.6676,4.6344,4.6708,4.6278,4.6062,4.6128,4.6062,4.6045,4.6079,4.603,4.5881,4.5847,4.5715,4.5136,4.3928,4.3746,4.3731,4.3631,4.3615,4.3631,4.3762,4.4193,4.4638,4.5035,4.5847,4.6626,4.6941,4.7438,4.7852,4.7819,4.7934,4.7984,4.8001,4.8001,4.8001,4.8001,4.8001,4.7984,4.7918,4.7786,4.7786,4.7704,4.7836,4.7787,4.7737,4.7424,4.6947,4.6487,4.5767,4.5196,4.4805,4.4221,4.3881,4.3864,4.3978,4.4561,6.6148,6.6133,6.599,6.5925,6.5927,6.5834,6.5804,6.5804,6.5804,6.5804,6.5804,6.5804,6.5804,6.5804,6.5804,6.5946,6.6143,6.5929,6.6357,6.7124,6.6821,6.6855,6.7285,6.7604,6.7765,6.7641,6.723,6.6759,6.6222,6.5677,6.5002,6.4292,6.401,6.332,6.2345,6.1806,6.1343,6.078,6.0556,6.0289,6.0028,5.9553,5.8803,5.7915,5.7374,5.6296,5.4666,5.3416,5.2317,5.1384,5.0386,4.9309,4.8299,4.8001,4.8001,4.7984,4.7802,4.7703,4.7901,4.7603,4.7338,4.757,4.7404,4.7338,4.7322,4.7272,4.7255,4.7272,4.7305,4.7156,4.6708,4.6543,4.5914,4.4506,4.4357,4.416,4.3797,4.3681,4.3845,4.4274,4.4571,4.5101,4.5963,4.6808,4.7106,4.7537,4.7852,4.8001,4.8001,4.8001,4.8001,4.8001,4.8001,4.8001,4.8001,4.7984,4.7984,4.7968,4.7968,4.8001,4.8001,4.8001,4.7952,4.7836,4.7523,4.7194,4.6717,4.6159,4.5555,4.5179,4.4789,4.4594,4.448,4.4659,4.5016,6.6284,6.6287,6.6161,6.6115,6.6081,6.6023,6.5994,6.5994,6.5897,6.5881,6.5865,6.582,6.5804,6.5804,6.5804,6.5982,6.6178,6.5964,6.6624,6.7713,6.6963,6.6839,6.7338,6.7873,6.8088,6.8016,6.764,6.7088,6.6569,6.6321,6.5839,6.5163,6.5038,6.4254,6.2821,6.2411,6.1911,6.1218,6.1078,6.1093,6.1019,6.0651,6.0026,5.9324,5.881,5.7707,5.6095,5.5046,5.3799,5.2201,5.0922,4.9641,4.8531,4.8199,4.8001,4.8001,4.8001,4.8001,4.8001,4.7968,4.8001,4.8001,4.8001,4.7984,4.8001,4.8001,4.8001,4.8001,4.7968,4.7802,4.7404,4.7305,4.6742,4.5664,4.5251,4.4937,4.4491,4.4408,4.4589,4.5084,4.5367,4.5963,4.6593,4.7222,4.7454,4.7918,4.8001,4.8001,4.8001,4.8001,4.8001,4.8001,4.8001,4.8001,4.8001,4.7984,4.7935,4.7935,4.7919,4.7984,4.8001,4.8001,4.7968,4.7919,4.7688,4.7572,4.7144,4.6437,4.5831,4.5586,4.5179,4.4691,4.435,4.4626,4.5033,6.6284,6.6284,6.6269,6.6272,6.6238,6.6225,6.6195,6.621,6.6052,6.5956,6.5942,6.585,6.5804,6.5804,6.5804,6.6125,6.6642,6.6125,6.6446,6.7124,6.6589,6.6089,6.6571,6.7588,6.807,6.8086,6.7945,6.7247,6.6214,6.6482,6.6553,6.5768,6.5625,6.5019,6.3627,6.2753,6.2054,6.1397,6.1165,6.1093,6.1093,6.1064,6.0731,6.0003,5.9873,5.8979,5.7324,5.6505,5.5412,5.3447,5.1514,5.0326,4.9393,4.8613,4.8527,4.8495,4.8215,4.8249,4.8183,4.8084,4.8084,4.8166,4.8084,4.8001,4.8001,4.8001,4.8001,4.8001,4.8001,4.7984,4.7934,4.7901,4.7554,4.7007,4.6129,4.5714,4.5764,4.5682,4.5664,4.5881,4.6444,4.6941,4.699,4.752,4.7703,4.7802,4.7752,4.762,4.7802,4.7769,4.7918,4.7968,4.8001,4.8001,4.8001,4.8001,4.7968,4.7951,4.7919,4.7902,4.7902,4.7902,4.7935,4.7869,4.782,4.7737,4.7407,4.6666,4.606,4.5635,4.5114,4.448,4.4496,4.4903,4.5358,6.6284,6.6269,6.6128,6.6083,6.605,6.5976,6.5929,6.5913,6.5899,6.5881,6.585,6.5802,6.5804,6.5804,6.5804,6.5929,6.6053,6.5946,6.5911,6.6268,6.6053,6.6517,6.732,6.7854,6.807,6.7998,6.7569,6.7088,6.666,6.6357,6.6071,6.5822,6.5839,6.534,6.4305,6.3484,6.275,6.2,6.1361,6.1129,6.1129,6.1111,6.1004,6.0843,6.0754,6.0163,5.8943,5.7428,5.5575,5.354,5.2876,5.2133,5.137,5.1045,5.0673,5.0244,4.9796,4.9554,4.9393,4.8647,4.8316,4.8696,4.8415,4.8017,4.8001,4.8001,4.8001,4.8001,4.8001,4.8001,4.8001,4.8001,4.7868,4.762,4.6675,4.5946,4.5913,4.583,4.5996,4.6526,4.6808,4.7139,4.7471,4.7438,4.7322,4.7189,4.6941,4.6692,4.7073,4.7338,4.7421,4.7868,4.7984,4.8001,4.8001,4.8001,4.7984,4.7984,4.7902,4.7787,4.777,4.7688,4.7737,4.777,4.7688,4.7621,4.7274,4.6731,4.6224,4.5668,4.5406,4.4998,4.5307,4.5666,4.5975,6.6284,6.6284,6.6177,6.613,6.6097,6.6021,6.6008,6.5992,6.5929,6.5897,6.5881,6.5836,6.5804,6.5804,6.5804,6.5804,6.5822,6.6161,6.6303,6.6321,6.6339,6.6803,6.7463,6.764,6.7658,6.7588,6.7212,6.6819,6.6535,6.6303,6.6143,6.5929,6.6143,6.5714,6.4593,6.418,6.3502,6.2768,6.2021,6.1608,6.1593,6.1254,6.1093,6.1093,6.1075,6.0719,5.9754,5.8033,5.6008,5.4237,5.3472,5.3105,5.2706,5.2358,5.2024,5.1589,5.0963,5.0583,5.0426,4.9543,4.916,4.9408,4.911,4.8796,4.8564,4.8448,4.8415,4.805,4.8017,4.8001,4.8001,4.8001,4.8001,4.7885,4.7222,4.6709,4.6725,4.6775,4.6908,4.7222,4.7388,4.7487,4.7951,4.757,4.7239,4.6957,4.6709,4.6493,4.646,4.6692,4.704,4.7537,4.7934,4.8001,4.8001,4.8001,4.7919,4.7902,4.7836,4.7737,4.7457,4.7391,4.744,4.7473,4.7489,4.7438,4.714,4.6745,4.6138,4.5746,4.563,4.5614,4.5761,4.6071,4.6445,6.6256,6.6256,6.6256,6.6241,6.6225,6.6241,6.6179,6.6195,6.6021,6.5958,6.5942,6.585,6.5804,6.5804,6.5804,6.5804,6.5839,6.6535,6.6855,6.6855,6.6783,6.6785,6.6819,6.6873,6.6856,6.6839,6.689,6.6464,6.6161,6.6498,6.641,6.6053,6.6446,6.6071,6.5038,6.4628,6.4216,6.3538,6.2786,6.2304,6.2107,6.1646,6.1325,6.1093,6.1093,6.0686,5.9812,5.8549,5.7004,5.4998,5.4069,5.3842,5.3638,5.3016,5.2716,5.2531,5.2037,5.1511,5.1289,5.0677,5.017,5.022,5.0187,4.9938,4.9359,4.921,4.8945,4.8299,4.8117,4.815,4.8001,4.8001,4.8001,4.7984,4.7901,4.7968,4.8001,4.8001,4.8001,4.8001,4.7984,4.8001,4.7984,4.7885,4.762,4.6891,4.6527,4.6146,4.6178,4.646,4.6858,4.7338,4.7703,4.8001,4.8001,4.8001,4.7869,4.7787,4.7721,4.7555,4.7062,4.698,4.7062,4.716,4.734,4.737,4.7203,4.6709,4.615,4.5873,4.5824,4.5727,4.5711,4.6184,4.6574,6.5915,6.5915,6.5915,6.5897,6.5897,6.5897,6.5913,6.5897,6.5865,6.585,6.5834,6.5802,6.5804,6.5804,6.5804,6.5804,6.5893,6.6589,6.698,6.6908,6.6319,6.6089,6.6071,6.6125,6.6089,6.6107,6.6089,6.5964,6.5911,6.5982,6.6,6.5911,6.5982,6.5911,6.5536,6.4914,6.4557,6.4234,6.3573,6.2911,6.2482,6.2161,6.1682,6.1182,6.1093,6.0701,6.0062,5.9594,5.8861,5.7749,5.6513,5.5667,5.5557,5.5405,5.5012,5.4404,5.3467,5.2877,5.2636,5.1464,5.0485,5.1036,5.0669,5.0137,5.0021,4.9922,4.9574,4.9028,4.8829,4.8481,4.81,4.8001,4.8001,4.8001,4.8001,4.8001,4.8001,4.8001,4.8001,4.8001,4.8001,4.8001,4.7984,4.752,4.7189,4.6808,4.6393,4.588,4.5979,4.6261,4.6709,4.7239,4.7621,4.7919,4.7919,4.7902,4.7803,4.7704,4.7621,4.7521,4.7028,4.6848,4.7044,4.7191,4.7305,4.7252,4.7132,4.6982,4.6505,4.6262,4.605,4.6067,4.6181,4.6508,4.685,6.5899,6.6008,6.5867,6.5852,6.5881,6.5818,6.5804,6.5804,6.5804,6.5804,6.5804,6.5804,6.5804,6.5804,6.5804,6.5804,6.5982,6.6607,6.6998,6.6908,6.6517,6.6178,6.5804,6.5804,6.5804,6.5804,6.5822,6.5804,6.5804,6.5804,6.5839,6.5804,6.5804,6.5839,6.5804,6.5342,6.5217,6.5036,6.4394,6.3752,6.3413,6.2625,6.1929,6.1272,6.1093,6.0861,6.0522,6.0044,5.9687,5.9098,5.8135,5.7293,5.6932,5.6615,5.6235,5.5766,5.4936,5.4326,5.3886,5.2822,5.1932,5.2199,5.1607,5.11,5.0701,5.0436,4.9839,4.9226,4.8779,4.8382,4.805,4.8001,4.8001,4.8001,4.8001,4.8001,4.8001,4.8001,4.8001,4.8001,4.8001,4.8001,4.7819,4.7487,4.7189,4.699,4.6808,4.6328,4.598,4.6278,4.6692,4.7157,4.7555,4.782,4.7803,4.777,4.7687,4.7604,4.7554,4.7471,4.7225,4.7158,4.7172,4.7122,4.7022,4.71,4.6979,4.6878,4.6861,4.6667,4.6537,4.6553,4.6699,4.6975,4.7333,6.596,6.621,6.5913,6.5865,6.5925,6.585,6.5804,6.5804,6.5804,6.5804,6.5804,6.5804,6.5804,6.5804,6.5804,6.5839,6.6143,6.6375,6.673,6.6962,6.666,6.6268,6.5893,6.5804,6.5804,6.5804,6.5804,6.5804,6.5804,6.5804,6.5804,6.5804,6.5804,6.5804,6.5804,6.5804,6.5697,6.5572,6.5108,6.4626,6.4269,6.3163,6.2146,6.1254,6.1093,6.1075,6.0879,6.0504,6.0112,6.0044,5.9312,5.8617,5.7935,5.7092,5.6579,5.6556,5.5732,5.5348,5.5185,5.4283,5.3414,5.3516,5.306,5.2395,5.1725,5.1241,5.059,4.9625,4.8995,4.8365,4.8183,4.805,4.8017,4.8001,4.8001,4.8001,4.8001,4.8001,4.8001,4.8001,4.8001,4.8001,4.8001,4.7835,4.7504,4.7206,4.704,4.6858,4.6543,4.6411,4.6874,4.7272,4.7704,4.7787,4.777,4.7654,4.7571,4.7454,4.7437,4.7354,4.7254,4.7152,4.7019,4.6723,4.6622,4.6799,4.6928,4.6911,4.6893,4.6893,4.6861,4.6764,4.7039,4.7443,4.7734,6.5818,6.5883,6.582,6.5802,6.5818,6.5804,6.5804,6.5804,6.5804,6.5804,6.5804,6.5804,6.5804,6.5804,6.5804,6.6143,6.6428,6.6357,6.6392,6.6678,6.641,6.5911,6.5875,6.5804,6.5804,6.5804,6.5804,6.5804,6.5804,6.5804,6.5804,6.5804,6.5804,6.5804,6.5804,6.5804,6.5804,6.5804,6.5554,6.5233,6.4608,6.3752,6.2538,6.1432,6.1236,6.1165,6.1093,6.0986,6.0897,6.0826,6.0115,5.9687,5.9166,5.8131,5.7539,5.7159,5.6368,5.6009,5.6104,5.5129,5.4399,5.4234,5.4025,5.3682,5.3145,5.2758,5.1866,5.0758,4.9659,4.8912,4.8895,4.8349,4.8034,4.8001,4.8001,4.8001,4.8001,4.8001,4.8001,4.8001,4.8001,4.8001,4.8001,4.8001,4.7819,4.7537,4.7338,4.7404,4.7388,4.7156,4.7173,4.7554,4.7902,4.7836,4.7737,4.7588,4.7453,4.7285,4.7234,4.715,4.7066,4.6997,4.6813,4.6702,4.6668,4.683,4.6911,4.6893,4.6893,4.6893,4.6893,4.691,4.7153,4.7428,4.7767,6.5915,6.6057,6.5883,6.5834,6.5897,6.5818,6.5804,6.5804,6.5804,6.5804,6.5804,6.5804,6.5804,6.5804,6.5804,6.6053,6.6143,6.6036,6.6036,6.6232,6.5982,6.5804,6.5804,6.5804,6.5804,6.5804,6.5804,6.5804,6.5804,6.5804,6.5804,6.5804,6.5804,6.5804,6.5804,6.5804,6.5804,6.5804,6.5768,6.5625,6.5179,6.4412,6.3234,6.2146,6.1697,6.1519,6.1129,6.1093,6.1093,6.1022,6.0736,6.0326,5.9826,5.9309,5.8577,5.8146,5.7437,5.6995,5.6993,5.6095,5.5451,5.4924,5.4674,5.4296,5.3904,5.3452,5.2784,5.1462,5.0408,4.9458,4.9111,4.8464,4.8084,4.8001,4.8001,4.8001,4.8001,4.8001,4.8001,4.8001,4.8001,4.8001,4.8001,4.8001,4.8001,4.7852,4.7636,4.7752,4.7984,4.7769,4.7472,4.7605,4.7853,4.7638,4.7538,4.742,4.7302,4.7166,4.7064,4.7013,4.6978,4.6911,4.6927,4.6896,4.6928,4.6911,4.6893,4.6893,4.6893,4.691,4.6958,4.7023,4.7153,4.7396,4.788,6.5945,6.6179,6.5897,6.5865,6.5927,6.585,6.5804,6.5804,6.5804,6.5804,6.5804,6.5804,6.5804,6.5804,6.5804,6.5822,6.5804,6.5804,6.5839,6.5857,6.5839,6.5804,6.5804,6.5804,6.5804,6.5804,6.5804,6.5804,6.5804,6.5804,6.5804,6.5804,6.5804,6.5804,6.5804,6.5804,6.5804,6.5804,6.5804,6.5786,6.5447,6.4896,6.3984,6.2696,6.2518,6.2161,6.1521,6.1432,6.1272,6.1165,6.1004,6.0808,6.029,6.0148,5.9848,5.9259,5.8795,5.8238,5.7826,5.689,5.6171,5.598,5.5219,5.4844,5.4461,5.3974,5.3138,5.1958,5.0825,5.0347,4.9959,4.8729,4.8249,4.8233,4.815,4.8001,4.8001,4.8001,4.8001,4.8001,4.8001,4.8034,4.805,4.8001,4.8001,4.8001,4.7802,4.7819,4.7984,4.7886,4.7704,4.7671,4.7671,4.7404,4.7268,4.7201,4.7098,4.7013,4.6978,4.6961,4.6944,4.6911,4.6944,4.6944,4.6944,4.6893,4.6893,4.6893,4.6893,4.6942,4.7006,4.72,4.7459,4.7945,4.851,6.5802,6.5867,6.582,6.582,6.5836,6.5786,6.5804,6.5804,6.5804,6.5804,6.5804,6.5804,6.5804,6.5804,6.5804,6.5804,6.5804,6.5804,6.5804,6.5804,6.5804,6.5804,6.5804,6.5804,6.5804,6.5804,6.5804,6.5804,6.5804,6.5804,6.5804,6.5804,6.5804,6.5804,6.5804,6.5804,6.5804,6.5804,6.5804,6.55,6.4967,6.4735,6.4162,6.3538,6.3232,6.2913,6.225,6.2054,6.1804,6.1236,6.1129,6.1058,6.0968,6.0968,6.095,6.0237,5.9184,5.7971,5.8192,5.7349,5.6691,5.6727,5.6365,5.5882,5.5317,5.477,5.4217,5.4069,5.2326,5.1269,5.0926,4.9409,4.8729,4.8448,4.8398,4.8216,4.8133,4.8034,4.8034,4.8233,4.8315,4.8183,4.8133,4.8067,4.8001,4.8001,4.8001,4.8001,4.7968,4.7869,4.7671,4.7588,4.7587,4.7352,4.7167,4.7064,4.7013,4.6911,4.6893,4.6893,4.6893,4.6893,4.6893,4.6927,4.6893,4.6893,4.6893,4.6893,4.6893,4.7039,4.7217,4.754,4.7895,4.8461,4.9012,6.5804,6.5804,6.5804,6.5804,6.5804,6.5804,6.5804,6.5804,6.5804,6.5804,6.5804,6.5804,6.5804,6.5804,6.5804,6.5804,6.5804,6.5804,6.5804,6.5804,6.5804,6.5804,6.5804,6.5804,6.5804,6.5804,6.5804,6.5804,6.5804,6.5804,6.5804,6.5804,6.5804,6.5804,6.5804,6.5804,6.5804,6.5804,6.5768,6.5625,6.5375,6.5217,6.4894,6.4126,6.4091,6.3645,6.3053,6.2447,6.2197,6.1697,6.1429,6.1093,6.1093,6.104,6.0933,6.0308,5.9559,5.8916,5.8581,5.765,5.7275,5.6865,5.6633,5.6249,5.5926,5.565,5.5069,5.4371,5.3204,5.2386,5.1631,4.9843,4.9493,4.9177,4.8812,4.8845,4.8663,4.8183,4.8133,4.8382,4.858,4.8415,4.8249,4.8117,4.805,4.8001,4.7984,4.8001,4.7935,4.7836,4.7604,4.7352,4.7369,4.7335,4.7167,4.7047,4.7013,4.6961,4.6893,4.6893,4.6893,4.6893,4.6893,4.691,4.6926,4.691,4.6926,4.7007,4.7088,4.7266,4.746,4.788,4.8299,4.8639,4.9254,6.5532,6.5518,6.5732,6.5804,6.5804,6.5804,6.5804,6.5804,6.5804,6.5804,6.5804,6.5804,6.5804,6.5804,6.5804,6.5804,6.5804,6.5804,6.5804,6.5804,6.5804,6.5804,6.5804,6.5804,6.5804,6.5804,6.5804,6.5804,6.5804,6.5804,6.5804,6.5804,6.5804,6.5804,6.5804,6.5804,6.5804,6.5822,6.6071,6.6,6.5786,6.575,6.5429,6.5072,6.4807,6.4519,6.3716,6.3,6.2607,6.2125,6.1486,6.1111,6.1093,6.1075,6.0897,6.0433,5.9933,5.9526,5.9027,5.8363,5.7721,5.7328,5.6722,5.669,5.6355,5.6355,5.6158,5.5084,5.3756,5.2886,5.2,5.0593,5.0005,4.979,4.9475,4.9591,4.9558,4.8928,4.8514,4.8614,4.873,4.8614,4.8431,4.8216,4.81,4.8017,4.7984,4.7968,4.7853,4.7721,4.7487,4.72,4.7166,4.7183,4.7098,4.6979,4.6996,4.7043,4.7009,4.6958,4.7007,4.6942,4.6893,4.691,4.7072,4.725,4.7427,4.7362,4.7313,4.767,4.801,4.8366,4.872,4.9012,4.9416,6.4769,6.4735,6.5449,6.5714,6.5714,6.5804,6.5768,6.559,6.5679,6.5679,6.5679,6.5804,6.5804,6.5804,6.5804,6.5804,6.5804,6.5804,6.5804,6.5804,6.5804,6.5804,6.5804,6.5804,6.5804,6.5804,6.5804,6.5804,6.5804,6.5804,6.5804,6.5804,6.5804,6.5804,6.5893,6.6018,6.6089,6.6178,6.6428,6.6373,6.6018,6.5857,6.5714,6.5697,6.5607,6.534,6.4555,6.3752,6.3018,6.2464,6.17,6.1147,6.1129,6.1093,6.0933,6.0772,6.0365,6.0044,5.9687,5.9063,5.9009,5.8938,5.831,5.7128,5.67,5.6436,5.6245,5.5851,5.4371,5.3722,5.298,5.2099,5.0755,5.0618,5.0353,5.0071,4.9939,4.9475,4.9094,4.8978,4.8978,4.9077,4.8928,4.8779,4.8117,4.7985,4.7853,4.782,4.7637,4.7487,4.7302,4.7098,4.6996,4.6961,4.6961,4.6943,4.7009,4.7171,4.7251,4.7201,4.7168,4.712,4.7396,4.7428,4.7653,4.7799,4.7929,4.7945,4.8042,4.8267,4.851,4.8607,4.8963,4.9352,4.9708,6.3903,6.3895,6.4216,6.4323,6.4374,6.484,6.4787,6.4358,6.4323,6.4626,6.511,6.5554,6.5804,6.5804,6.5804,6.5804,6.5804,6.5804,6.5804,6.5804,6.5804,6.5804,6.5804,6.5804,6.5804,6.5804,6.5804,6.5804,6.5804,6.5804,6.5804,6.5804,6.5804,6.6178,6.6339,6.6589,6.6785,6.6856,6.666,6.625,6.6535,6.6,6.5804,6.5804,6.5804,6.5679,6.5268,6.4573,6.3787,6.2967,6.2197,6.1628,6.1165,6.1111,6.1093,6.1093,6.0701,6.0611,6.0362,5.9526,5.8906,5.8813,5.8185,5.7467,5.7075,5.6736,5.6183,5.5527,5.4762,5.4193,5.3375,5.2135,5.1099,5.1397,5.1299,5.0852,5.0419,5.0038,5.0088,5.0137,4.9988,4.9906,4.9674,4.9442,4.863,4.7935,4.7787,4.7637,4.7487,4.7384,4.7247,4.7127,4.7025,4.7136,4.7169,4.7136,4.7088,4.7347,4.759,4.767,4.7783,4.8186,4.8397,4.8332,4.8235,4.838,4.851,4.8575,4.872,4.8933,4.8769,4.8558,4.9028,4.9691,5.0082,6.3102,6.3107,6.3321,6.3392,6.3466,6.4002,6.393,6.3464,6.3446,6.3859,6.4646,6.5411,6.5804,6.5804,6.5804,6.5804,6.5804,6.5804,6.5804,6.5804,6.5804,6.5804,6.5804,6.5804,6.5804,6.5804,6.5804,6.5804,6.5804,6.5804,6.5804,6.5804,6.5839,6.625,6.6908,6.7533,6.7838,6.7694,6.7267,6.6517,6.6928,6.6232,6.5804,6.5804,6.5804,6.5572,6.5286,6.468,6.3948,6.3145,6.2429,6.186,6.1397,6.1093,6.1093,6.1093,6.1093,6.1093,6.0772,6.024,5.9298,5.9223,5.8845,5.8199,5.7592,5.7075,5.6644,5.5854,5.5127,5.4452,5.3877,5.309,5.2353,5.2605,5.2234,5.1764,5.127,5.0884,5.1149,5.1331,5.0916,5.0269,5.0153,4.9772,4.8828,4.8101,4.7803,4.7637,4.747,4.7383,4.7327,4.7224,4.7121,4.7315,4.7491,4.7524,4.7637,4.8107,4.8316,4.8445,4.8656,4.9028,4.9076,4.8769,4.8753,4.8963,4.8963,4.8866,4.9141,4.9532,4.9157,4.872,4.9645,5.0293,5.0455,6.2424,6.2429,6.3053,6.3306,6.325,6.3377,6.3357,6.3181,6.3357,6.3805,6.4521,6.534,6.5768,6.575,6.5714,6.5661,6.5804,6.5804,6.5804,6.5804,6.5804,6.5804,6.5804,6.5804,6.5804,6.5804,6.5804,6.5804,6.5804,6.5982,6.5929,6.5946,6.6089,6.6464,6.714,6.8498,6.8801,6.823,6.8088,6.7479,6.7087,6.6321,6.5857,6.5804,6.5804,6.5554,6.5179,6.4789,6.4055,6.3163,6.2696,6.2092,6.1414,6.1304,6.1233,6.1093,6.1093,6.1093,6.104,6.1004,6.054,5.9919,5.9541,5.9041,5.8038,5.7503,5.7204,5.6425,5.5677,5.5328,5.4991,5.4589,5.3875,5.328,5.2876,5.247,5.1942,5.1596,5.1795,5.1911,5.1098,5.0385,5.0334,5.0035,4.9026,4.8332,4.7902,4.767,4.7534,4.769,4.7761,4.7757,4.7702,4.7864,4.8107,4.8058,4.8219,4.872,4.9076,4.9222,4.9319,4.953,4.9449,4.9206,4.9222,4.9416,4.9254,4.906,4.9416,4.9694,4.9271,4.9157,5.0131,5.07,5.0681,6.1563,6.1536,6.1771,6.186,6.195,6.2464,6.2393,6.2128,6.2895,6.3555,6.393,6.4662,6.536,6.5518,6.5322,6.5304,6.575,6.5804,6.5804,6.5804,6.5804,6.5804,6.5804,6.5804,6.5804,6.5804,6.5804,6.5804,6.5804,6.6125,6.6107,6.6089,6.6678,6.7427,6.7909,6.8819,6.9283,6.9301,6.8427,6.7408,6.7515,6.6517,6.5804,6.5804,6.5804,6.5607,6.5251,6.486,6.4251,6.3502,6.3145,6.2554,6.1911,6.1733,6.1554,6.1236,6.1093,6.1093,6.1093,6.1058,6.1004,6.0611,6.0183,5.9737,5.9131,5.8074,5.7574,5.7013,5.6176,5.5725,5.5234,5.4717,5.4087,5.3533,5.3112,5.2805,5.2409,5.2216,5.2192,5.2209,5.1728,5.106,5.081,5.031,4.9385,4.8755,4.8359,4.8024,4.785,4.833,4.8578,4.8594,4.8591,4.8656,4.872,4.8753,4.903,4.9546,4.9853,5.0034,5.0131,5.0147,5.0276,5.0244,5.005,4.9837,4.9643,4.9513,4.9694,4.9742,4.9416,4.9465,5.0212,5.0552,5.0519,6.0933,6.0719,6.0986,6.1093,6.1182,6.1664,6.1557,6.1379,6.2447,6.3018,6.3181,6.3859,6.461,6.4985,6.4931,6.5036,6.575,6.5804,6.5804,6.5804,6.5804,6.5804,6.5804,6.5804,6.5804,6.5804,6.5804,6.5804,6.5804,6.6303,6.6232,6.6268,6.7285,6.7622,6.807,6.8623,6.9283,6.8997,6.789,6.723,6.7124,6.6571,6.5822,6.5804,6.5768,6.5643,6.5393,6.5054,6.4608,6.4073,6.3484,6.2875,6.2286,6.1822,6.1611,6.1218,6.1093,6.1093,6.1093,6.1093,6.1058,6.1004,6.0558,6.0219,5.9901,5.9023,5.8417,5.7754,5.6744,5.6356,5.5991,5.5416,5.4817,5.4268,5.391,5.3632,5.3196,5.301,5.2663,5.2678,5.2326,5.1756,5.1053,5.0485,4.9739,4.9254,4.882,4.8531,4.8276,4.8708,4.9157,4.919,4.9254,4.9303,4.94,4.9548,4.9888,5.039,5.0552,5.0617,5.0765,5.0781,5.104,5.1121,5.0503,5.0082,5.0034,5.0017,4.9904,4.9855,4.9775,4.9953,5.0374,5.0536,5.0617,6.0558,6.0026,6.0736,6.1022,6.104,6.1129,6.1147,6.1182,6.1983,6.2324,6.2393,6.3125,6.3823,6.4432,6.4503,6.4914,6.5607,6.5714,6.5804,6.5804,6.5804,6.5804,6.5804,6.5804,6.5804,6.5804,6.5804,6.5804,6.5804,6.5964,6.5911,6.6321,6.7499,6.7622,6.7802,6.8266,6.8766,6.8319,6.7658,6.714,6.6981,6.6303,6.5875,6.5804,6.5768,6.5518,6.5304,6.5143,6.4323,6.3663,6.3107,6.2378,6.1753,6.12,6.1147,6.1093,6.1093,6.1093,6.1093,6.1093,6.1093,6.1093,6.104,6.0611,6.0115,5.963,5.9009,5.8524,5.7761,5.7583,5.7295,5.6645,5.5999,5.5563,5.5162,5.4717,5.4183,5.3813,5.3382,5.3076,5.2624,5.1977,5.1054,5.0385,5.0238,4.9962,4.9559,4.9261,4.9055,4.9017,4.9402,4.9578,4.9675,4.9888,5.0034,5.0196,5.039,5.0778,5.0927,5.1024,5.1186,5.1202,5.1202,5.104,5.057,5.0244,5.0098,4.9953,4.9805,4.9837,5.0179,5.039,5.0778,5.0927,5.1008,5.9259,5.9152,5.9916,6.024,6.0329,6.0861,6.1093,6.12,6.1932,6.2286,6.2322,6.2518,6.3053,6.3716,6.3734,6.4251,6.4878,6.5449,6.5732,6.5786,6.5768,6.5786,6.5804,6.5804,6.5804,6.5804,6.5804,6.5804,6.5822,6.5822,6.6553,6.7481,6.7677,6.7515,6.7515,6.7927,6.7998,6.7856,6.7194,6.698,6.673,6.6161,6.5911,6.5804,6.5804,6.5554,6.5536,6.511,6.4448,6.4126,6.352,6.2824,6.2125,6.1929,6.184,6.1147,6.1093,6.1093,6.1093,6.1093,6.1093,6.1093,6.1093,6.1058,6.054,5.9969,5.9437,5.9152,5.8577,5.8167,5.7949,5.7458,5.6738,5.6127,5.5748,5.5311,5.4705,5.3962,5.3567,5.3076,5.2641,5.2054,5.1115,5.0869,5.0734,5.055,5.031,4.9984,4.9817,4.9779,4.9661,4.9855,5.0115,5.0309,5.0617,5.0846,5.0959,5.1121,5.1186,5.1202,5.1202,5.1202,5.1202,5.1072,5.0797,5.0406,5.005,5.005,5.026,5.0568,5.0894,5.1008,5.1137,5.117,5.1202,5.8602,5.8399,5.9098,5.9419,5.958,6.0276,6.0629,6.079,6.1468,6.184,6.184,6.1807,6.225,6.2893,6.3018,6.3392,6.4144,6.4876,6.5251,6.5304,6.5607,6.5768,6.5804,6.5786,6.5804,6.5804,6.5786,6.5804,6.5839,6.6178,6.6839,6.691,6.741,6.7178,6.6856,6.6874,6.7053,6.6963,6.6748,6.6587,6.6339,6.6071,6.5893,6.5804,6.5804,6.5804,6.5768,6.5181,6.4858,6.4287,6.3535,6.286,6.2107,6.1768,6.1715,6.1129,6.1093,6.1093,6.1093,6.1093,6.1093,6.1093,6.1093,6.1075,6.0897,6.0415,6.029,6.0112,5.9238,5.856,5.8399,5.8139,5.7285,5.6453,5.6091,5.5742,5.4939,5.4064,5.35,5.3007,5.2489,5.1965,5.1563,5.1361,5.1084,5.0662,5.0503,5.0429,5.0429,5.0522,5.026,5.0163,5.0455,5.0714,5.104,5.1202,5.1186,5.117,5.1186,5.1202,5.1202,5.1202,5.1202,5.1202,5.117,5.0813,5.0455,5.0765,5.1008,5.1234,5.1283,5.1234,5.1202,5.1186,5.1202,5.8303,5.7588,5.8328,5.8688,5.8831,5.9509,5.9794,5.9901,6.0665,6.1058,6.1129,6.1129,6.1557,6.2161,6.2375,6.275,6.3413,6.4126,6.4662,6.4557,6.4965,6.534,6.5714,6.5732,6.5625,6.5697,6.5661,6.5465,6.5839,6.6143,6.6232,6.5875,6.6712,6.6748,6.6161,6.6321,6.6446,6.6214,6.6125,6.6,6.5929,6.5822,6.5804,6.5804,6.5804,6.5804,6.5804,6.5518,6.5108,6.4073,6.3357,6.2842,6.1914,6.1218,6.1182,6.1129,6.1093,6.1093,6.1093,6.1093,6.1093,6.1093,6.1093,6.1093,6.0933,6.0558,6.0415,6.0558,5.9826,5.938,5.9184,5.8685,5.7904,5.7137,5.6606,5.6311,5.5819,5.4715,5.3532,5.3044,5.2582,5.2054,5.1534,5.1316,5.1366,5.0802,5.0617,5.0735,5.094,5.1151,5.0876,5.0519,5.0471,5.0714,5.1072,5.1202,5.1202,5.1202,5.1202,5.1202,5.1202,5.1202,5.1202,5.1202,5.1202,5.1202,5.1089,5.1218,5.1299,5.1461,5.1461,5.1345,5.1332,5.138,5.1202,5.7146,5.6904,5.758,5.8185,5.8674,5.8902,5.8973,5.9063,5.9844,6.0504,6.1004,6.1093,6.12,6.1486,6.2,6.2375,6.2661,6.3357,6.4019,6.4126,6.4323,6.4804,6.5393,6.5108,6.5233,6.5431,6.5306,6.4914,6.5181,6.5643,6.6071,6.5929,6.65,6.6464,6.5893,6.6161,6.625,6.5839,6.5804,6.5804,6.5804,6.5804,6.5804,6.5804,6.5804,6.5804,6.5804,6.5732,6.5233,6.4485,6.4358,6.3484,6.2179,6.1483,6.1147,6.1093,6.1093,6.1093,6.1093,6.1093,6.1093,6.1093,6.1093,6.1093,6.0915,6.0469,6.0362,6.0594,6.0576,6.0204,5.9828,5.9215,5.8577,5.7842,5.7096,5.686,5.657,5.5128,5.3671,5.3173,5.2731,5.215,5.1617,5.144,5.1471,5.1328,5.1129,5.1153,5.1442,5.1637,5.1329,5.094,5.0374,5.0519,5.0959,5.1202,5.1202,5.1202,5.1202,5.1202,5.1202,5.1202,5.1202,5.1202,5.1202,5.1332,5.138,5.1267,5.138,5.162,5.1685,5.1604,5.1782,5.1879,5.151,5.6768,5.6653,5.7015,5.733,5.7703,5.8046,5.8221,5.8367,5.9027,5.9616,6.0151,6.0719,6.1075,6.1075,6.1575,6.1789,6.1947,6.2589,6.3018,6.327,6.3609,6.4002,6.4234,6.4323,6.4323,6.4501,6.4376,6.4216,6.4557,6.4949,6.5342,6.5786,6.6285,6.6303,6.5857,6.6232,6.6303,6.5822,6.5804,6.5804,6.5804,6.5804,6.5804,6.5804,6.5804,6.5804,6.5804,6.575,6.5322,6.4485,6.3895,6.327,6.2197,6.1521,6.1165,6.1093,6.1093,6.1093,6.1093,6.1093,6.1093,6.1093,6.1093,6.1093,6.1093,6.0736,6.0719,6.0915,6.0897,6.0594,6.0579,6.0143,5.9317,5.8534,5.7622,5.6996,5.6064,5.4696,5.3971,5.375,5.3084,5.2195,5.1776,5.1603,5.165,5.1745,5.1558,5.1847,5.2106,5.2074,5.1766,5.151,5.1005,5.0714,5.104,5.1202,5.1202,5.1202,5.1283,5.1218,5.1218,5.1202,5.1202,5.1315,5.1477,5.1704,5.1685,5.1685,5.1734,5.2009,5.1977,5.1896,5.2139,5.243,5.2187,5.6577,5.6492,5.6438,5.6465,5.6504,5.7146,5.7449,5.7574,5.8238,5.8563,5.8813,6.013,6.0736,6.0933,6.1093,6.1093,6.1307,6.186,6.2164,6.2554,6.2821,6.327,6.3431,6.3377,6.3395,6.3466,6.3484,6.3877,6.4307,6.4664,6.5092,6.5643,6.5804,6.5804,6.5804,6.5822,6.5804,6.5804,6.5804,6.5804,6.5804,6.5804,6.5804,6.5804,6.5804,6.5804,6.5804,6.5679,6.534,6.4608,6.3609,6.2824,6.2182,6.1557,6.1254,6.1093,6.1093,6.1093,6.1093,6.1093,6.1093,6.1093,6.1093,6.1093,6.1093,6.1093,6.1075,6.1058,6.104,6.104,6.1025,6.0706,5.986,5.9124,5.8139,5.714,5.583,5.4653,5.442,5.4288,5.3543,5.2602,5.213,5.1941,5.2023,5.2118,5.2252,5.2641,5.2819,5.2527,5.2239,5.209,5.1863,5.1637,5.1445,5.1461,5.1542,5.1526,5.1607,5.1396,5.1283,5.1445,5.1542,5.1575,5.1734,5.2203,5.2365,5.2398,5.2462,5.2446,5.2171,5.2155,5.2802,5.3029,5.3013,5.5399,5.579,5.5685,5.5911,5.6361,5.6579,5.6646,5.6757,5.7467,5.7824,5.8042,5.867,5.9455,6.0148,6.0861,6.1022,6.095,6.1343,6.1825,6.2304,6.1968,6.2485,6.2824,6.2628,6.2536,6.2643,6.2911,6.3431,6.3895,6.4361,6.5003,6.5732,6.5804,6.5804,6.5804,6.5804,6.5804,6.5804,6.5804,6.5804,6.5804,6.5804,6.5804,6.5804,6.5804,6.5804,6.5804,6.5804,6.5714,6.5143,6.4071,6.3036,6.2232,6.1575,6.12,6.1093,6.1093,6.1093,6.1093,6.1093,6.1093,6.1093,6.1093,6.1093,6.1093,6.1093,6.1093,6.1093,6.1075,6.1075,6.0983,6.0569,5.9878,5.9397,5.8647,5.7555,5.6373,5.5587,5.5102,5.4897,5.4509,5.3583,5.2726,5.2783,5.3102,5.3065,5.2786,5.3155,5.3806,5.3304,5.2725,5.2705,5.2673,5.2317,5.2025,5.2041,5.209,5.2041,5.1931,5.1737,5.1688,5.1847,5.1912,5.1879,5.243,5.3026,5.3107,5.3207,5.2961,5.2867,5.2414,5.2398,5.3126,5.3628,5.3612]}]]